<?xml version="1.0" encoding="UTF-8" standalone="no" ?>
<gpx xmlns="http://www.topografix.com/GPX/1/1" xmlns:xsi="http://www.w3.org/2001/XMLSchema-instance" xsi:schemaLocation="http://www.topografix.com/GPX/1/1 http://www.topografix.com/GPX/1/1/gpx.xsd" version="1.1" creator="VisuGPX - https://www.visugpx.com">
  <metadata>
    <name>rando Rocheservière</name>
    <desc><![CDATA[55 kms ,le 10/04/11,temps voilé]]></desc>
  </metadata>
  <trk>
    <name><![CDATA[10_04_201108_00_40_history on GPSies.com]]></name>
    <trkseg>
      <trkpt lat="46.93351" lon="-1.50792">
        <ele>40</ele>
        <time>2011-04-10T06:00:40Z</time>
      </trkpt>
      <trkpt lat="46.93351" lon="-1.50792">
        <ele>40</ele>
        <time>2011-04-10T06:00:41Z</time>
      </trkpt>
      <trkpt lat="46.93351" lon="-1.50791">
        <ele>41</ele>
        <time>2011-04-10T06:00:44Z</time>
      </trkpt>
      <trkpt lat="46.93352" lon="-1.50791">
        <ele>41</ele>
        <time>2011-04-10T06:00:45Z</time>
      </trkpt>
      <trkpt lat="46.93353" lon="-1.50791">
        <ele>41</ele>
        <time>2011-04-10T06:00:46Z</time>
      </trkpt>
      <trkpt lat="46.93355" lon="-1.50791">
        <ele>41</ele>
        <time>2011-04-10T06:00:47Z</time>
      </trkpt>
      <trkpt lat="46.93365" lon="-1.50788">
        <ele>41</ele>
        <time>2011-04-10T06:00:50Z</time>
      </trkpt>
      <trkpt lat="46.93366" lon="-1.50786">
        <ele>41</ele>
        <time>2011-04-10T06:00:51Z</time>
      </trkpt>
      <trkpt lat="46.93372" lon="-1.5077">
        <ele>41</ele>
        <time>2011-04-10T06:00:57Z</time>
      </trkpt>
      <trkpt lat="46.93376" lon="-1.50756">
        <ele>41</ele>
        <time>2011-04-10T06:01:02Z</time>
      </trkpt>
      <trkpt lat="46.93376" lon="-1.50739">
        <ele>42</ele>
        <time>2011-04-10T06:01:09Z</time>
      </trkpt>
      <trkpt lat="46.93376" lon="-1.50737">
        <ele>42</ele>
        <time>2011-04-10T06:01:10Z</time>
      </trkpt>
      <trkpt lat="46.93381" lon="-1.50738">
        <ele>42</ele>
        <time>2011-04-10T06:01:15Z</time>
      </trkpt>
      <trkpt lat="46.93381" lon="-1.5074">
        <ele>42</ele>
        <time>2011-04-10T06:01:16Z</time>
      </trkpt>
      <trkpt lat="46.9338" lon="-1.50744">
        <ele>42</ele>
        <time>2011-04-10T06:01:18Z</time>
      </trkpt>
      <trkpt lat="46.93371" lon="-1.50747">
        <ele>42</ele>
        <time>2011-04-10T06:01:22Z</time>
      </trkpt>
      <trkpt lat="46.93364" lon="-1.50735">
        <ele>42</ele>
        <time>2011-04-10T06:01:26Z</time>
      </trkpt>
      <trkpt lat="46.93354" lon="-1.50731">
        <ele>42</ele>
        <time>2011-04-10T06:01:30Z</time>
      </trkpt>
      <trkpt lat="46.93346" lon="-1.50726">
        <ele>42</ele>
        <time>2011-04-10T06:01:34Z</time>
      </trkpt>
      <trkpt lat="46.93343" lon="-1.50722">
        <ele>42</ele>
        <time>2011-04-10T06:01:37Z</time>
      </trkpt>
      <trkpt lat="46.93334" lon="-1.50724">
        <ele>42</ele>
        <time>2011-04-10T06:01:42Z</time>
      </trkpt>
      <trkpt lat="46.93319" lon="-1.50725">
        <ele>37</ele>
        <time>2011-04-10T06:01:47Z</time>
      </trkpt>
      <trkpt lat="46.93317" lon="-1.50726">
        <ele>37</ele>
        <time>2011-04-10T06:01:48Z</time>
      </trkpt>
      <trkpt lat="46.93317" lon="-1.50738">
        <ele>38</ele>
        <time>2011-04-10T06:01:52Z</time>
      </trkpt>
      <trkpt lat="46.93325" lon="-1.50756">
        <ele>39</ele>
        <time>2011-04-10T06:01:57Z</time>
      </trkpt>
      <trkpt lat="46.93326" lon="-1.50759">
        <ele>39</ele>
        <time>2011-04-10T06:01:58Z</time>
      </trkpt>
      <trkpt lat="46.93326" lon="-1.50765">
        <ele>39</ele>
        <time>2011-04-10T06:02:03Z</time>
      </trkpt>
      <trkpt lat="46.93323" lon="-1.50779">
        <ele>38</ele>
        <time>2011-04-10T06:02:07Z</time>
      </trkpt>
      <trkpt lat="46.93322" lon="-1.50784">
        <ele>38</ele>
        <time>2011-04-10T06:02:08Z</time>
      </trkpt>
      <trkpt lat="46.93304" lon="-1.50799">
        <ele>37</ele>
        <time>2011-04-10T06:02:14Z</time>
      </trkpt>
      <trkpt lat="46.93292" lon="-1.50821">
        <ele>36</ele>
        <time>2011-04-10T06:02:19Z</time>
      </trkpt>
      <trkpt lat="46.9329" lon="-1.50831">
        <ele>36</ele>
        <time>2011-04-10T06:02:21Z</time>
      </trkpt>
      <trkpt lat="46.9329" lon="-1.50848">
        <ele>37</ele>
        <time>2011-04-10T06:02:24Z</time>
      </trkpt>
      <trkpt lat="46.93285" lon="-1.50869">
        <ele>37</ele>
        <time>2011-04-10T06:02:28Z</time>
      </trkpt>
      <trkpt lat="46.93293" lon="-1.50886">
        <ele>37</ele>
        <time>2011-04-10T06:02:31Z</time>
      </trkpt>
      <trkpt lat="46.9331" lon="-1.50898">
        <ele>38</ele>
        <time>2011-04-10T06:02:35Z</time>
      </trkpt>
      <trkpt lat="46.93328" lon="-1.50915">
        <ele>40</ele>
        <time>2011-04-10T06:02:40Z</time>
      </trkpt>
      <trkpt lat="46.93343" lon="-1.50935">
        <ele>39</ele>
        <time>2011-04-10T06:02:45Z</time>
      </trkpt>
      <trkpt lat="46.93345" lon="-1.50945">
        <ele>39</ele>
        <time>2011-04-10T06:02:48Z</time>
      </trkpt>
      <trkpt lat="46.93345" lon="-1.5095">
        <ele>39</ele>
        <time>2011-04-10T06:02:51Z</time>
      </trkpt>
      <trkpt lat="46.93331" lon="-1.50951">
        <ele>37</ele>
        <time>2011-04-10T06:02:58Z</time>
      </trkpt>
      <trkpt lat="46.93323" lon="-1.50951">
        <ele>36</ele>
        <time>2011-04-10T06:03:01Z</time>
      </trkpt>
      <trkpt lat="46.93314" lon="-1.50951">
        <ele>36</ele>
        <time>2011-04-10T06:03:06Z</time>
      </trkpt>
      <trkpt lat="46.93313" lon="-1.50951">
        <ele>36</ele>
        <time>2011-04-10T06:03:07Z</time>
      </trkpt>
      <trkpt lat="46.93305" lon="-1.50943">
        <ele>36</ele>
        <time>2011-04-10T06:03:12Z</time>
      </trkpt>
      <trkpt lat="46.93299" lon="-1.50936">
        <ele>36</ele>
        <time>2011-04-10T06:03:15Z</time>
      </trkpt>
      <trkpt lat="46.93288" lon="-1.50917">
        <ele>37</ele>
        <time>2011-04-10T06:03:20Z</time>
      </trkpt>
      <trkpt lat="46.93274" lon="-1.50916">
        <ele>36</ele>
        <time>2011-04-10T06:03:24Z</time>
      </trkpt>
      <trkpt lat="46.93271" lon="-1.50916">
        <ele>36</ele>
        <time>2011-04-10T06:03:25Z</time>
      </trkpt>
      <trkpt lat="46.93271" lon="-1.50904">
        <ele>36</ele>
        <time>2011-04-10T06:03:30Z</time>
      </trkpt>
      <trkpt lat="46.93277" lon="-1.50888">
        <ele>36</ele>
        <time>2011-04-10T06:03:35Z</time>
      </trkpt>
      <trkpt lat="46.93281" lon="-1.50876">
        <ele>37</ele>
        <time>2011-04-10T06:03:39Z</time>
      </trkpt>
      <trkpt lat="46.93283" lon="-1.5087">
        <ele>37</ele>
        <time>2011-04-10T06:03:41Z</time>
      </trkpt>
      <trkpt lat="46.93283" lon="-1.50863">
        <ele>37</ele>
        <time>2011-04-10T06:03:43Z</time>
      </trkpt>
      <trkpt lat="46.93282" lon="-1.50834">
        <ele>36</ele>
        <time>2011-04-10T06:03:50Z</time>
      </trkpt>
      <trkpt lat="46.93283" lon="-1.50807">
        <ele>36</ele>
        <time>2011-04-10T06:03:56Z</time>
      </trkpt>
      <trkpt lat="46.93288" lon="-1.50779">
        <ele>36</ele>
        <time>2011-04-10T06:04:03Z</time>
      </trkpt>
      <trkpt lat="46.93299" lon="-1.50743">
        <ele>36</ele>
        <time>2011-04-10T06:04:10Z</time>
      </trkpt>
      <trkpt lat="46.93309" lon="-1.50708">
        <ele>37</ele>
        <time>2011-04-10T06:04:17Z</time>
      </trkpt>
      <trkpt lat="46.93316" lon="-1.50679">
        <ele>38</ele>
        <time>2011-04-10T06:04:23Z</time>
      </trkpt>
      <trkpt lat="46.93321" lon="-1.50659">
        <ele>39</ele>
        <time>2011-04-10T06:04:27Z</time>
      </trkpt>
      <trkpt lat="46.9332" lon="-1.50641">
        <ele>38</ele>
        <time>2011-04-10T06:04:32Z</time>
      </trkpt>
      <trkpt lat="46.93318" lon="-1.50637">
        <ele>38</ele>
        <time>2011-04-10T06:04:33Z</time>
      </trkpt>
      <trkpt lat="46.93293" lon="-1.50602">
        <ele>36</ele>
        <time>2011-04-10T06:04:39Z</time>
      </trkpt>
      <trkpt lat="46.93278" lon="-1.50578">
        <ele>37</ele>
        <time>2011-04-10T06:04:42Z</time>
      </trkpt>
      <trkpt lat="46.93263" lon="-1.50565">
        <ele>36</ele>
        <time>2011-04-10T06:04:45Z</time>
      </trkpt>
      <trkpt lat="46.93245" lon="-1.50574">
        <ele>32</ele>
        <time>2011-04-10T06:04:48Z</time>
      </trkpt>
      <trkpt lat="46.93229" lon="-1.50597">
        <ele>29</ele>
        <time>2011-04-10T06:04:51Z</time>
      </trkpt>
      <trkpt lat="46.93226" lon="-1.50606">
        <ele>28</ele>
        <time>2011-04-10T06:04:52Z</time>
      </trkpt>
      <trkpt lat="46.93209" lon="-1.50652">
        <ele>27</ele>
        <time>2011-04-10T06:04:57Z</time>
      </trkpt>
      <trkpt lat="46.93206" lon="-1.5066">
        <ele>26</ele>
        <time>2011-04-10T06:04:58Z</time>
      </trkpt>
      <trkpt lat="46.93188" lon="-1.50673">
        <ele>25</ele>
        <time>2011-04-10T06:05:02Z</time>
      </trkpt>
      <trkpt lat="46.93149" lon="-1.50666">
        <ele>24</ele>
        <time>2011-04-10T06:05:09Z</time>
      </trkpt>
      <trkpt lat="46.9311" lon="-1.5067">
        <ele>26</ele>
        <time>2011-04-10T06:05:16Z</time>
      </trkpt>
      <trkpt lat="46.93098" lon="-1.5067">
        <ele>26</ele>
        <time>2011-04-10T06:05:18Z</time>
      </trkpt>
      <trkpt lat="46.93075" lon="-1.50665">
        <ele>26</ele>
        <time>2011-04-10T06:05:22Z</time>
      </trkpt>
      <trkpt lat="46.93034" lon="-1.50646">
        <ele>28</ele>
        <time>2011-04-10T06:05:30Z</time>
      </trkpt>
      <trkpt lat="46.93" lon="-1.5063">
        <ele>32</ele>
        <time>2011-04-10T06:05:37Z</time>
      </trkpt>
      <trkpt lat="46.9296" lon="-1.5062">
        <ele>32</ele>
        <time>2011-04-10T06:05:45Z</time>
      </trkpt>
      <trkpt lat="46.92954" lon="-1.50618">
        <ele>32</ele>
        <time>2011-04-10T06:05:46Z</time>
      </trkpt>
      <trkpt lat="46.9294" lon="-1.50609">
        <ele>32</ele>
        <time>2011-04-10T06:05:49Z</time>
      </trkpt>
      <trkpt lat="46.92899" lon="-1.50573">
        <ele>31</ele>
        <time>2011-04-10T06:05:58Z</time>
      </trkpt>
      <trkpt lat="46.92876" lon="-1.50541">
        <ele>33</ele>
        <time>2011-04-10T06:06:04Z</time>
      </trkpt>
      <trkpt lat="46.92861" lon="-1.50502">
        <ele>33</ele>
        <time>2011-04-10T06:06:10Z</time>
      </trkpt>
      <trkpt lat="46.92857" lon="-1.50481">
        <ele>30</ele>
        <time>2011-04-10T06:06:13Z</time>
      </trkpt>
      <trkpt lat="46.92858" lon="-1.50439">
        <ele>29</ele>
        <time>2011-04-10T06:06:19Z</time>
      </trkpt>
      <trkpt lat="46.92862" lon="-1.50427">
        <ele>29</ele>
        <time>2011-04-10T06:06:21Z</time>
      </trkpt>
      <trkpt lat="46.92883" lon="-1.50377">
        <ele>27</ele>
        <time>2011-04-10T06:06:30Z</time>
      </trkpt>
      <trkpt lat="46.92887" lon="-1.50367">
        <ele>27</ele>
        <time>2011-04-10T06:06:34Z</time>
      </trkpt>
      <trkpt lat="46.9289" lon="-1.50359">
        <ele>27</ele>
        <time>2011-04-10T06:06:38Z</time>
      </trkpt>
      <trkpt lat="46.92896" lon="-1.50353">
        <ele>28</ele>
        <time>2011-04-10T06:06:43Z</time>
      </trkpt>
      <trkpt lat="46.92896" lon="-1.50336">
        <ele>28</ele>
        <time>2011-04-10T06:06:48Z</time>
      </trkpt>
      <trkpt lat="46.92898" lon="-1.50322">
        <ele>28</ele>
        <time>2011-04-10T06:06:51Z</time>
      </trkpt>
      <trkpt lat="46.92904" lon="-1.50302">
        <ele>28</ele>
        <time>2011-04-10T06:06:56Z</time>
      </trkpt>
      <trkpt lat="46.92912" lon="-1.50285">
        <ele>28</ele>
        <time>2011-04-10T06:07:01Z</time>
      </trkpt>
      <trkpt lat="46.92918" lon="-1.50266">
        <ele>31</ele>
        <time>2011-04-10T06:07:07Z</time>
      </trkpt>
      <trkpt lat="46.92918" lon="-1.50263">
        <ele>31</ele>
        <time>2011-04-10T06:07:08Z</time>
      </trkpt>
      <trkpt lat="46.92921" lon="-1.50245">
        <ele>31</ele>
        <time>2011-04-10T06:07:13Z</time>
      </trkpt>
      <trkpt lat="46.92923" lon="-1.50239">
        <ele>31</ele>
        <time>2011-04-10T06:07:15Z</time>
      </trkpt>
      <trkpt lat="46.92926" lon="-1.50221">
        <ele>31</ele>
        <time>2011-04-10T06:07:21Z</time>
      </trkpt>
      <trkpt lat="46.92933" lon="-1.502">
        <ele>31</ele>
        <time>2011-04-10T06:07:25Z</time>
      </trkpt>
      <trkpt lat="46.92931" lon="-1.50179">
        <ele>31</ele>
        <time>2011-04-10T06:07:29Z</time>
      </trkpt>
      <trkpt lat="46.92932" lon="-1.50171">
        <ele>31</ele>
        <time>2011-04-10T06:07:31Z</time>
      </trkpt>
      <trkpt lat="46.92931" lon="-1.50155">
        <ele>31</ele>
        <time>2011-04-10T06:07:35Z</time>
      </trkpt>
      <trkpt lat="46.92933" lon="-1.5015">
        <ele>32</ele>
        <time>2011-04-10T06:07:36Z</time>
      </trkpt>
      <trkpt lat="46.92943" lon="-1.50128">
        <ele>32</ele>
        <time>2011-04-10T06:07:42Z</time>
      </trkpt>
      <trkpt lat="46.92955" lon="-1.50109">
        <ele>33</ele>
        <time>2011-04-10T06:07:48Z</time>
      </trkpt>
      <trkpt lat="46.92967" lon="-1.50105">
        <ele>33</ele>
        <time>2011-04-10T06:07:55Z</time>
      </trkpt>
      <trkpt lat="46.92971" lon="-1.50102">
        <ele>33</ele>
        <time>2011-04-10T06:08:01Z</time>
      </trkpt>
      <trkpt lat="46.92975" lon="-1.50101">
        <ele>33</ele>
        <time>2011-04-10T06:08:06Z</time>
      </trkpt>
      <trkpt lat="46.92977" lon="-1.50097">
        <ele>34</ele>
        <time>2011-04-10T06:08:08Z</time>
      </trkpt>
      <trkpt lat="46.92976" lon="-1.50081">
        <ele>35</ele>
        <time>2011-04-10T06:08:12Z</time>
      </trkpt>
      <trkpt lat="46.92967" lon="-1.50067">
        <ele>35</ele>
        <time>2011-04-10T06:08:16Z</time>
      </trkpt>
      <trkpt lat="46.92965" lon="-1.5006">
        <ele>35</ele>
        <time>2011-04-10T06:08:18Z</time>
      </trkpt>
      <trkpt lat="46.92958" lon="-1.50042">
        <ele>36</ele>
        <time>2011-04-10T06:08:25Z</time>
      </trkpt>
      <trkpt lat="46.92949" lon="-1.5002">
        <ele>36</ele>
        <time>2011-04-10T06:08:31Z</time>
      </trkpt>
      <trkpt lat="46.92934" lon="-1.49985">
        <ele>38</ele>
        <time>2011-04-10T06:08:40Z</time>
      </trkpt>
      <trkpt lat="46.92917" lon="-1.49949">
        <ele>39</ele>
        <time>2011-04-10T06:08:50Z</time>
      </trkpt>
      <trkpt lat="46.92903" lon="-1.49929">
        <ele>39</ele>
        <time>2011-04-10T06:08:57Z</time>
      </trkpt>
      <trkpt lat="46.9289" lon="-1.49916">
        <ele>41</ele>
        <time>2011-04-10T06:09:03Z</time>
      </trkpt>
      <trkpt lat="46.92876" lon="-1.49901">
        <ele>41</ele>
        <time>2011-04-10T06:09:09Z</time>
      </trkpt>
      <trkpt lat="46.92877" lon="-1.49886">
        <ele>42</ele>
        <time>2011-04-10T06:09:13Z</time>
      </trkpt>
      <trkpt lat="46.92882" lon="-1.49877">
        <ele>42</ele>
        <time>2011-04-10T06:09:15Z</time>
      </trkpt>
      <trkpt lat="46.92919" lon="-1.49827">
        <ele>44</ele>
        <time>2011-04-10T06:09:26Z</time>
      </trkpt>
      <trkpt lat="46.92955" lon="-1.49785">
        <ele>45</ele>
        <time>2011-04-10T06:09:36Z</time>
      </trkpt>
      <trkpt lat="46.92968" lon="-1.49766">
        <ele>45</ele>
        <time>2011-04-10T06:09:40Z</time>
      </trkpt>
      <trkpt lat="46.92978" lon="-1.49745">
        <ele>46</ele>
        <time>2011-04-10T06:09:44Z</time>
      </trkpt>
      <trkpt lat="46.92992" lon="-1.49686">
        <ele>47</ele>
        <time>2011-04-10T06:09:53Z</time>
      </trkpt>
      <trkpt lat="46.93011" lon="-1.496">
        <ele>47</ele>
        <time>2011-04-10T06:10:05Z</time>
      </trkpt>
      <trkpt lat="46.93005" lon="-1.49574">
        <ele>47</ele>
        <time>2011-04-10T06:10:09Z</time>
      </trkpt>
      <trkpt lat="46.93" lon="-1.49569">
        <ele>47</ele>
        <time>2011-04-10T06:10:10Z</time>
      </trkpt>
      <trkpt lat="46.92948" lon="-1.49525">
        <ele>47</ele>
        <time>2011-04-10T06:10:20Z</time>
      </trkpt>
      <trkpt lat="46.92875" lon="-1.49461">
        <ele>46</ele>
        <time>2011-04-10T06:10:33Z</time>
      </trkpt>
      <trkpt lat="46.92837" lon="-1.49416">
        <ele>45</ele>
        <time>2011-04-10T06:10:40Z</time>
      </trkpt>
      <trkpt lat="46.92782" lon="-1.49347">
        <ele>43</ele>
        <time>2011-04-10T06:10:50Z</time>
      </trkpt>
      <trkpt lat="46.92746" lon="-1.49301">
        <ele>42</ele>
        <time>2011-04-10T06:10:55Z</time>
      </trkpt>
      <trkpt lat="46.92714" lon="-1.49248">
        <ele>43</ele>
        <time>2011-04-10T06:11:00Z</time>
      </trkpt>
      <trkpt lat="46.92681" lon="-1.4919">
        <ele>44</ele>
        <time>2011-04-10T06:11:06Z</time>
      </trkpt>
      <trkpt lat="46.92654" lon="-1.49168">
        <ele>44</ele>
        <time>2011-04-10T06:11:10Z</time>
      </trkpt>
      <trkpt lat="46.92632" lon="-1.49158">
        <ele>45</ele>
        <time>2011-04-10T06:11:13Z</time>
      </trkpt>
      <trkpt lat="46.92609" lon="-1.49136">
        <ele>45</ele>
        <time>2011-04-10T06:11:17Z</time>
      </trkpt>
      <trkpt lat="46.92599" lon="-1.49122">
        <ele>45</ele>
        <time>2011-04-10T06:11:19Z</time>
      </trkpt>
      <trkpt lat="46.92584" lon="-1.49114">
        <ele>45</ele>
        <time>2011-04-10T06:11:22Z</time>
      </trkpt>
      <trkpt lat="46.92578" lon="-1.49124">
        <ele>46</ele>
        <time>2011-04-10T06:11:24Z</time>
      </trkpt>
      <trkpt lat="46.92576" lon="-1.49132">
        <ele>46</ele>
        <time>2011-04-10T06:11:25Z</time>
      </trkpt>
      <trkpt lat="46.92557" lon="-1.49221">
        <ele>47</ele>
        <time>2011-04-10T06:11:36Z</time>
      </trkpt>
      <trkpt lat="46.92539" lon="-1.49301">
        <ele>48</ele>
        <time>2011-04-10T06:11:46Z</time>
      </trkpt>
      <trkpt lat="46.92523" lon="-1.49372">
        <ele>48</ele>
        <time>2011-04-10T06:11:55Z</time>
      </trkpt>
      <trkpt lat="46.92519" lon="-1.49388">
        <ele>48</ele>
        <time>2011-04-10T06:11:57Z</time>
      </trkpt>
      <trkpt lat="46.92502" lon="-1.4947">
        <ele>49</ele>
        <time>2011-04-10T06:12:07Z</time>
      </trkpt>
      <trkpt lat="46.9249" lon="-1.49552">
        <ele>49</ele>
        <time>2011-04-10T06:12:17Z</time>
      </trkpt>
      <trkpt lat="46.92478" lon="-1.49657">
        <ele>47</ele>
        <time>2011-04-10T06:12:29Z</time>
      </trkpt>
      <trkpt lat="46.92482" lon="-1.49706">
        <ele>46</ele>
        <time>2011-04-10T06:12:34Z</time>
      </trkpt>
      <trkpt lat="46.92483" lon="-1.49727">
        <ele>45</ele>
        <time>2011-04-10T06:12:36Z</time>
      </trkpt>
      <trkpt lat="46.92479" lon="-1.49752">
        <ele>43</ele>
        <time>2011-04-10T06:12:39Z</time>
      </trkpt>
      <trkpt lat="46.9248" lon="-1.4977">
        <ele>43</ele>
        <time>2011-04-10T06:12:44Z</time>
      </trkpt>
      <trkpt lat="46.92478" lon="-1.49814">
        <ele>42</ele>
        <time>2011-04-10T06:12:50Z</time>
      </trkpt>
      <trkpt lat="46.92472" lon="-1.49855">
        <ele>39</ele>
        <time>2011-04-10T06:12:55Z</time>
      </trkpt>
      <trkpt lat="46.92456" lon="-1.49883">
        <ele>39</ele>
        <time>2011-04-10T06:12:59Z</time>
      </trkpt>
      <trkpt lat="46.92451" lon="-1.49888">
        <ele>40</ele>
        <time>2011-04-10T06:13:00Z</time>
      </trkpt>
      <trkpt lat="46.92421" lon="-1.49899">
        <ele>40</ele>
        <time>2011-04-10T06:13:06Z</time>
      </trkpt>
      <trkpt lat="46.92419" lon="-1.49916">
        <ele>41</ele>
        <time>2011-04-10T06:13:09Z</time>
      </trkpt>
      <trkpt lat="46.92419" lon="-1.49965">
        <ele>36</ele>
        <time>2011-04-10T06:13:15Z</time>
      </trkpt>
      <trkpt lat="46.9242" lon="-1.50006">
        <ele>35</ele>
        <time>2011-04-10T06:13:20Z</time>
      </trkpt>
      <trkpt lat="46.92423" lon="-1.5003">
        <ele>32</ele>
        <time>2011-04-10T06:13:24Z</time>
      </trkpt>
      <trkpt lat="46.92421" lon="-1.50037">
        <ele>32</ele>
        <time>2011-04-10T06:13:26Z</time>
      </trkpt>
      <trkpt lat="46.92426" lon="-1.50044">
        <ele>31</ele>
        <time>2011-04-10T06:13:30Z</time>
      </trkpt>
      <trkpt lat="46.92433" lon="-1.50054">
        <ele>30</ele>
        <time>2011-04-10T06:13:33Z</time>
      </trkpt>
      <trkpt lat="46.92433" lon="-1.50061">
        <ele>30</ele>
        <time>2011-04-10T06:13:36Z</time>
      </trkpt>
      <trkpt lat="46.92419" lon="-1.50063">
        <ele>30</ele>
        <time>2011-04-10T06:13:40Z</time>
      </trkpt>
      <trkpt lat="46.92415" lon="-1.50064">
        <ele>31</ele>
        <time>2011-04-10T06:13:41Z</time>
      </trkpt>
      <trkpt lat="46.92391" lon="-1.5007">
        <ele>32</ele>
        <time>2011-04-10T06:13:46Z</time>
      </trkpt>
      <trkpt lat="46.92373" lon="-1.50066">
        <ele>32</ele>
        <time>2011-04-10T06:13:50Z</time>
      </trkpt>
      <trkpt lat="46.92331" lon="-1.50058">
        <ele>32</ele>
        <time>2011-04-10T06:13:59Z</time>
      </trkpt>
      <trkpt lat="46.92319" lon="-1.50048">
        <ele>33</ele>
        <time>2011-04-10T06:14:03Z</time>
      </trkpt>
      <trkpt lat="46.92318" lon="-1.50041">
        <ele>34</ele>
        <time>2011-04-10T06:14:06Z</time>
      </trkpt>
      <trkpt lat="46.92319" lon="-1.5004">
        <ele>34</ele>
        <time>2011-04-10T06:14:07Z</time>
      </trkpt>
      <trkpt lat="46.92317" lon="-1.50034">
        <ele>34</ele>
        <time>2011-04-10T06:14:11Z</time>
      </trkpt>
      <trkpt lat="46.92317" lon="-1.50033">
        <ele>34</ele>
        <time>2011-04-10T06:14:12Z</time>
      </trkpt>
      <trkpt lat="46.92317" lon="-1.50025">
        <ele>35</ele>
        <time>2011-04-10T06:14:17Z</time>
      </trkpt>
      <trkpt lat="46.92317" lon="-1.50017">
        <ele>36</ele>
        <time>2011-04-10T06:14:22Z</time>
      </trkpt>
      <trkpt lat="46.92306" lon="-1.50001">
        <ele>36</ele>
        <time>2011-04-10T06:14:30Z</time>
      </trkpt>
      <trkpt lat="46.92304" lon="-1.5">
        <ele>39</ele>
        <time>2011-04-10T06:14:31Z</time>
      </trkpt>
      <trkpt lat="46.92296" lon="-1.49978">
        <ele>39</ele>
        <time>2011-04-10T06:14:38Z</time>
      </trkpt>
      <trkpt lat="46.92295" lon="-1.49976">
        <ele>40</ele>
        <time>2011-04-10T06:14:39Z</time>
      </trkpt>
      <trkpt lat="46.92295" lon="-1.4997">
        <ele>40</ele>
        <time>2011-04-10T06:14:42Z</time>
      </trkpt>
      <trkpt lat="46.92295" lon="-1.49968">
        <ele>40</ele>
        <time>2011-04-10T06:14:43Z</time>
      </trkpt>
      <trkpt lat="46.92285" lon="-1.49962">
        <ele>40</ele>
        <time>2011-04-10T06:14:48Z</time>
      </trkpt>
      <trkpt lat="46.92273" lon="-1.4996">
        <ele>39</ele>
        <time>2011-04-10T06:14:54Z</time>
      </trkpt>
      <trkpt lat="46.92269" lon="-1.49958">
        <ele>39</ele>
        <time>2011-04-10T06:14:57Z</time>
      </trkpt>
      <trkpt lat="46.92268" lon="-1.4996">
        <ele>39</ele>
        <time>2011-04-10T06:15:01Z</time>
      </trkpt>
      <trkpt lat="46.92265" lon="-1.49961">
        <ele>39</ele>
        <time>2011-04-10T06:15:04Z</time>
      </trkpt>
      <trkpt lat="46.9226" lon="-1.49965">
        <ele>39</ele>
        <time>2011-04-10T06:15:09Z</time>
      </trkpt>
      <trkpt lat="46.9226" lon="-1.49965">
        <ele>39</ele>
        <time>2011-04-10T06:15:16Z</time>
      </trkpt>
      <trkpt lat="46.9226" lon="-1.49967">
        <ele>38</ele>
        <time>2011-04-10T06:15:19Z</time>
      </trkpt>
      <trkpt lat="46.92258" lon="-1.49975">
        <ele>38</ele>
        <time>2011-04-10T06:15:23Z</time>
      </trkpt>
      <trkpt lat="46.92258" lon="-1.49975">
        <ele>38</ele>
        <time>2011-04-10T06:15:26Z</time>
      </trkpt>
      <trkpt lat="46.92258" lon="-1.49976">
        <ele>38</ele>
        <time>2011-04-10T06:15:27Z</time>
      </trkpt>
      <trkpt lat="46.92266" lon="-1.49995">
        <ele>37</ele>
        <time>2011-04-10T06:15:31Z</time>
      </trkpt>
      <trkpt lat="46.92274" lon="-1.50009">
        <ele>34</ele>
        <time>2011-04-10T06:15:34Z</time>
      </trkpt>
      <trkpt lat="46.92293" lon="-1.50038">
        <ele>33</ele>
        <time>2011-04-10T06:15:40Z</time>
      </trkpt>
      <trkpt lat="46.92295" lon="-1.50057">
        <ele>32</ele>
        <time>2011-04-10T06:15:43Z</time>
      </trkpt>
      <trkpt lat="46.92293" lon="-1.50064">
        <ele>32</ele>
        <time>2011-04-10T06:15:44Z</time>
      </trkpt>
      <trkpt lat="46.92284" lon="-1.50098">
        <ele>28</ele>
        <time>2011-04-10T06:15:50Z</time>
      </trkpt>
      <trkpt lat="46.92282" lon="-1.50104">
        <ele>28</ele>
        <time>2011-04-10T06:15:52Z</time>
      </trkpt>
      <trkpt lat="46.9227" lon="-1.50116">
        <ele>28</ele>
        <time>2011-04-10T06:15:57Z</time>
      </trkpt>
      <trkpt lat="46.92246" lon="-1.50157">
        <ele>27</ele>
        <time>2011-04-10T06:16:07Z</time>
      </trkpt>
      <trkpt lat="46.92236" lon="-1.50176">
        <ele>27</ele>
        <time>2011-04-10T06:16:12Z</time>
      </trkpt>
      <trkpt lat="46.92227" lon="-1.50174">
        <ele>27</ele>
        <time>2011-04-10T06:16:16Z</time>
      </trkpt>
      <trkpt lat="46.92213" lon="-1.50159">
        <ele>27</ele>
        <time>2011-04-10T06:16:21Z</time>
      </trkpt>
      <trkpt lat="46.92209" lon="-1.50158">
        <ele>27</ele>
        <time>2011-04-10T06:16:22Z</time>
      </trkpt>
      <trkpt lat="46.92188" lon="-1.50165">
        <ele>26</ele>
        <time>2011-04-10T06:16:28Z</time>
      </trkpt>
      <trkpt lat="46.9216" lon="-1.50198">
        <ele>27</ele>
        <time>2011-04-10T06:16:37Z</time>
      </trkpt>
      <trkpt lat="46.92143" lon="-1.50216">
        <ele>28</ele>
        <time>2011-04-10T06:16:43Z</time>
      </trkpt>
      <trkpt lat="46.92133" lon="-1.50228">
        <ele>28</ele>
        <time>2011-04-10T06:16:47Z</time>
      </trkpt>
      <trkpt lat="46.92114" lon="-1.50246">
        <ele>28</ele>
        <time>2011-04-10T06:16:53Z</time>
      </trkpt>
      <trkpt lat="46.92081" lon="-1.50279">
        <ele>29</ele>
        <time>2011-04-10T06:17:03Z</time>
      </trkpt>
      <trkpt lat="46.92055" lon="-1.50307">
        <ele>29</ele>
        <time>2011-04-10T06:17:11Z</time>
      </trkpt>
      <trkpt lat="46.92023" lon="-1.5034">
        <ele>29</ele>
        <time>2011-04-10T06:17:20Z</time>
      </trkpt>
      <trkpt lat="46.91987" lon="-1.50372">
        <ele>29</ele>
        <time>2011-04-10T06:17:30Z</time>
      </trkpt>
      <trkpt lat="46.91957" lon="-1.5038">
        <ele>29</ele>
        <time>2011-04-10T06:17:38Z</time>
      </trkpt>
      <trkpt lat="46.91935" lon="-1.50381">
        <ele>29</ele>
        <time>2011-04-10T06:17:45Z</time>
      </trkpt>
      <trkpt lat="46.91926" lon="-1.50373">
        <ele>29</ele>
        <time>2011-04-10T06:17:49Z</time>
      </trkpt>
      <trkpt lat="46.91921" lon="-1.50358">
        <ele>29</ele>
        <time>2011-04-10T06:17:55Z</time>
      </trkpt>
      <trkpt lat="46.91909" lon="-1.50333">
        <ele>29</ele>
        <time>2011-04-10T06:18:02Z</time>
      </trkpt>
      <trkpt lat="46.91897" lon="-1.50319">
        <ele>30</ele>
        <time>2011-04-10T06:18:08Z</time>
      </trkpt>
      <trkpt lat="46.91894" lon="-1.50317">
        <ele>30</ele>
        <time>2011-04-10T06:18:10Z</time>
      </trkpt>
      <trkpt lat="46.91891" lon="-1.50321">
        <ele>30</ele>
        <time>2011-04-10T06:18:14Z</time>
      </trkpt>
      <trkpt lat="46.91897" lon="-1.50337">
        <ele>28</ele>
        <time>2011-04-10T06:18:18Z</time>
      </trkpt>
      <trkpt lat="46.91904" lon="-1.50352">
        <ele>28</ele>
        <time>2011-04-10T06:18:21Z</time>
      </trkpt>
      <trkpt lat="46.91907" lon="-1.50361">
        <ele>28</ele>
        <time>2011-04-10T06:18:23Z</time>
      </trkpt>
      <trkpt lat="46.91903" lon="-1.5037">
        <ele>28</ele>
        <time>2011-04-10T06:18:27Z</time>
      </trkpt>
      <trkpt lat="46.91899" lon="-1.50373">
        <ele>28</ele>
        <time>2011-04-10T06:18:29Z</time>
      </trkpt>
      <trkpt lat="46.91895" lon="-1.50374">
        <ele>28</ele>
        <time>2011-04-10T06:18:31Z</time>
      </trkpt>
      <trkpt lat="46.91892" lon="-1.50378">
        <ele>28</ele>
        <time>2011-04-10T06:18:33Z</time>
      </trkpt>
      <trkpt lat="46.91877" lon="-1.50378">
        <ele>28</ele>
        <time>2011-04-10T06:18:39Z</time>
      </trkpt>
      <trkpt lat="46.9186" lon="-1.50372">
        <ele>28</ele>
        <time>2011-04-10T06:18:44Z</time>
      </trkpt>
      <trkpt lat="46.91842" lon="-1.50362">
        <ele>28</ele>
        <time>2011-04-10T06:18:50Z</time>
      </trkpt>
      <trkpt lat="46.91827" lon="-1.50352">
        <ele>27</ele>
        <time>2011-04-10T06:18:55Z</time>
      </trkpt>
      <trkpt lat="46.91803" lon="-1.50336">
        <ele>27</ele>
        <time>2011-04-10T06:19:02Z</time>
      </trkpt>
      <trkpt lat="46.91789" lon="-1.5032">
        <ele>28</ele>
        <time>2011-04-10T06:19:07Z</time>
      </trkpt>
      <trkpt lat="46.91782" lon="-1.50316">
        <ele>28</ele>
        <time>2011-04-10T06:19:09Z</time>
      </trkpt>
      <trkpt lat="46.91771" lon="-1.50322">
        <ele>28</ele>
        <time>2011-04-10T06:19:13Z</time>
      </trkpt>
      <trkpt lat="46.91765" lon="-1.50332">
        <ele>28</ele>
        <time>2011-04-10T06:19:18Z</time>
      </trkpt>
      <trkpt lat="46.91756" lon="-1.50332">
        <ele>27</ele>
        <time>2011-04-10T06:19:24Z</time>
      </trkpt>
      <trkpt lat="46.91753" lon="-1.5033">
        <ele>27</ele>
        <time>2011-04-10T06:19:28Z</time>
      </trkpt>
      <trkpt lat="46.91753" lon="-1.5033">
        <ele>27</ele>
        <time>2011-04-10T06:19:29Z</time>
      </trkpt>
      <trkpt lat="46.91753" lon="-1.5033">
        <ele>27</ele>
        <time>2011-04-10T06:19:32Z</time>
      </trkpt>
      <trkpt lat="46.91753" lon="-1.5033">
        <ele>27</ele>
        <time>2011-04-10T06:19:33Z</time>
      </trkpt>
      <trkpt lat="46.91753" lon="-1.50329">
        <ele>27</ele>
        <time>2011-04-10T06:19:36Z</time>
      </trkpt>
      <trkpt lat="46.91754" lon="-1.50328">
        <ele>27</ele>
        <time>2011-04-10T06:19:37Z</time>
      </trkpt>
      <trkpt lat="46.91753" lon="-1.50327">
        <ele>27</ele>
        <time>2011-04-10T06:19:40Z</time>
      </trkpt>
      <trkpt lat="46.91754" lon="-1.50325">
        <ele>27</ele>
        <time>2011-04-10T06:19:41Z</time>
      </trkpt>
      <trkpt lat="46.91753" lon="-1.50325">
        <ele>27</ele>
        <time>2011-04-10T06:19:44Z</time>
      </trkpt>
      <trkpt lat="46.91753" lon="-1.50324">
        <ele>27</ele>
        <time>2011-04-10T06:19:48Z</time>
      </trkpt>
      <trkpt lat="46.91752" lon="-1.50323">
        <ele>27</ele>
        <time>2011-04-10T06:19:52Z</time>
      </trkpt>
      <trkpt lat="46.91752" lon="-1.50322">
        <ele>28</ele>
        <time>2011-04-10T06:19:53Z</time>
      </trkpt>
      <trkpt lat="46.91752" lon="-1.50322">
        <ele>28</ele>
        <time>2011-04-10T06:19:55Z</time>
      </trkpt>
      <trkpt lat="46.91751" lon="-1.50322">
        <ele>28</ele>
        <time>2011-04-10T06:19:58Z</time>
      </trkpt>
      <trkpt lat="46.91749" lon="-1.50321">
        <ele>27</ele>
        <time>2011-04-10T06:20:02Z</time>
      </trkpt>
      <trkpt lat="46.91749" lon="-1.50321">
        <ele>27</ele>
        <time>2011-04-10T06:20:05Z</time>
      </trkpt>
      <trkpt lat="46.91745" lon="-1.50317">
        <ele>27</ele>
        <time>2011-04-10T06:20:07Z</time>
      </trkpt>
      <trkpt lat="46.91733" lon="-1.50326">
        <ele>27</ele>
        <time>2011-04-10T06:20:13Z</time>
      </trkpt>
      <trkpt lat="46.91719" lon="-1.50326">
        <ele>28</ele>
        <time>2011-04-10T06:20:17Z</time>
      </trkpt>
      <trkpt lat="46.91699" lon="-1.50331">
        <ele>28</ele>
        <time>2011-04-10T06:20:22Z</time>
      </trkpt>
      <trkpt lat="46.91695" lon="-1.50331">
        <ele>28</ele>
        <time>2011-04-10T06:20:23Z</time>
      </trkpt>
      <trkpt lat="46.91687" lon="-1.50331">
        <ele>28</ele>
        <time>2011-04-10T06:20:25Z</time>
      </trkpt>
      <trkpt lat="46.91672" lon="-1.5032">
        <ele>28</ele>
        <time>2011-04-10T06:20:29Z</time>
      </trkpt>
      <trkpt lat="46.91669" lon="-1.50302">
        <ele>28</ele>
        <time>2011-04-10T06:20:32Z</time>
      </trkpt>
      <trkpt lat="46.91668" lon="-1.5029">
        <ele>28</ele>
        <time>2011-04-10T06:20:34Z</time>
      </trkpt>
      <trkpt lat="46.91667" lon="-1.50257">
        <ele>28</ele>
        <time>2011-04-10T06:20:39Z</time>
      </trkpt>
      <trkpt lat="46.91661" lon="-1.50235">
        <ele>28</ele>
        <time>2011-04-10T06:20:43Z</time>
      </trkpt>
      <trkpt lat="46.91656" lon="-1.50224">
        <ele>28</ele>
        <time>2011-04-10T06:20:45Z</time>
      </trkpt>
      <trkpt lat="46.91642" lon="-1.50187">
        <ele>28</ele>
        <time>2011-04-10T06:20:51Z</time>
      </trkpt>
      <trkpt lat="46.91631" lon="-1.50143">
        <ele>28</ele>
        <time>2011-04-10T06:20:58Z</time>
      </trkpt>
      <trkpt lat="46.91634" lon="-1.50107">
        <ele>28</ele>
        <time>2011-04-10T06:21:04Z</time>
      </trkpt>
      <trkpt lat="46.91637" lon="-1.50087">
        <ele>28</ele>
        <time>2011-04-10T06:21:09Z</time>
      </trkpt>
      <trkpt lat="46.91639" lon="-1.50072">
        <ele>29</ele>
        <time>2011-04-10T06:21:13Z</time>
      </trkpt>
      <trkpt lat="46.9164" lon="-1.5007">
        <ele>29</ele>
        <time>2011-04-10T06:21:14Z</time>
      </trkpt>
      <trkpt lat="46.91638" lon="-1.50058">
        <ele>29</ele>
        <time>2011-04-10T06:21:17Z</time>
      </trkpt>
      <trkpt lat="46.91633" lon="-1.50035">
        <ele>29</ele>
        <time>2011-04-10T06:21:22Z</time>
      </trkpt>
      <trkpt lat="46.91632" lon="-1.50026">
        <ele>29</ele>
        <time>2011-04-10T06:21:24Z</time>
      </trkpt>
      <trkpt lat="46.91635" lon="-1.50004">
        <ele>30</ele>
        <time>2011-04-10T06:21:29Z</time>
      </trkpt>
      <trkpt lat="46.91637" lon="-1.49992">
        <ele>31</ele>
        <time>2011-04-10T06:21:33Z</time>
      </trkpt>
      <trkpt lat="46.91643" lon="-1.49972">
        <ele>31</ele>
        <time>2011-04-10T06:21:39Z</time>
      </trkpt>
      <trkpt lat="46.91647" lon="-1.49949">
        <ele>31</ele>
        <time>2011-04-10T06:21:46Z</time>
      </trkpt>
      <trkpt lat="46.91648" lon="-1.49943">
        <ele>31</ele>
        <time>2011-04-10T06:21:48Z</time>
      </trkpt>
      <trkpt lat="46.91653" lon="-1.49916">
        <ele>32</ele>
        <time>2011-04-10T06:21:55Z</time>
      </trkpt>
      <trkpt lat="46.91661" lon="-1.49898">
        <ele>32</ele>
        <time>2011-04-10T06:21:59Z</time>
      </trkpt>
      <trkpt lat="46.91667" lon="-1.4988">
        <ele>31</ele>
        <time>2011-04-10T06:22:03Z</time>
      </trkpt>
      <trkpt lat="46.9167" lon="-1.4986">
        <ele>35</ele>
        <time>2011-04-10T06:22:08Z</time>
      </trkpt>
      <trkpt lat="46.9167" lon="-1.49833">
        <ele>33</ele>
        <time>2011-04-10T06:22:14Z</time>
      </trkpt>
      <trkpt lat="46.91672" lon="-1.49819">
        <ele>34</ele>
        <time>2011-04-10T06:22:18Z</time>
      </trkpt>
      <trkpt lat="46.9167" lon="-1.49792">
        <ele>35</ele>
        <time>2011-04-10T06:22:23Z</time>
      </trkpt>
      <trkpt lat="46.91665" lon="-1.49763">
        <ele>31</ele>
        <time>2011-04-10T06:22:28Z</time>
      </trkpt>
      <trkpt lat="46.91659" lon="-1.49736">
        <ele>32</ele>
        <time>2011-04-10T06:22:34Z</time>
      </trkpt>
      <trkpt lat="46.91651" lon="-1.49712">
        <ele>32</ele>
        <time>2011-04-10T06:22:39Z</time>
      </trkpt>
      <trkpt lat="46.91645" lon="-1.49692">
        <ele>32</ele>
        <time>2011-04-10T06:22:42Z</time>
      </trkpt>
      <trkpt lat="46.91635" lon="-1.49662">
        <ele>33</ele>
        <time>2011-04-10T06:22:47Z</time>
      </trkpt>
      <trkpt lat="46.91624" lon="-1.4963">
        <ele>33</ele>
        <time>2011-04-10T06:22:52Z</time>
      </trkpt>
      <trkpt lat="46.91622" lon="-1.49598">
        <ele>33</ele>
        <time>2011-04-10T06:22:58Z</time>
      </trkpt>
      <trkpt lat="46.91621" lon="-1.49584">
        <ele>33</ele>
        <time>2011-04-10T06:23:02Z</time>
      </trkpt>
      <trkpt lat="46.91615" lon="-1.49582">
        <ele>36</ele>
        <time>2011-04-10T06:23:04Z</time>
      </trkpt>
      <trkpt lat="46.91609" lon="-1.4958">
        <ele>35</ele>
        <time>2011-04-10T06:23:06Z</time>
      </trkpt>
      <trkpt lat="46.91606" lon="-1.49579">
        <ele>35</ele>
        <time>2011-04-10T06:23:07Z</time>
      </trkpt>
      <trkpt lat="46.91589" lon="-1.49566">
        <ele>35</ele>
        <time>2011-04-10T06:23:11Z</time>
      </trkpt>
      <trkpt lat="46.91559" lon="-1.49548">
        <ele>35</ele>
        <time>2011-04-10T06:23:18Z</time>
      </trkpt>
      <trkpt lat="46.91545" lon="-1.49536">
        <ele>35</ele>
        <time>2011-04-10T06:23:22Z</time>
      </trkpt>
      <trkpt lat="46.91542" lon="-1.49533">
        <ele>36</ele>
        <time>2011-04-10T06:23:23Z</time>
      </trkpt>
      <trkpt lat="46.91521" lon="-1.49514">
        <ele>37</ele>
        <time>2011-04-10T06:23:30Z</time>
      </trkpt>
      <trkpt lat="46.91503" lon="-1.49506">
        <ele>38</ele>
        <time>2011-04-10T06:23:35Z</time>
      </trkpt>
      <trkpt lat="46.91478" lon="-1.49493">
        <ele>41</ele>
        <time>2011-04-10T06:23:41Z</time>
      </trkpt>
      <trkpt lat="46.91459" lon="-1.49481">
        <ele>41</ele>
        <time>2011-04-10T06:23:46Z</time>
      </trkpt>
      <trkpt lat="46.91454" lon="-1.49481">
        <ele>41</ele>
        <time>2011-04-10T06:23:47Z</time>
      </trkpt>
      <trkpt lat="46.91442" lon="-1.49474">
        <ele>41</ele>
        <time>2011-04-10T06:23:50Z</time>
      </trkpt>
      <trkpt lat="46.91424" lon="-1.4946">
        <ele>42</ele>
        <time>2011-04-10T06:23:55Z</time>
      </trkpt>
      <trkpt lat="46.91396" lon="-1.49451">
        <ele>40</ele>
        <time>2011-04-10T06:24:01Z</time>
      </trkpt>
      <trkpt lat="46.91376" lon="-1.49447">
        <ele>40</ele>
        <time>2011-04-10T06:24:06Z</time>
      </trkpt>
      <trkpt lat="46.91372" lon="-1.49448">
        <ele>40</ele>
        <time>2011-04-10T06:24:07Z</time>
      </trkpt>
      <trkpt lat="46.91363" lon="-1.49449">
        <ele>40</ele>
        <time>2011-04-10T06:24:09Z</time>
      </trkpt>
      <trkpt lat="46.91346" lon="-1.49455">
        <ele>39</ele>
        <time>2011-04-10T06:24:13Z</time>
      </trkpt>
      <trkpt lat="46.91331" lon="-1.49453">
        <ele>36</ele>
        <time>2011-04-10T06:24:17Z</time>
      </trkpt>
      <trkpt lat="46.91315" lon="-1.49442">
        <ele>37</ele>
        <time>2011-04-10T06:24:23Z</time>
      </trkpt>
      <trkpt lat="46.91302" lon="-1.49438">
        <ele>36</ele>
        <time>2011-04-10T06:24:28Z</time>
      </trkpt>
      <trkpt lat="46.91287" lon="-1.49431">
        <ele>36</ele>
        <time>2011-04-10T06:24:32Z</time>
      </trkpt>
      <trkpt lat="46.91276" lon="-1.49426">
        <ele>36</ele>
        <time>2011-04-10T06:24:35Z</time>
      </trkpt>
      <trkpt lat="46.91249" lon="-1.49418">
        <ele>36</ele>
        <time>2011-04-10T06:24:42Z</time>
      </trkpt>
      <trkpt lat="46.91225" lon="-1.49409">
        <ele>40</ele>
        <time>2011-04-10T06:24:49Z</time>
      </trkpt>
      <trkpt lat="46.91213" lon="-1.49407">
        <ele>41</ele>
        <time>2011-04-10T06:24:53Z</time>
      </trkpt>
      <trkpt lat="46.91196" lon="-1.4941">
        <ele>41</ele>
        <time>2011-04-10T06:24:59Z</time>
      </trkpt>
      <trkpt lat="46.91189" lon="-1.49412">
        <ele>40</ele>
        <time>2011-04-10T06:25:01Z</time>
      </trkpt>
      <trkpt lat="46.91175" lon="-1.49416">
        <ele>39</ele>
        <time>2011-04-10T06:25:04Z</time>
      </trkpt>
      <trkpt lat="46.91166" lon="-1.49418">
        <ele>37</ele>
        <time>2011-04-10T06:25:06Z</time>
      </trkpt>
      <trkpt lat="46.91139" lon="-1.49424">
        <ele>35</ele>
        <time>2011-04-10T06:25:12Z</time>
      </trkpt>
      <trkpt lat="46.91111" lon="-1.49438">
        <ele>35</ele>
        <time>2011-04-10T06:25:18Z</time>
      </trkpt>
      <trkpt lat="46.91104" lon="-1.49445">
        <ele>34</ele>
        <time>2011-04-10T06:25:20Z</time>
      </trkpt>
      <trkpt lat="46.91081" lon="-1.49473">
        <ele>34</ele>
        <time>2011-04-10T06:25:27Z</time>
      </trkpt>
      <trkpt lat="46.91074" lon="-1.4948">
        <ele>33</ele>
        <time>2011-04-10T06:25:29Z</time>
      </trkpt>
      <trkpt lat="46.91054" lon="-1.49497">
        <ele>33</ele>
        <time>2011-04-10T06:25:35Z</time>
      </trkpt>
      <trkpt lat="46.91047" lon="-1.495">
        <ele>31</ele>
        <time>2011-04-10T06:25:39Z</time>
      </trkpt>
      <trkpt lat="46.91045" lon="-1.49499">
        <ele>34</ele>
        <time>2011-04-10T06:25:40Z</time>
      </trkpt>
      <trkpt lat="46.91042" lon="-1.49483">
        <ele>34</ele>
        <time>2011-04-10T06:25:47Z</time>
      </trkpt>
      <trkpt lat="46.91041" lon="-1.49469">
        <ele>35</ele>
        <time>2011-04-10T06:25:52Z</time>
      </trkpt>
      <trkpt lat="46.91039" lon="-1.49456">
        <ele>35</ele>
        <time>2011-04-10T06:25:58Z</time>
      </trkpt>
      <trkpt lat="46.91037" lon="-1.49438">
        <ele>36</ele>
        <time>2011-04-10T06:26:07Z</time>
      </trkpt>
      <trkpt lat="46.91041" lon="-1.49421">
        <ele>36</ele>
        <time>2011-04-10T06:26:14Z</time>
      </trkpt>
      <trkpt lat="46.91047" lon="-1.49403">
        <ele>40</ele>
        <time>2011-04-10T06:26:21Z</time>
      </trkpt>
      <trkpt lat="46.91053" lon="-1.49387">
        <ele>41</ele>
        <time>2011-04-10T06:26:28Z</time>
      </trkpt>
      <trkpt lat="46.91059" lon="-1.49373">
        <ele>41</ele>
        <time>2011-04-10T06:26:34Z</time>
      </trkpt>
      <trkpt lat="46.91064" lon="-1.49355">
        <ele>43</ele>
        <time>2011-04-10T06:26:40Z</time>
      </trkpt>
      <trkpt lat="46.91068" lon="-1.4934">
        <ele>44</ele>
        <time>2011-04-10T06:26:47Z</time>
      </trkpt>
      <trkpt lat="46.9107" lon="-1.49333">
        <ele>47</ele>
        <time>2011-04-10T06:26:50Z</time>
      </trkpt>
      <trkpt lat="46.91073" lon="-1.49322">
        <ele>47</ele>
        <time>2011-04-10T06:26:56Z</time>
      </trkpt>
      <trkpt lat="46.91076" lon="-1.49314">
        <ele>47</ele>
        <time>2011-04-10T06:27:02Z</time>
      </trkpt>
      <trkpt lat="46.91083" lon="-1.49297">
        <ele>47</ele>
        <time>2011-04-10T06:27:08Z</time>
      </trkpt>
      <trkpt lat="46.91088" lon="-1.4927">
        <ele>51</ele>
        <time>2011-04-10T06:27:15Z</time>
      </trkpt>
      <trkpt lat="46.91091" lon="-1.4926">
        <ele>51</ele>
        <time>2011-04-10T06:27:19Z</time>
      </trkpt>
      <trkpt lat="46.91091" lon="-1.49258">
        <ele>51</ele>
        <time>2011-04-10T06:27:21Z</time>
      </trkpt>
      <trkpt lat="46.91091" lon="-1.49257">
        <ele>51</ele>
        <time>2011-04-10T06:27:24Z</time>
      </trkpt>
      <trkpt lat="46.91093" lon="-1.49252">
        <ele>51</ele>
        <time>2011-04-10T06:27:25Z</time>
      </trkpt>
      <trkpt lat="46.91094" lon="-1.49247">
        <ele>52</ele>
        <time>2011-04-10T06:27:26Z</time>
      </trkpt>
      <trkpt lat="46.911" lon="-1.49229">
        <ele>52</ele>
        <time>2011-04-10T06:27:33Z</time>
      </trkpt>
      <trkpt lat="46.91097" lon="-1.49215">
        <ele>52</ele>
        <time>2011-04-10T06:27:36Z</time>
      </trkpt>
      <trkpt lat="46.91079" lon="-1.49167">
        <ele>51</ele>
        <time>2011-04-10T06:27:45Z</time>
      </trkpt>
      <trkpt lat="46.91063" lon="-1.49118">
        <ele>51</ele>
        <time>2011-04-10T06:27:53Z</time>
      </trkpt>
      <trkpt lat="46.91043" lon="-1.49058">
        <ele>52</ele>
        <time>2011-04-10T06:28:02Z</time>
      </trkpt>
      <trkpt lat="46.91018" lon="-1.48985">
        <ele>52</ele>
        <time>2011-04-10T06:28:11Z</time>
      </trkpt>
      <trkpt lat="46.91012" lon="-1.4897">
        <ele>52</ele>
        <time>2011-04-10T06:28:13Z</time>
      </trkpt>
      <trkpt lat="46.90999" lon="-1.48958">
        <ele>52</ele>
        <time>2011-04-10T06:28:16Z</time>
      </trkpt>
      <trkpt lat="46.90986" lon="-1.48971">
        <ele>52</ele>
        <time>2011-04-10T06:28:19Z</time>
      </trkpt>
      <trkpt lat="46.90964" lon="-1.48987">
        <ele>52</ele>
        <time>2011-04-10T06:28:23Z</time>
      </trkpt>
      <trkpt lat="46.90958" lon="-1.48989">
        <ele>52</ele>
        <time>2011-04-10T06:28:24Z</time>
      </trkpt>
      <trkpt lat="46.90898" lon="-1.49">
        <ele>52</ele>
        <time>2011-04-10T06:28:34Z</time>
      </trkpt>
      <trkpt lat="46.90892" lon="-1.49002">
        <ele>51</ele>
        <time>2011-04-10T06:28:35Z</time>
      </trkpt>
      <trkpt lat="46.9086" lon="-1.49022">
        <ele>52</ele>
        <time>2011-04-10T06:28:41Z</time>
      </trkpt>
      <trkpt lat="46.90824" lon="-1.49064">
        <ele>53</ele>
        <time>2011-04-10T06:28:49Z</time>
      </trkpt>
      <trkpt lat="46.90779" lon="-1.49122">
        <ele>51</ele>
        <time>2011-04-10T06:28:59Z</time>
      </trkpt>
      <trkpt lat="46.90737" lon="-1.49176">
        <ele>49</ele>
        <time>2011-04-10T06:29:08Z</time>
      </trkpt>
      <trkpt lat="46.90707" lon="-1.49213">
        <ele>48</ele>
        <time>2011-04-10T06:29:14Z</time>
      </trkpt>
      <trkpt lat="46.90682" lon="-1.49226">
        <ele>48</ele>
        <time>2011-04-10T06:29:18Z</time>
      </trkpt>
      <trkpt lat="46.90676" lon="-1.49224">
        <ele>48</ele>
        <time>2011-04-10T06:29:19Z</time>
      </trkpt>
      <trkpt lat="46.90659" lon="-1.49215">
        <ele>45</ele>
        <time>2011-04-10T06:29:22Z</time>
      </trkpt>
      <trkpt lat="46.90638" lon="-1.49191">
        <ele>45</ele>
        <time>2011-04-10T06:29:27Z</time>
      </trkpt>
      <trkpt lat="46.90623" lon="-1.49175">
        <ele>44</ele>
        <time>2011-04-10T06:29:32Z</time>
      </trkpt>
      <trkpt lat="46.90621" lon="-1.49175">
        <ele>44</ele>
        <time>2011-04-10T06:29:33Z</time>
      </trkpt>
      <trkpt lat="46.90617" lon="-1.49174">
        <ele>44</ele>
        <time>2011-04-10T06:29:38Z</time>
      </trkpt>
      <trkpt lat="46.90616" lon="-1.49174">
        <ele>44</ele>
        <time>2011-04-10T06:29:40Z</time>
      </trkpt>
      <trkpt lat="46.90611" lon="-1.49181">
        <ele>43</ele>
        <time>2011-04-10T06:29:45Z</time>
      </trkpt>
      <trkpt lat="46.90607" lon="-1.4919">
        <ele>43</ele>
        <time>2011-04-10T06:29:50Z</time>
      </trkpt>
      <trkpt lat="46.90596" lon="-1.49192">
        <ele>42</ele>
        <time>2011-04-10T06:29:55Z</time>
      </trkpt>
      <trkpt lat="46.90587" lon="-1.49181">
        <ele>42</ele>
        <time>2011-04-10T06:30:00Z</time>
      </trkpt>
      <trkpt lat="46.90582" lon="-1.49178">
        <ele>39</ele>
        <time>2011-04-10T06:30:04Z</time>
      </trkpt>
      <trkpt lat="46.90574" lon="-1.49175">
        <ele>39</ele>
        <time>2011-04-10T06:30:07Z</time>
      </trkpt>
      <trkpt lat="46.90569" lon="-1.49165">
        <ele>41</ele>
        <time>2011-04-10T06:30:09Z</time>
      </trkpt>
      <trkpt lat="46.90555" lon="-1.49139">
        <ele>40</ele>
        <time>2011-04-10T06:30:14Z</time>
      </trkpt>
      <trkpt lat="46.90539" lon="-1.49113">
        <ele>39</ele>
        <time>2011-04-10T06:30:20Z</time>
      </trkpt>
      <trkpt lat="46.90533" lon="-1.49104">
        <ele>39</ele>
        <time>2011-04-10T06:30:22Z</time>
      </trkpt>
      <trkpt lat="46.90513" lon="-1.49072">
        <ele>41</ele>
        <time>2011-04-10T06:30:29Z</time>
      </trkpt>
      <trkpt lat="46.90497" lon="-1.49048">
        <ele>38</ele>
        <time>2011-04-10T06:30:35Z</time>
      </trkpt>
      <trkpt lat="46.90485" lon="-1.49026">
        <ele>39</ele>
        <time>2011-04-10T06:30:40Z</time>
      </trkpt>
      <trkpt lat="46.9047" lon="-1.49001">
        <ele>39</ele>
        <time>2011-04-10T06:30:46Z</time>
      </trkpt>
      <trkpt lat="46.90458" lon="-1.48981">
        <ele>41</ele>
        <time>2011-04-10T06:30:51Z</time>
      </trkpt>
      <trkpt lat="46.90442" lon="-1.48955">
        <ele>41</ele>
        <time>2011-04-10T06:30:57Z</time>
      </trkpt>
      <trkpt lat="46.90432" lon="-1.48943">
        <ele>40</ele>
        <time>2011-04-10T06:31:00Z</time>
      </trkpt>
      <trkpt lat="46.90414" lon="-1.48927">
        <ele>37</ele>
        <time>2011-04-10T06:31:04Z</time>
      </trkpt>
      <trkpt lat="46.90397" lon="-1.4892">
        <ele>36</ele>
        <time>2011-04-10T06:31:07Z</time>
      </trkpt>
      <trkpt lat="46.90388" lon="-1.48909">
        <ele>38</ele>
        <time>2011-04-10T06:31:09Z</time>
      </trkpt>
      <trkpt lat="46.90376" lon="-1.48885">
        <ele>38</ele>
        <time>2011-04-10T06:31:13Z</time>
      </trkpt>
      <trkpt lat="46.90361" lon="-1.48862">
        <ele>38</ele>
        <time>2011-04-10T06:31:17Z</time>
      </trkpt>
      <trkpt lat="46.90335" lon="-1.48812">
        <ele>40</ele>
        <time>2011-04-10T06:31:25Z</time>
      </trkpt>
      <trkpt lat="46.90321" lon="-1.48779">
        <ele>37</ele>
        <time>2011-04-10T06:31:31Z</time>
      </trkpt>
      <trkpt lat="46.90312" lon="-1.48752">
        <ele>38</ele>
        <time>2011-04-10T06:31:36Z</time>
      </trkpt>
      <trkpt lat="46.90302" lon="-1.48726">
        <ele>41</ele>
        <time>2011-04-10T06:31:41Z</time>
      </trkpt>
      <trkpt lat="46.9029" lon="-1.487">
        <ele>41</ele>
        <time>2011-04-10T06:31:46Z</time>
      </trkpt>
      <trkpt lat="46.90278" lon="-1.4868">
        <ele>41</ele>
        <time>2011-04-10T06:31:50Z</time>
      </trkpt>
      <trkpt lat="46.90258" lon="-1.4866">
        <ele>41</ele>
        <time>2011-04-10T06:31:54Z</time>
      </trkpt>
      <trkpt lat="46.90241" lon="-1.48639">
        <ele>39</ele>
        <time>2011-04-10T06:31:59Z</time>
      </trkpt>
      <trkpt lat="46.90224" lon="-1.48624">
        <ele>39</ele>
        <time>2011-04-10T06:32:04Z</time>
      </trkpt>
      <trkpt lat="46.90203" lon="-1.48617">
        <ele>39</ele>
        <time>2011-04-10T06:32:09Z</time>
      </trkpt>
      <trkpt lat="46.90187" lon="-1.48609">
        <ele>38</ele>
        <time>2011-04-10T06:32:13Z</time>
      </trkpt>
      <trkpt lat="46.90159" lon="-1.48589">
        <ele>36</ele>
        <time>2011-04-10T06:32:21Z</time>
      </trkpt>
      <trkpt lat="46.90142" lon="-1.48577">
        <ele>38</ele>
        <time>2011-04-10T06:32:26Z</time>
      </trkpt>
      <trkpt lat="46.90123" lon="-1.48563">
        <ele>38</ele>
        <time>2011-04-10T06:32:32Z</time>
      </trkpt>
      <trkpt lat="46.90118" lon="-1.48555">
        <ele>38</ele>
        <time>2011-04-10T06:32:34Z</time>
      </trkpt>
      <trkpt lat="46.90114" lon="-1.48518">
        <ele>39</ele>
        <time>2011-04-10T06:32:41Z</time>
      </trkpt>
      <trkpt lat="46.90121" lon="-1.485">
        <ele>42</ele>
        <time>2011-04-10T06:32:45Z</time>
      </trkpt>
      <trkpt lat="46.90139" lon="-1.48478">
        <ele>42</ele>
        <time>2011-04-10T06:32:51Z</time>
      </trkpt>
      <trkpt lat="46.90157" lon="-1.48465">
        <ele>42</ele>
        <time>2011-04-10T06:32:56Z</time>
      </trkpt>
      <trkpt lat="46.902" lon="-1.48451">
        <ele>44</ele>
        <time>2011-04-10T06:33:05Z</time>
      </trkpt>
      <trkpt lat="46.90205" lon="-1.4845">
        <ele>44</ele>
        <time>2011-04-10T06:33:06Z</time>
      </trkpt>
      <trkpt lat="46.90229" lon="-1.48445">
        <ele>45</ele>
        <time>2011-04-10T06:33:12Z</time>
      </trkpt>
      <trkpt lat="46.90244" lon="-1.48445">
        <ele>46</ele>
        <time>2011-04-10T06:33:17Z</time>
      </trkpt>
      <trkpt lat="46.90261" lon="-1.48448">
        <ele>49</ele>
        <time>2011-04-10T06:33:24Z</time>
      </trkpt>
      <trkpt lat="46.90273" lon="-1.48451">
        <ele>50</ele>
        <time>2011-04-10T06:33:29Z</time>
      </trkpt>
      <trkpt lat="46.90275" lon="-1.48438">
        <ele>49</ele>
        <time>2011-04-10T06:33:34Z</time>
      </trkpt>
      <trkpt lat="46.90272" lon="-1.48428">
        <ele>49</ele>
        <time>2011-04-10T06:33:37Z</time>
      </trkpt>
      <trkpt lat="46.90263" lon="-1.48416">
        <ele>47</ele>
        <time>2011-04-10T06:33:41Z</time>
      </trkpt>
      <trkpt lat="46.90253" lon="-1.48408">
        <ele>47</ele>
        <time>2011-04-10T06:33:45Z</time>
      </trkpt>
      <trkpt lat="46.9025" lon="-1.48396">
        <ele>45</ele>
        <time>2011-04-10T06:33:49Z</time>
      </trkpt>
      <trkpt lat="46.90249" lon="-1.48387">
        <ele>45</ele>
        <time>2011-04-10T06:33:53Z</time>
      </trkpt>
      <trkpt lat="46.9025" lon="-1.48379">
        <ele>45</ele>
        <time>2011-04-10T06:33:57Z</time>
      </trkpt>
      <trkpt lat="46.90249" lon="-1.48378">
        <ele>45</ele>
        <time>2011-04-10T06:34:02Z</time>
      </trkpt>
      <trkpt lat="46.90248" lon="-1.48383">
        <ele>45</ele>
        <time>2011-04-10T06:34:06Z</time>
      </trkpt>
      <trkpt lat="46.90245" lon="-1.48387">
        <ele>45</ele>
        <time>2011-04-10T06:34:12Z</time>
      </trkpt>
      <trkpt lat="46.90245" lon="-1.48387">
        <ele>45</ele>
        <time>2011-04-10T06:34:16Z</time>
      </trkpt>
      <trkpt lat="46.90244" lon="-1.48387">
        <ele>45</ele>
        <time>2011-04-10T06:34:17Z</time>
      </trkpt>
      <trkpt lat="46.90244" lon="-1.48389">
        <ele>45</ele>
        <time>2011-04-10T06:34:21Z</time>
      </trkpt>
      <trkpt lat="46.90242" lon="-1.4839">
        <ele>45</ele>
        <time>2011-04-10T06:34:22Z</time>
      </trkpt>
      <trkpt lat="46.90239" lon="-1.4839">
        <ele>45</ele>
        <time>2011-04-10T06:34:26Z</time>
      </trkpt>
      <trkpt lat="46.90238" lon="-1.48389">
        <ele>45</ele>
        <time>2011-04-10T06:34:28Z</time>
      </trkpt>
      <trkpt lat="46.90233" lon="-1.48391">
        <ele>45</ele>
        <time>2011-04-10T06:34:33Z</time>
      </trkpt>
      <trkpt lat="46.90226" lon="-1.48404">
        <ele>45</ele>
        <time>2011-04-10T06:34:39Z</time>
      </trkpt>
      <trkpt lat="46.90214" lon="-1.48422">
        <ele>45</ele>
        <time>2011-04-10T06:34:44Z</time>
      </trkpt>
      <trkpt lat="46.90198" lon="-1.48435">
        <ele>44</ele>
        <time>2011-04-10T06:34:49Z</time>
      </trkpt>
      <trkpt lat="46.90176" lon="-1.48447">
        <ele>43</ele>
        <time>2011-04-10T06:34:55Z</time>
      </trkpt>
      <trkpt lat="46.90154" lon="-1.48453">
        <ele>42</ele>
        <time>2011-04-10T06:35:01Z</time>
      </trkpt>
      <trkpt lat="46.90139" lon="-1.48457">
        <ele>42</ele>
        <time>2011-04-10T06:35:06Z</time>
      </trkpt>
      <trkpt lat="46.9012" lon="-1.48471">
        <ele>42</ele>
        <time>2011-04-10T06:35:12Z</time>
      </trkpt>
      <trkpt lat="46.90115" lon="-1.48479">
        <ele>42</ele>
        <time>2011-04-10T06:35:14Z</time>
      </trkpt>
      <trkpt lat="46.90105" lon="-1.48501">
        <ele>40</ele>
        <time>2011-04-10T06:35:18Z</time>
      </trkpt>
      <trkpt lat="46.90101" lon="-1.48514">
        <ele>40</ele>
        <time>2011-04-10T06:35:20Z</time>
      </trkpt>
      <trkpt lat="46.90093" lon="-1.4855">
        <ele>38</ele>
        <time>2011-04-10T06:35:26Z</time>
      </trkpt>
      <trkpt lat="46.90097" lon="-1.48585">
        <ele>34</ele>
        <time>2011-04-10T06:35:33Z</time>
      </trkpt>
      <trkpt lat="46.90106" lon="-1.486">
        <ele>33</ele>
        <time>2011-04-10T06:35:38Z</time>
      </trkpt>
      <trkpt lat="46.90105" lon="-1.48616">
        <ele>33</ele>
        <time>2011-04-10T06:35:42Z</time>
      </trkpt>
      <trkpt lat="46.90095" lon="-1.48643">
        <ele>32</ele>
        <time>2011-04-10T06:35:49Z</time>
      </trkpt>
      <trkpt lat="46.90085" lon="-1.48655">
        <ele>31</ele>
        <time>2011-04-10T06:35:54Z</time>
      </trkpt>
      <trkpt lat="46.90074" lon="-1.48652">
        <ele>32</ele>
        <time>2011-04-10T06:35:58Z</time>
      </trkpt>
      <trkpt lat="46.9005" lon="-1.48658">
        <ele>32</ele>
        <time>2011-04-10T06:36:05Z</time>
      </trkpt>
      <trkpt lat="46.90025" lon="-1.48664">
        <ele>33</ele>
        <time>2011-04-10T06:36:12Z</time>
      </trkpt>
      <trkpt lat="46.90005" lon="-1.48674">
        <ele>32</ele>
        <time>2011-04-10T06:36:18Z</time>
      </trkpt>
      <trkpt lat="46.89996" lon="-1.48696">
        <ele>32</ele>
        <time>2011-04-10T06:36:23Z</time>
      </trkpt>
      <trkpt lat="46.89996" lon="-1.48716">
        <ele>32</ele>
        <time>2011-04-10T06:36:27Z</time>
      </trkpt>
      <trkpt lat="46.90003" lon="-1.48747">
        <ele>32</ele>
        <time>2011-04-10T06:36:33Z</time>
      </trkpt>
      <trkpt lat="46.89995" lon="-1.48776">
        <ele>32</ele>
        <time>2011-04-10T06:36:39Z</time>
      </trkpt>
      <trkpt lat="46.89984" lon="-1.48802">
        <ele>32</ele>
        <time>2011-04-10T06:36:45Z</time>
      </trkpt>
      <trkpt lat="46.89978" lon="-1.48826">
        <ele>33</ele>
        <time>2011-04-10T06:36:51Z</time>
      </trkpt>
      <trkpt lat="46.89977" lon="-1.48831">
        <ele>33</ele>
        <time>2011-04-10T06:36:53Z</time>
      </trkpt>
      <trkpt lat="46.89977" lon="-1.48837">
        <ele>35</ele>
        <time>2011-04-10T06:36:57Z</time>
      </trkpt>
      <trkpt lat="46.89973" lon="-1.48847">
        <ele>35</ele>
        <time>2011-04-10T06:37:03Z</time>
      </trkpt>
      <trkpt lat="46.89964" lon="-1.48862">
        <ele>35</ele>
        <time>2011-04-10T06:37:08Z</time>
      </trkpt>
      <trkpt lat="46.89952" lon="-1.48881">
        <ele>36</ele>
        <time>2011-04-10T06:37:15Z</time>
      </trkpt>
      <trkpt lat="46.89945" lon="-1.48892">
        <ele>36</ele>
        <time>2011-04-10T06:37:20Z</time>
      </trkpt>
      <trkpt lat="46.89943" lon="-1.48893">
        <ele>36</ele>
        <time>2011-04-10T06:37:21Z</time>
      </trkpt>
      <trkpt lat="46.89931" lon="-1.48905">
        <ele>36</ele>
        <time>2011-04-10T06:37:27Z</time>
      </trkpt>
      <trkpt lat="46.89919" lon="-1.48928">
        <ele>38</ele>
        <time>2011-04-10T06:37:33Z</time>
      </trkpt>
      <trkpt lat="46.89917" lon="-1.48931">
        <ele>39</ele>
        <time>2011-04-10T06:37:34Z</time>
      </trkpt>
      <trkpt lat="46.89909" lon="-1.48942">
        <ele>38</ele>
        <time>2011-04-10T06:37:38Z</time>
      </trkpt>
      <trkpt lat="46.89898" lon="-1.48957">
        <ele>38</ele>
        <time>2011-04-10T06:37:44Z</time>
      </trkpt>
      <trkpt lat="46.89894" lon="-1.48967">
        <ele>38</ele>
        <time>2011-04-10T06:37:50Z</time>
      </trkpt>
      <trkpt lat="46.89894" lon="-1.4897">
        <ele>38</ele>
        <time>2011-04-10T06:37:52Z</time>
      </trkpt>
      <trkpt lat="46.8989" lon="-1.4898">
        <ele>39</ele>
        <time>2011-04-10T06:37:55Z</time>
      </trkpt>
      <trkpt lat="46.8989" lon="-1.48981">
        <ele>39</ele>
        <time>2011-04-10T06:37:58Z</time>
      </trkpt>
      <trkpt lat="46.89888" lon="-1.48985">
        <ele>39</ele>
        <time>2011-04-10T06:37:59Z</time>
      </trkpt>
      <trkpt lat="46.89887" lon="-1.48992">
        <ele>39</ele>
        <time>2011-04-10T06:38:05Z</time>
      </trkpt>
      <trkpt lat="46.89888" lon="-1.48996">
        <ele>39</ele>
        <time>2011-04-10T06:38:07Z</time>
      </trkpt>
      <trkpt lat="46.89883" lon="-1.49008">
        <ele>42</ele>
        <time>2011-04-10T06:38:15Z</time>
      </trkpt>
      <trkpt lat="46.89884" lon="-1.49009">
        <ele>42</ele>
        <time>2011-04-10T06:38:23Z</time>
      </trkpt>
      <trkpt lat="46.89883" lon="-1.49012">
        <ele>42</ele>
        <time>2011-04-10T06:38:24Z</time>
      </trkpt>
      <trkpt lat="46.89876" lon="-1.49032">
        <ele>43</ele>
        <time>2011-04-10T06:38:30Z</time>
      </trkpt>
      <trkpt lat="46.8987" lon="-1.49059">
        <ele>43</ele>
        <time>2011-04-10T06:38:37Z</time>
      </trkpt>
      <trkpt lat="46.89865" lon="-1.49084">
        <ele>47</ele>
        <time>2011-04-10T06:38:44Z</time>
      </trkpt>
      <trkpt lat="46.89853" lon="-1.49114">
        <ele>47</ele>
        <time>2011-04-10T06:38:52Z</time>
      </trkpt>
      <trkpt lat="46.8984" lon="-1.49153">
        <ele>48</ele>
        <time>2011-04-10T06:39:01Z</time>
      </trkpt>
      <trkpt lat="46.89827" lon="-1.49192">
        <ele>51</ele>
        <time>2011-04-10T06:39:09Z</time>
      </trkpt>
      <trkpt lat="46.89808" lon="-1.49249">
        <ele>52</ele>
        <time>2011-04-10T06:39:21Z</time>
      </trkpt>
      <trkpt lat="46.89789" lon="-1.49305">
        <ele>55</ele>
        <time>2011-04-10T06:39:33Z</time>
      </trkpt>
      <trkpt lat="46.8977" lon="-1.4936">
        <ele>56</ele>
        <time>2011-04-10T06:39:44Z</time>
      </trkpt>
      <trkpt lat="46.89753" lon="-1.49386">
        <ele>57</ele>
        <time>2011-04-10T06:39:50Z</time>
      </trkpt>
      <trkpt lat="46.89725" lon="-1.49419">
        <ele>57</ele>
        <time>2011-04-10T06:39:59Z</time>
      </trkpt>
      <trkpt lat="46.89698" lon="-1.49449">
        <ele>56</ele>
        <time>2011-04-10T06:40:07Z</time>
      </trkpt>
      <trkpt lat="46.89693" lon="-1.49473">
        <ele>56</ele>
        <time>2011-04-10T06:40:11Z</time>
      </trkpt>
      <trkpt lat="46.89688" lon="-1.49515">
        <ele>57</ele>
        <time>2011-04-10T06:40:17Z</time>
      </trkpt>
      <trkpt lat="46.89681" lon="-1.49543">
        <ele>57</ele>
        <time>2011-04-10T06:40:21Z</time>
      </trkpt>
      <trkpt lat="46.89682" lon="-1.49563">
        <ele>57</ele>
        <time>2011-04-10T06:40:24Z</time>
      </trkpt>
      <trkpt lat="46.89691" lon="-1.49567">
        <ele>57</ele>
        <time>2011-04-10T06:40:26Z</time>
      </trkpt>
      <trkpt lat="46.89748" lon="-1.49557">
        <ele>57</ele>
        <time>2011-04-10T06:40:36Z</time>
      </trkpt>
      <trkpt lat="46.89799" lon="-1.4955">
        <ele>57</ele>
        <time>2011-04-10T06:40:45Z</time>
      </trkpt>
      <trkpt lat="46.89844" lon="-1.49542">
        <ele>56</ele>
        <time>2011-04-10T06:40:53Z</time>
      </trkpt>
      <trkpt lat="46.89908" lon="-1.49533">
        <ele>55</ele>
        <time>2011-04-10T06:41:04Z</time>
      </trkpt>
      <trkpt lat="46.89939" lon="-1.49538">
        <ele>54</ele>
        <time>2011-04-10T06:41:09Z</time>
      </trkpt>
      <trkpt lat="46.8999" lon="-1.49557">
        <ele>53</ele>
        <time>2011-04-10T06:41:17Z</time>
      </trkpt>
      <trkpt lat="46.90039" lon="-1.49577">
        <ele>50</ele>
        <time>2011-04-10T06:41:24Z</time>
      </trkpt>
      <trkpt lat="46.90092" lon="-1.49597">
        <ele>47</ele>
        <time>2011-04-10T06:41:31Z</time>
      </trkpt>
      <trkpt lat="46.901" lon="-1.49601">
        <ele>47</ele>
        <time>2011-04-10T06:41:32Z</time>
      </trkpt>
      <trkpt lat="46.90163" lon="-1.49628">
        <ele>45</ele>
        <time>2011-04-10T06:41:39Z</time>
      </trkpt>
      <trkpt lat="46.90191" lon="-1.49644">
        <ele>42</ele>
        <time>2011-04-10T06:41:42Z</time>
      </trkpt>
      <trkpt lat="46.9023" lon="-1.49666">
        <ele>41</ele>
        <time>2011-04-10T06:41:46Z</time>
      </trkpt>
      <trkpt lat="46.90281" lon="-1.49695">
        <ele>40</ele>
        <time>2011-04-10T06:41:52Z</time>
      </trkpt>
      <trkpt lat="46.90295" lon="-1.49703">
        <ele>39</ele>
        <time>2011-04-10T06:41:54Z</time>
      </trkpt>
      <trkpt lat="46.90313" lon="-1.49699">
        <ele>39</ele>
        <time>2011-04-10T06:41:57Z</time>
      </trkpt>
      <trkpt lat="46.90346" lon="-1.49664">
        <ele>37</ele>
        <time>2011-04-10T06:42:03Z</time>
      </trkpt>
      <trkpt lat="46.90358" lon="-1.4965">
        <ele>36</ele>
        <time>2011-04-10T06:42:05Z</time>
      </trkpt>
      <trkpt lat="46.90396" lon="-1.49608">
        <ele>35</ele>
        <time>2011-04-10T06:42:11Z</time>
      </trkpt>
      <trkpt lat="46.90402" lon="-1.49601">
        <ele>35</ele>
        <time>2011-04-10T06:42:12Z</time>
      </trkpt>
      <trkpt lat="46.90452" lon="-1.49546">
        <ele>34</ele>
        <time>2011-04-10T06:42:20Z</time>
      </trkpt>
      <trkpt lat="46.9048" lon="-1.49516">
        <ele>34</ele>
        <time>2011-04-10T06:42:25Z</time>
      </trkpt>
      <trkpt lat="46.90503" lon="-1.49502">
        <ele>35</ele>
        <time>2011-04-10T06:42:29Z</time>
      </trkpt>
      <trkpt lat="46.90544" lon="-1.49461">
        <ele>33</ele>
        <time>2011-04-10T06:42:37Z</time>
      </trkpt>
      <trkpt lat="46.90548" lon="-1.49456">
        <ele>33</ele>
        <time>2011-04-10T06:42:38Z</time>
      </trkpt>
      <trkpt lat="46.90567" lon="-1.49447">
        <ele>33</ele>
        <time>2011-04-10T06:42:42Z</time>
      </trkpt>
      <trkpt lat="46.90577" lon="-1.49463">
        <ele>33</ele>
        <time>2011-04-10T06:42:45Z</time>
      </trkpt>
      <trkpt lat="46.90591" lon="-1.49479">
        <ele>34</ele>
        <time>2011-04-10T06:42:49Z</time>
      </trkpt>
      <trkpt lat="46.90592" lon="-1.49495">
        <ele>33</ele>
        <time>2011-04-10T06:42:52Z</time>
      </trkpt>
      <trkpt lat="46.90588" lon="-1.49503">
        <ele>33</ele>
        <time>2011-04-10T06:42:54Z</time>
      </trkpt>
      <trkpt lat="46.90582" lon="-1.49536">
        <ele>33</ele>
        <time>2011-04-10T06:43:00Z</time>
      </trkpt>
      <trkpt lat="46.90601" lon="-1.49572">
        <ele>34</ele>
        <time>2011-04-10T06:43:08Z</time>
      </trkpt>
      <trkpt lat="46.90607" lon="-1.49581">
        <ele>35</ele>
        <time>2011-04-10T06:43:11Z</time>
      </trkpt>
      <trkpt lat="46.90609" lon="-1.49599">
        <ele>34</ele>
        <time>2011-04-10T06:43:16Z</time>
      </trkpt>
      <trkpt lat="46.90615" lon="-1.49619">
        <ele>33</ele>
        <time>2011-04-10T06:43:20Z</time>
      </trkpt>
      <trkpt lat="46.90629" lon="-1.49633">
        <ele>33</ele>
        <time>2011-04-10T06:43:24Z</time>
      </trkpt>
      <trkpt lat="46.90645" lon="-1.49657">
        <ele>33</ele>
        <time>2011-04-10T06:43:29Z</time>
      </trkpt>
      <trkpt lat="46.90663" lon="-1.49694">
        <ele>31</ele>
        <time>2011-04-10T06:43:35Z</time>
      </trkpt>
      <trkpt lat="46.90673" lon="-1.49712">
        <ele>31</ele>
        <time>2011-04-10T06:43:38Z</time>
      </trkpt>
      <trkpt lat="46.90678" lon="-1.49743">
        <ele>30</ele>
        <time>2011-04-10T06:43:42Z</time>
      </trkpt>
      <trkpt lat="46.90675" lon="-1.49808">
        <ele>29</ele>
        <time>2011-04-10T06:43:50Z</time>
      </trkpt>
      <trkpt lat="46.90674" lon="-1.49847">
        <ele>30</ele>
        <time>2011-04-10T06:43:55Z</time>
      </trkpt>
      <trkpt lat="46.90662" lon="-1.49882">
        <ele>31</ele>
        <time>2011-04-10T06:44:00Z</time>
      </trkpt>
      <trkpt lat="46.90632" lon="-1.49944">
        <ele>35</ele>
        <time>2011-04-10T06:44:10Z</time>
      </trkpt>
      <trkpt lat="46.90629" lon="-1.49949">
        <ele>35</ele>
        <time>2011-04-10T06:44:11Z</time>
      </trkpt>
      <trkpt lat="46.90629" lon="-1.49966">
        <ele>35</ele>
        <time>2011-04-10T06:44:14Z</time>
      </trkpt>
      <trkpt lat="46.90627" lon="-1.49992">
        <ele>36</ele>
        <time>2011-04-10T06:44:20Z</time>
      </trkpt>
      <trkpt lat="46.9063" lon="-1.49997">
        <ele>36</ele>
        <time>2011-04-10T06:44:22Z</time>
      </trkpt>
      <trkpt lat="46.90649" lon="-1.50014">
        <ele>39</ele>
        <time>2011-04-10T06:44:30Z</time>
      </trkpt>
      <trkpt lat="46.90655" lon="-1.50018">
        <ele>39</ele>
        <time>2011-04-10T06:44:33Z</time>
      </trkpt>
      <trkpt lat="46.90667" lon="-1.50016">
        <ele>39</ele>
        <time>2011-04-10T06:44:37Z</time>
      </trkpt>
      <trkpt lat="46.907" lon="-1.5002">
        <ele>41</ele>
        <time>2011-04-10T06:44:44Z</time>
      </trkpt>
      <trkpt lat="46.90724" lon="-1.50023">
        <ele>41</ele>
        <time>2011-04-10T06:44:50Z</time>
      </trkpt>
      <trkpt lat="46.90742" lon="-1.50023">
        <ele>40</ele>
        <time>2011-04-10T06:44:55Z</time>
      </trkpt>
      <trkpt lat="46.90759" lon="-1.50017">
        <ele>40</ele>
        <time>2011-04-10T06:45:00Z</time>
      </trkpt>
      <trkpt lat="46.90766" lon="-1.50011">
        <ele>40</ele>
        <time>2011-04-10T06:45:02Z</time>
      </trkpt>
      <trkpt lat="46.90779" lon="-1.50013">
        <ele>41</ele>
        <time>2011-04-10T06:45:07Z</time>
      </trkpt>
      <trkpt lat="46.90782" lon="-1.50014">
        <ele>41</ele>
        <time>2011-04-10T06:45:08Z</time>
      </trkpt>
      <trkpt lat="46.90802" lon="-1.5002">
        <ele>41</ele>
        <time>2011-04-10T06:45:14Z</time>
      </trkpt>
      <trkpt lat="46.9082" lon="-1.50022">
        <ele>41</ele>
        <time>2011-04-10T06:45:20Z</time>
      </trkpt>
      <trkpt lat="46.90821" lon="-1.5002">
        <ele>41</ele>
        <time>2011-04-10T06:45:21Z</time>
      </trkpt>
      <trkpt lat="46.90829" lon="-1.50014">
        <ele>41</ele>
        <time>2011-04-10T06:45:25Z</time>
      </trkpt>
      <trkpt lat="46.90841" lon="-1.50016">
        <ele>41</ele>
        <time>2011-04-10T06:45:31Z</time>
      </trkpt>
      <trkpt lat="46.90863" lon="-1.50012">
        <ele>42</ele>
        <time>2011-04-10T06:45:38Z</time>
      </trkpt>
      <trkpt lat="46.90884" lon="-1.50015">
        <ele>42</ele>
        <time>2011-04-10T06:45:45Z</time>
      </trkpt>
      <trkpt lat="46.9089" lon="-1.50016">
        <ele>42</ele>
        <time>2011-04-10T06:45:47Z</time>
      </trkpt>
      <trkpt lat="46.90905" lon="-1.50015">
        <ele>42</ele>
        <time>2011-04-10T06:45:53Z</time>
      </trkpt>
      <trkpt lat="46.90913" lon="-1.50017">
        <ele>42</ele>
        <time>2011-04-10T06:45:59Z</time>
      </trkpt>
      <trkpt lat="46.90923" lon="-1.50012">
        <ele>42</ele>
        <time>2011-04-10T06:46:06Z</time>
      </trkpt>
      <trkpt lat="46.90928" lon="-1.5001">
        <ele>42</ele>
        <time>2011-04-10T06:46:10Z</time>
      </trkpt>
      <trkpt lat="46.90932" lon="-1.49998">
        <ele>39</ele>
        <time>2011-04-10T06:46:14Z</time>
      </trkpt>
      <trkpt lat="46.90939" lon="-1.49993">
        <ele>38</ele>
        <time>2011-04-10T06:46:17Z</time>
      </trkpt>
      <trkpt lat="46.9095" lon="-1.49989">
        <ele>38</ele>
        <time>2011-04-10T06:46:22Z</time>
      </trkpt>
      <trkpt lat="46.90953" lon="-1.49987">
        <ele>38</ele>
        <time>2011-04-10T06:46:23Z</time>
      </trkpt>
      <trkpt lat="46.90962" lon="-1.49972">
        <ele>38</ele>
        <time>2011-04-10T06:46:28Z</time>
      </trkpt>
      <trkpt lat="46.90972" lon="-1.49963">
        <ele>37</ele>
        <time>2011-04-10T06:46:34Z</time>
      </trkpt>
      <trkpt lat="46.90977" lon="-1.49946">
        <ele>37</ele>
        <time>2011-04-10T06:46:38Z</time>
      </trkpt>
      <trkpt lat="46.90985" lon="-1.49928">
        <ele>37</ele>
        <time>2011-04-10T06:46:41Z</time>
      </trkpt>
      <trkpt lat="46.90994" lon="-1.4991">
        <ele>36</ele>
        <time>2011-04-10T06:46:45Z</time>
      </trkpt>
      <trkpt lat="46.90996" lon="-1.49907">
        <ele>35</ele>
        <time>2011-04-10T06:46:46Z</time>
      </trkpt>
      <trkpt lat="46.91006" lon="-1.49885">
        <ele>37</ele>
        <time>2011-04-10T06:46:52Z</time>
      </trkpt>
      <trkpt lat="46.91015" lon="-1.49864">
        <ele>37</ele>
        <time>2011-04-10T06:46:57Z</time>
      </trkpt>
      <trkpt lat="46.91022" lon="-1.49844">
        <ele>37</ele>
        <time>2011-04-10T06:47:02Z</time>
      </trkpt>
      <trkpt lat="46.91028" lon="-1.49825">
        <ele>35</ele>
        <time>2011-04-10T06:47:06Z</time>
      </trkpt>
      <trkpt lat="46.91044" lon="-1.49783">
        <ele>34</ele>
        <time>2011-04-10T06:47:12Z</time>
      </trkpt>
      <trkpt lat="46.91066" lon="-1.49728">
        <ele>32</ele>
        <time>2011-04-10T06:47:20Z</time>
      </trkpt>
      <trkpt lat="46.91078" lon="-1.49704">
        <ele>31</ele>
        <time>2011-04-10T06:47:24Z</time>
      </trkpt>
      <trkpt lat="46.91099" lon="-1.49686">
        <ele>33</ele>
        <time>2011-04-10T06:47:29Z</time>
      </trkpt>
      <trkpt lat="46.91116" lon="-1.49693">
        <ele>34</ele>
        <time>2011-04-10T06:47:33Z</time>
      </trkpt>
      <trkpt lat="46.91119" lon="-1.49696">
        <ele>34</ele>
        <time>2011-04-10T06:47:34Z</time>
      </trkpt>
      <trkpt lat="46.91148" lon="-1.49736">
        <ele>36</ele>
        <time>2011-04-10T06:47:43Z</time>
      </trkpt>
      <trkpt lat="46.91167" lon="-1.49761">
        <ele>40</ele>
        <time>2011-04-10T06:47:49Z</time>
      </trkpt>
      <trkpt lat="46.91164" lon="-1.49782">
        <ele>39</ele>
        <time>2011-04-10T06:47:53Z</time>
      </trkpt>
      <trkpt lat="46.91143" lon="-1.49838">
        <ele>42</ele>
        <time>2011-04-10T06:48:03Z</time>
      </trkpt>
      <trkpt lat="46.91126" lon="-1.4989">
        <ele>42</ele>
        <time>2011-04-10T06:48:12Z</time>
      </trkpt>
      <trkpt lat="46.91108" lon="-1.49942">
        <ele>44</ele>
        <time>2011-04-10T06:48:21Z</time>
      </trkpt>
      <trkpt lat="46.91089" lon="-1.5">
        <ele>45</ele>
        <time>2011-04-10T06:48:31Z</time>
      </trkpt>
      <trkpt lat="46.91076" lon="-1.50048">
        <ele>45</ele>
        <time>2011-04-10T06:48:39Z</time>
      </trkpt>
      <trkpt lat="46.9107" lon="-1.50074">
        <ele>45</ele>
        <time>2011-04-10T06:48:43Z</time>
      </trkpt>
      <trkpt lat="46.91056" lon="-1.5009">
        <ele>45</ele>
        <time>2011-04-10T06:48:47Z</time>
      </trkpt>
      <trkpt lat="46.91052" lon="-1.5009">
        <ele>45</ele>
        <time>2011-04-10T06:48:48Z</time>
      </trkpt>
      <trkpt lat="46.90992" lon="-1.50081">
        <ele>45</ele>
        <time>2011-04-10T06:49:00Z</time>
      </trkpt>
      <trkpt lat="46.90946" lon="-1.50073">
        <ele>45</ele>
        <time>2011-04-10T06:49:09Z</time>
      </trkpt>
      <trkpt lat="46.90899" lon="-1.50069">
        <ele>45</ele>
        <time>2011-04-10T06:49:18Z</time>
      </trkpt>
      <trkpt lat="46.90846" lon="-1.50069">
        <ele>45</ele>
        <time>2011-04-10T06:49:28Z</time>
      </trkpt>
      <trkpt lat="46.90789" lon="-1.50068">
        <ele>44</ele>
        <time>2011-04-10T06:49:38Z</time>
      </trkpt>
      <trkpt lat="46.90734" lon="-1.50076">
        <ele>44</ele>
        <time>2011-04-10T06:49:47Z</time>
      </trkpt>
      <trkpt lat="46.90728" lon="-1.50077">
        <ele>44</ele>
        <time>2011-04-10T06:49:48Z</time>
      </trkpt>
      <trkpt lat="46.90683" lon="-1.50066">
        <ele>43</ele>
        <time>2011-04-10T06:49:56Z</time>
      </trkpt>
      <trkpt lat="46.90677" lon="-1.50064">
        <ele>43</ele>
        <time>2011-04-10T06:49:57Z</time>
      </trkpt>
      <trkpt lat="46.90655" lon="-1.50044">
        <ele>40</ele>
        <time>2011-04-10T06:50:01Z</time>
      </trkpt>
      <trkpt lat="46.90628" lon="-1.50008">
        <ele>39</ele>
        <time>2011-04-10T06:50:05Z</time>
      </trkpt>
      <trkpt lat="46.90605" lon="-1.49982">
        <ele>35</ele>
        <time>2011-04-10T06:50:08Z</time>
      </trkpt>
      <trkpt lat="46.90581" lon="-1.49959">
        <ele>35</ele>
        <time>2011-04-10T06:50:11Z</time>
      </trkpt>
      <trkpt lat="46.90545" lon="-1.49922">
        <ele>34</ele>
        <time>2011-04-10T06:50:16Z</time>
      </trkpt>
      <trkpt lat="46.90503" lon="-1.49879">
        <ele>33</ele>
        <time>2011-04-10T06:50:23Z</time>
      </trkpt>
      <trkpt lat="46.90449" lon="-1.49822">
        <ele>35</ele>
        <time>2011-04-10T06:50:33Z</time>
      </trkpt>
      <trkpt lat="46.90391" lon="-1.49762">
        <ele>36</ele>
        <time>2011-04-10T06:50:44Z</time>
      </trkpt>
      <trkpt lat="46.90348" lon="-1.49731">
        <ele>37</ele>
        <time>2011-04-10T06:50:52Z</time>
      </trkpt>
      <trkpt lat="46.90327" lon="-1.4972">
        <ele>39</ele>
        <time>2011-04-10T06:50:56Z</time>
      </trkpt>
      <trkpt lat="46.90309" lon="-1.49725">
        <ele>39</ele>
        <time>2011-04-10T06:51:00Z</time>
      </trkpt>
      <trkpt lat="46.90306" lon="-1.49729">
        <ele>39</ele>
        <time>2011-04-10T06:51:01Z</time>
      </trkpt>
      <trkpt lat="46.90268" lon="-1.49775">
        <ele>41</ele>
        <time>2011-04-10T06:51:12Z</time>
      </trkpt>
      <trkpt lat="46.90232" lon="-1.4982">
        <ele>44</ele>
        <time>2011-04-10T06:51:23Z</time>
      </trkpt>
      <trkpt lat="46.90199" lon="-1.49858">
        <ele>46</ele>
        <time>2011-04-10T06:51:33Z</time>
      </trkpt>
      <trkpt lat="46.90169" lon="-1.49897">
        <ele>48</ele>
        <time>2011-04-10T06:51:43Z</time>
      </trkpt>
      <trkpt lat="46.90142" lon="-1.49931">
        <ele>50</ele>
        <time>2011-04-10T06:51:52Z</time>
      </trkpt>
      <trkpt lat="46.90109" lon="-1.49974">
        <ele>50</ele>
        <time>2011-04-10T06:52:03Z</time>
      </trkpt>
      <trkpt lat="46.90077" lon="-1.50019">
        <ele>51</ele>
        <time>2011-04-10T06:52:14Z</time>
      </trkpt>
      <trkpt lat="46.9006" lon="-1.50045">
        <ele>52</ele>
        <time>2011-04-10T06:52:20Z</time>
      </trkpt>
      <trkpt lat="46.9005" lon="-1.50073">
        <ele>52</ele>
        <time>2011-04-10T06:52:25Z</time>
      </trkpt>
      <trkpt lat="46.90044" lon="-1.50129">
        <ele>54</ele>
        <time>2011-04-10T06:52:34Z</time>
      </trkpt>
      <trkpt lat="46.9004" lon="-1.50201">
        <ele>56</ele>
        <time>2011-04-10T06:52:45Z</time>
      </trkpt>
      <trkpt lat="46.90036" lon="-1.50255">
        <ele>58</ele>
        <time>2011-04-10T06:52:54Z</time>
      </trkpt>
      <trkpt lat="46.90036" lon="-1.50263">
        <ele>58</ele>
        <time>2011-04-10T06:52:56Z</time>
      </trkpt>
      <trkpt lat="46.90046" lon="-1.50272">
        <ele>58</ele>
        <time>2011-04-10T06:53:00Z</time>
      </trkpt>
      <trkpt lat="46.90071" lon="-1.50277">
        <ele>58</ele>
        <time>2011-04-10T06:53:05Z</time>
      </trkpt>
      <trkpt lat="46.90106" lon="-1.50282">
        <ele>59</ele>
        <time>2011-04-10T06:53:11Z</time>
      </trkpt>
      <trkpt lat="46.90122" lon="-1.50304">
        <ele>60</ele>
        <time>2011-04-10T06:53:15Z</time>
      </trkpt>
      <trkpt lat="46.90121" lon="-1.50312">
        <ele>60</ele>
        <time>2011-04-10T06:53:16Z</time>
      </trkpt>
      <trkpt lat="46.90113" lon="-1.50365">
        <ele>62</ele>
        <time>2011-04-10T06:53:23Z</time>
      </trkpt>
      <trkpt lat="46.90105" lon="-1.50417">
        <ele>63</ele>
        <time>2011-04-10T06:53:30Z</time>
      </trkpt>
      <trkpt lat="46.90101" lon="-1.50448">
        <ele>63</ele>
        <time>2011-04-10T06:53:34Z</time>
      </trkpt>
      <trkpt lat="46.90098" lon="-1.50463">
        <ele>63</ele>
        <time>2011-04-10T06:53:36Z</time>
      </trkpt>
      <trkpt lat="46.90092" lon="-1.50485">
        <ele>64</ele>
        <time>2011-04-10T06:53:39Z</time>
      </trkpt>
      <trkpt lat="46.90083" lon="-1.50504">
        <ele>65</ele>
        <time>2011-04-10T06:53:42Z</time>
      </trkpt>
      <trkpt lat="46.90082" lon="-1.50531">
        <ele>64</ele>
        <time>2011-04-10T06:53:46Z</time>
      </trkpt>
      <trkpt lat="46.90085" lon="-1.50536">
        <ele>63</ele>
        <time>2011-04-10T06:53:47Z</time>
      </trkpt>
      <trkpt lat="46.90106" lon="-1.50596">
        <ele>62</ele>
        <time>2011-04-10T06:53:56Z</time>
      </trkpt>
      <trkpt lat="46.90115" lon="-1.50627">
        <ele>61</ele>
        <time>2011-04-10T06:54:00Z</time>
      </trkpt>
      <trkpt lat="46.90142" lon="-1.50669">
        <ele>60</ele>
        <time>2011-04-10T06:54:05Z</time>
      </trkpt>
      <trkpt lat="46.90156" lon="-1.50711">
        <ele>61</ele>
        <time>2011-04-10T06:54:09Z</time>
      </trkpt>
      <trkpt lat="46.90159" lon="-1.50729">
        <ele>60</ele>
        <time>2011-04-10T06:54:11Z</time>
      </trkpt>
      <trkpt lat="46.9016" lon="-1.50743">
        <ele>60</ele>
        <time>2011-04-10T06:54:13Z</time>
      </trkpt>
      <trkpt lat="46.90158" lon="-1.5079">
        <ele>60</ele>
        <time>2011-04-10T06:54:21Z</time>
      </trkpt>
      <trkpt lat="46.9015" lon="-1.50806">
        <ele>60</ele>
        <time>2011-04-10T06:54:25Z</time>
      </trkpt>
      <trkpt lat="46.90146" lon="-1.50821">
        <ele>60</ele>
        <time>2011-04-10T06:54:29Z</time>
      </trkpt>
      <trkpt lat="46.9014" lon="-1.50838">
        <ele>60</ele>
        <time>2011-04-10T06:54:34Z</time>
      </trkpt>
      <trkpt lat="46.90136" lon="-1.5085">
        <ele>60</ele>
        <time>2011-04-10T06:54:37Z</time>
      </trkpt>
      <trkpt lat="46.90132" lon="-1.5086">
        <ele>60</ele>
        <time>2011-04-10T06:54:40Z</time>
      </trkpt>
      <trkpt lat="46.90122" lon="-1.50867">
        <ele>61</ele>
        <time>2011-04-10T06:54:46Z</time>
      </trkpt>
      <trkpt lat="46.90122" lon="-1.50869">
        <ele>61</ele>
        <time>2011-04-10T06:54:47Z</time>
      </trkpt>
      <trkpt lat="46.90115" lon="-1.50879">
        <ele>61</ele>
        <time>2011-04-10T06:54:53Z</time>
      </trkpt>
      <trkpt lat="46.90109" lon="-1.50877">
        <ele>61</ele>
        <time>2011-04-10T06:54:55Z</time>
      </trkpt>
      <trkpt lat="46.90092" lon="-1.50869">
        <ele>61</ele>
        <time>2011-04-10T06:55:01Z</time>
      </trkpt>
      <trkpt lat="46.90091" lon="-1.50879">
        <ele>61</ele>
        <time>2011-04-10T06:55:05Z</time>
      </trkpt>
      <trkpt lat="46.90093" lon="-1.5089">
        <ele>61</ele>
        <time>2011-04-10T06:55:08Z</time>
      </trkpt>
      <trkpt lat="46.90096" lon="-1.50897">
        <ele>62</ele>
        <time>2011-04-10T06:55:10Z</time>
      </trkpt>
      <trkpt lat="46.90101" lon="-1.50907">
        <ele>62</ele>
        <time>2011-04-10T06:55:13Z</time>
      </trkpt>
      <trkpt lat="46.90098" lon="-1.5092">
        <ele>62</ele>
        <time>2011-04-10T06:55:17Z</time>
      </trkpt>
      <trkpt lat="46.90094" lon="-1.50916">
        <ele>62</ele>
        <time>2011-04-10T06:55:20Z</time>
      </trkpt>
      <trkpt lat="46.90094" lon="-1.50907">
        <ele>62</ele>
        <time>2011-04-10T06:55:24Z</time>
      </trkpt>
      <trkpt lat="46.9009" lon="-1.50907">
        <ele>62</ele>
        <time>2011-04-10T06:55:26Z</time>
      </trkpt>
      <trkpt lat="46.90086" lon="-1.50914">
        <ele>63</ele>
        <time>2011-04-10T06:55:29Z</time>
      </trkpt>
      <trkpt lat="46.90086" lon="-1.50926">
        <ele>63</ele>
        <time>2011-04-10T06:55:33Z</time>
      </trkpt>
      <trkpt lat="46.90089" lon="-1.50938">
        <ele>62</ele>
        <time>2011-04-10T06:55:37Z</time>
      </trkpt>
      <trkpt lat="46.90094" lon="-1.50944">
        <ele>62</ele>
        <time>2011-04-10T06:55:40Z</time>
      </trkpt>
      <trkpt lat="46.90091" lon="-1.50955">
        <ele>62</ele>
        <time>2011-04-10T06:55:44Z</time>
      </trkpt>
      <trkpt lat="46.90094" lon="-1.50967">
        <ele>62</ele>
        <time>2011-04-10T06:55:48Z</time>
      </trkpt>
      <trkpt lat="46.90095" lon="-1.50971">
        <ele>62</ele>
        <time>2011-04-10T06:55:50Z</time>
      </trkpt>
      <trkpt lat="46.90104" lon="-1.50982">
        <ele>63</ele>
        <time>2011-04-10T06:55:55Z</time>
      </trkpt>
      <trkpt lat="46.90106" lon="-1.50982">
        <ele>62</ele>
        <time>2011-04-10T06:55:56Z</time>
      </trkpt>
      <trkpt lat="46.90114" lon="-1.50983">
        <ele>62</ele>
        <time>2011-04-10T06:56:01Z</time>
      </trkpt>
      <trkpt lat="46.90116" lon="-1.50985">
        <ele>62</ele>
        <time>2011-04-10T06:56:02Z</time>
      </trkpt>
      <trkpt lat="46.90117" lon="-1.51001">
        <ele>63</ele>
        <time>2011-04-10T06:56:07Z</time>
      </trkpt>
      <trkpt lat="46.90115" lon="-1.51005">
        <ele>63</ele>
        <time>2011-04-10T06:56:08Z</time>
      </trkpt>
      <trkpt lat="46.90102" lon="-1.51025">
        <ele>64</ele>
        <time>2011-04-10T06:56:14Z</time>
      </trkpt>
      <trkpt lat="46.90094" lon="-1.51037">
        <ele>64</ele>
        <time>2011-04-10T06:56:18Z</time>
      </trkpt>
      <trkpt lat="46.90087" lon="-1.5105">
        <ele>64</ele>
        <time>2011-04-10T06:56:22Z</time>
      </trkpt>
      <trkpt lat="46.90091" lon="-1.51065">
        <ele>64</ele>
        <time>2011-04-10T06:56:26Z</time>
      </trkpt>
      <trkpt lat="46.90094" lon="-1.51076">
        <ele>64</ele>
        <time>2011-04-10T06:56:30Z</time>
      </trkpt>
      <trkpt lat="46.90095" lon="-1.51077">
        <ele>64</ele>
        <time>2011-04-10T06:56:31Z</time>
      </trkpt>
      <trkpt lat="46.90103" lon="-1.511">
        <ele>65</ele>
        <time>2011-04-10T06:56:38Z</time>
      </trkpt>
      <trkpt lat="46.9011" lon="-1.51118">
        <ele>65</ele>
        <time>2011-04-10T06:56:44Z</time>
      </trkpt>
      <trkpt lat="46.90122" lon="-1.51143">
        <ele>66</ele>
        <time>2011-04-10T06:56:50Z</time>
      </trkpt>
      <trkpt lat="46.90113" lon="-1.51156">
        <ele>66</ele>
        <time>2011-04-10T06:56:55Z</time>
      </trkpt>
      <trkpt lat="46.90111" lon="-1.51158">
        <ele>66</ele>
        <time>2011-04-10T06:56:56Z</time>
      </trkpt>
      <trkpt lat="46.90091" lon="-1.51181">
        <ele>67</ele>
        <time>2011-04-10T06:57:03Z</time>
      </trkpt>
      <trkpt lat="46.90079" lon="-1.51197">
        <ele>67</ele>
        <time>2011-04-10T06:57:08Z</time>
      </trkpt>
      <trkpt lat="46.90076" lon="-1.512">
        <ele>67</ele>
        <time>2011-04-10T06:57:09Z</time>
      </trkpt>
      <trkpt lat="46.90067" lon="-1.51198">
        <ele>67</ele>
        <time>2011-04-10T06:57:13Z</time>
      </trkpt>
      <trkpt lat="46.90057" lon="-1.51167">
        <ele>67</ele>
        <time>2011-04-10T06:57:19Z</time>
      </trkpt>
      <trkpt lat="46.9004" lon="-1.51128">
        <ele>66</ele>
        <time>2011-04-10T06:57:25Z</time>
      </trkpt>
      <trkpt lat="46.90035" lon="-1.51114">
        <ele>66</ele>
        <time>2011-04-10T06:57:28Z</time>
      </trkpt>
      <trkpt lat="46.90028" lon="-1.51116">
        <ele>66</ele>
        <time>2011-04-10T06:57:33Z</time>
      </trkpt>
      <trkpt lat="46.90017" lon="-1.51119">
        <ele>66</ele>
        <time>2011-04-10T06:57:38Z</time>
      </trkpt>
      <trkpt lat="46.90004" lon="-1.51125">
        <ele>66</ele>
        <time>2011-04-10T06:57:43Z</time>
      </trkpt>
      <trkpt lat="46.90002" lon="-1.51126">
        <ele>66</ele>
        <time>2011-04-10T06:57:44Z</time>
      </trkpt>
      <trkpt lat="46.89999" lon="-1.5113">
        <ele>66</ele>
        <time>2011-04-10T06:57:46Z</time>
      </trkpt>
      <trkpt lat="46.89989" lon="-1.51137">
        <ele>66</ele>
        <time>2011-04-10T06:57:51Z</time>
      </trkpt>
      <trkpt lat="46.89983" lon="-1.51153">
        <ele>66</ele>
        <time>2011-04-10T06:57:56Z</time>
      </trkpt>
      <trkpt lat="46.89978" lon="-1.51176">
        <ele>66</ele>
        <time>2011-04-10T06:58:02Z</time>
      </trkpt>
      <trkpt lat="46.89975" lon="-1.51178">
        <ele>67</ele>
        <time>2011-04-10T06:58:04Z</time>
      </trkpt>
      <trkpt lat="46.89965" lon="-1.5119">
        <ele>67</ele>
        <time>2011-04-10T06:58:10Z</time>
      </trkpt>
      <trkpt lat="46.89963" lon="-1.51192">
        <ele>67</ele>
        <time>2011-04-10T06:58:11Z</time>
      </trkpt>
      <trkpt lat="46.89947" lon="-1.51187">
        <ele>67</ele>
        <time>2011-04-10T06:58:17Z</time>
      </trkpt>
      <trkpt lat="46.89928" lon="-1.51177">
        <ele>67</ele>
        <time>2011-04-10T06:58:23Z</time>
      </trkpt>
      <trkpt lat="46.89901" lon="-1.51162">
        <ele>67</ele>
        <time>2011-04-10T06:58:31Z</time>
      </trkpt>
      <trkpt lat="46.89887" lon="-1.51147">
        <ele>66</ele>
        <time>2011-04-10T06:58:36Z</time>
      </trkpt>
      <trkpt lat="46.89882" lon="-1.51132">
        <ele>66</ele>
        <time>2011-04-10T06:58:39Z</time>
      </trkpt>
      <trkpt lat="46.8988" lon="-1.51127">
        <ele>66</ele>
        <time>2011-04-10T06:58:40Z</time>
      </trkpt>
      <trkpt lat="46.8987" lon="-1.51128">
        <ele>66</ele>
        <time>2011-04-10T06:58:44Z</time>
      </trkpt>
      <trkpt lat="46.89869" lon="-1.51134">
        <ele>66</ele>
        <time>2011-04-10T06:58:45Z</time>
      </trkpt>
      <trkpt lat="46.89861" lon="-1.51164">
        <ele>66</ele>
        <time>2011-04-10T06:58:51Z</time>
      </trkpt>
      <trkpt lat="46.89855" lon="-1.51187">
        <ele>67</ele>
        <time>2011-04-10T06:58:56Z</time>
      </trkpt>
      <trkpt lat="46.89847" lon="-1.51223">
        <ele>67</ele>
        <time>2011-04-10T06:59:02Z</time>
      </trkpt>
      <trkpt lat="46.89858" lon="-1.51238">
        <ele>67</ele>
        <time>2011-04-10T06:59:06Z</time>
      </trkpt>
      <trkpt lat="46.89903" lon="-1.5126">
        <ele>67</ele>
        <time>2011-04-10T06:59:15Z</time>
      </trkpt>
      <trkpt lat="46.89935" lon="-1.5127">
        <ele>67</ele>
        <time>2011-04-10T06:59:21Z</time>
      </trkpt>
      <trkpt lat="46.89979" lon="-1.51276">
        <ele>68</ele>
        <time>2011-04-10T06:59:29Z</time>
      </trkpt>
      <trkpt lat="46.89995" lon="-1.5128">
        <ele>68</ele>
        <time>2011-04-10T06:59:32Z</time>
      </trkpt>
      <trkpt lat="46.90008" lon="-1.51284">
        <ele>68</ele>
        <time>2011-04-10T06:59:36Z</time>
      </trkpt>
      <trkpt lat="46.90012" lon="-1.51274">
        <ele>68</ele>
        <time>2011-04-10T06:59:40Z</time>
      </trkpt>
      <trkpt lat="46.9002" lon="-1.51253">
        <ele>68</ele>
        <time>2011-04-10T06:59:45Z</time>
      </trkpt>
      <trkpt lat="46.90021" lon="-1.51237">
        <ele>67</ele>
        <time>2011-04-10T06:59:49Z</time>
      </trkpt>
      <trkpt lat="46.90027" lon="-1.5123">
        <ele>67</ele>
        <time>2011-04-10T06:59:52Z</time>
      </trkpt>
      <trkpt lat="46.90029" lon="-1.51229">
        <ele>67</ele>
        <time>2011-04-10T06:59:53Z</time>
      </trkpt>
      <trkpt lat="46.90036" lon="-1.51226">
        <ele>67</ele>
        <time>2011-04-10T06:59:56Z</time>
      </trkpt>
      <trkpt lat="46.9005" lon="-1.51211">
        <ele>67</ele>
        <time>2011-04-10T07:00:02Z</time>
      </trkpt>
      <trkpt lat="46.90057" lon="-1.51206">
        <ele>67</ele>
        <time>2011-04-10T07:00:04Z</time>
      </trkpt>
      <trkpt lat="46.90066" lon="-1.51216">
        <ele>67</ele>
        <time>2011-04-10T07:00:08Z</time>
      </trkpt>
      <trkpt lat="46.9008" lon="-1.51245">
        <ele>68</ele>
        <time>2011-04-10T07:00:14Z</time>
      </trkpt>
      <trkpt lat="46.90092" lon="-1.51271">
        <ele>68</ele>
        <time>2011-04-10T07:00:20Z</time>
      </trkpt>
      <trkpt lat="46.90099" lon="-1.51289">
        <ele>68</ele>
        <time>2011-04-10T07:00:24Z</time>
      </trkpt>
      <trkpt lat="46.90098" lon="-1.51302">
        <ele>69</ele>
        <time>2011-04-10T07:00:28Z</time>
      </trkpt>
      <trkpt lat="46.90094" lon="-1.51306">
        <ele>69</ele>
        <time>2011-04-10T07:00:30Z</time>
      </trkpt>
      <trkpt lat="46.9009" lon="-1.5131">
        <ele>69</ele>
        <time>2011-04-10T07:00:32Z</time>
      </trkpt>
      <trkpt lat="46.90091" lon="-1.51321">
        <ele>69</ele>
        <time>2011-04-10T07:00:36Z</time>
      </trkpt>
      <trkpt lat="46.90099" lon="-1.5133">
        <ele>69</ele>
        <time>2011-04-10T07:00:40Z</time>
      </trkpt>
      <trkpt lat="46.90104" lon="-1.51337">
        <ele>69</ele>
        <time>2011-04-10T07:00:45Z</time>
      </trkpt>
      <trkpt lat="46.90105" lon="-1.51338">
        <ele>69</ele>
        <time>2011-04-10T07:00:47Z</time>
      </trkpt>
      <trkpt lat="46.90105" lon="-1.51342">
        <ele>69</ele>
        <time>2011-04-10T07:00:49Z</time>
      </trkpt>
      <trkpt lat="46.90105" lon="-1.51356">
        <ele>69</ele>
        <time>2011-04-10T07:00:54Z</time>
      </trkpt>
      <trkpt lat="46.90104" lon="-1.51363">
        <ele>69</ele>
        <time>2011-04-10T07:00:57Z</time>
      </trkpt>
      <trkpt lat="46.90108" lon="-1.5137">
        <ele>69</ele>
        <time>2011-04-10T07:01:02Z</time>
      </trkpt>
      <trkpt lat="46.90112" lon="-1.51379">
        <ele>69</ele>
        <time>2011-04-10T07:01:06Z</time>
      </trkpt>
      <trkpt lat="46.90113" lon="-1.514">
        <ele>69</ele>
        <time>2011-04-10T07:01:12Z</time>
      </trkpt>
      <trkpt lat="46.90123" lon="-1.51406">
        <ele>69</ele>
        <time>2011-04-10T07:01:16Z</time>
      </trkpt>
      <trkpt lat="46.9014" lon="-1.514">
        <ele>69</ele>
        <time>2011-04-10T07:01:22Z</time>
      </trkpt>
      <trkpt lat="46.90156" lon="-1.51393">
        <ele>69</ele>
        <time>2011-04-10T07:01:27Z</time>
      </trkpt>
      <trkpt lat="46.90177" lon="-1.51384">
        <ele>69</ele>
        <time>2011-04-10T07:01:33Z</time>
      </trkpt>
      <trkpt lat="46.90189" lon="-1.51379">
        <ele>69</ele>
        <time>2011-04-10T07:01:36Z</time>
      </trkpt>
      <trkpt lat="46.90208" lon="-1.51367">
        <ele>69</ele>
        <time>2011-04-10T07:01:41Z</time>
      </trkpt>
      <trkpt lat="46.90224" lon="-1.51359">
        <ele>69</ele>
        <time>2011-04-10T07:01:46Z</time>
      </trkpt>
      <trkpt lat="46.90243" lon="-1.5135">
        <ele>69</ele>
        <time>2011-04-10T07:01:51Z</time>
      </trkpt>
      <trkpt lat="46.90251" lon="-1.51345">
        <ele>68</ele>
        <time>2011-04-10T07:01:53Z</time>
      </trkpt>
      <trkpt lat="46.90272" lon="-1.51341">
        <ele>67</ele>
        <time>2011-04-10T07:01:58Z</time>
      </trkpt>
      <trkpt lat="46.90296" lon="-1.51331">
        <ele>66</ele>
        <time>2011-04-10T07:02:03Z</time>
      </trkpt>
      <trkpt lat="46.90337" lon="-1.51311">
        <ele>64</ele>
        <time>2011-04-10T07:02:11Z</time>
      </trkpt>
      <trkpt lat="46.90395" lon="-1.51277">
        <ele>65</ele>
        <time>2011-04-10T07:02:22Z</time>
      </trkpt>
      <trkpt lat="46.90436" lon="-1.51252">
        <ele>65</ele>
        <time>2011-04-10T07:02:30Z</time>
      </trkpt>
      <trkpt lat="46.90494" lon="-1.51217">
        <ele>65</ele>
        <time>2011-04-10T07:02:41Z</time>
      </trkpt>
      <trkpt lat="46.90555" lon="-1.5118">
        <ele>64</ele>
        <time>2011-04-10T07:02:52Z</time>
      </trkpt>
      <trkpt lat="46.90589" lon="-1.51148">
        <ele>63</ele>
        <time>2011-04-10T07:02:58Z</time>
      </trkpt>
      <trkpt lat="46.90618" lon="-1.51119">
        <ele>62</ele>
        <time>2011-04-10T07:03:03Z</time>
      </trkpt>
      <trkpt lat="46.90638" lon="-1.5111">
        <ele>62</ele>
        <time>2011-04-10T07:03:06Z</time>
      </trkpt>
      <trkpt lat="46.90665" lon="-1.51092">
        <ele>61</ele>
        <time>2011-04-10T07:03:10Z</time>
      </trkpt>
      <trkpt lat="46.90671" lon="-1.51086">
        <ele>60</ele>
        <time>2011-04-10T07:03:11Z</time>
      </trkpt>
      <trkpt lat="46.9069" lon="-1.51078">
        <ele>58</ele>
        <time>2011-04-10T07:03:14Z</time>
      </trkpt>
      <trkpt lat="46.90699" lon="-1.51092">
        <ele>58</ele>
        <time>2011-04-10T07:03:16Z</time>
      </trkpt>
      <trkpt lat="46.90715" lon="-1.5116">
        <ele>57</ele>
        <time>2011-04-10T07:03:23Z</time>
      </trkpt>
      <trkpt lat="46.90736" lon="-1.51236">
        <ele>57</ele>
        <time>2011-04-10T07:03:31Z</time>
      </trkpt>
      <trkpt lat="46.9075" lon="-1.51282">
        <ele>57</ele>
        <time>2011-04-10T07:03:36Z</time>
      </trkpt>
      <trkpt lat="46.90778" lon="-1.51358">
        <ele>55</ele>
        <time>2011-04-10T07:03:44Z</time>
      </trkpt>
      <trkpt lat="46.90797" lon="-1.51414">
        <ele>55</ele>
        <time>2011-04-10T07:03:49Z</time>
      </trkpt>
      <trkpt lat="46.908" lon="-1.51426">
        <ele>56</ele>
        <time>2011-04-10T07:03:50Z</time>
      </trkpt>
      <trkpt lat="46.90817" lon="-1.51476">
        <ele>57</ele>
        <time>2011-04-10T07:03:55Z</time>
      </trkpt>
      <trkpt lat="46.90824" lon="-1.51493">
        <ele>57</ele>
        <time>2011-04-10T07:03:57Z</time>
      </trkpt>
      <trkpt lat="46.90847" lon="-1.51555">
        <ele>58</ele>
        <time>2011-04-10T07:04:05Z</time>
      </trkpt>
      <trkpt lat="46.90885" lon="-1.5166">
        <ele>59</ele>
        <time>2011-04-10T07:04:19Z</time>
      </trkpt>
      <trkpt lat="46.90903" lon="-1.51709">
        <ele>60</ele>
        <time>2011-04-10T07:04:26Z</time>
      </trkpt>
      <trkpt lat="46.90918" lon="-1.51726">
        <ele>59</ele>
        <time>2011-04-10T07:04:30Z</time>
      </trkpt>
      <trkpt lat="46.90928" lon="-1.51718">
        <ele>59</ele>
        <time>2011-04-10T07:04:32Z</time>
      </trkpt>
      <trkpt lat="46.90975" lon="-1.51663">
        <ele>58</ele>
        <time>2011-04-10T07:04:42Z</time>
      </trkpt>
      <trkpt lat="46.90979" lon="-1.51658">
        <ele>58</ele>
        <time>2011-04-10T07:04:43Z</time>
      </trkpt>
      <trkpt lat="46.90994" lon="-1.51656">
        <ele>58</ele>
        <time>2011-04-10T07:04:46Z</time>
      </trkpt>
      <trkpt lat="46.91" lon="-1.51668">
        <ele>58</ele>
        <time>2011-04-10T07:04:48Z</time>
      </trkpt>
      <trkpt lat="46.91023" lon="-1.51749">
        <ele>57</ele>
        <time>2011-04-10T07:04:58Z</time>
      </trkpt>
      <trkpt lat="46.91028" lon="-1.51794">
        <ele>57</ele>
        <time>2011-04-10T07:05:03Z</time>
      </trkpt>
      <trkpt lat="46.91029" lon="-1.5183">
        <ele>57</ele>
        <time>2011-04-10T07:05:07Z</time>
      </trkpt>
      <trkpt lat="46.91043" lon="-1.51871">
        <ele>57</ele>
        <time>2011-04-10T07:05:12Z</time>
      </trkpt>
      <trkpt lat="46.91088" lon="-1.51946">
        <ele>57</ele>
        <time>2011-04-10T07:05:23Z</time>
      </trkpt>
      <trkpt lat="46.91114" lon="-1.51997">
        <ele>57</ele>
        <time>2011-04-10T07:05:30Z</time>
      </trkpt>
      <trkpt lat="46.91119" lon="-1.52013">
        <ele>58</ele>
        <time>2011-04-10T07:05:32Z</time>
      </trkpt>
      <trkpt lat="46.91125" lon="-1.52063">
        <ele>58</ele>
        <time>2011-04-10T07:05:38Z</time>
      </trkpt>
      <trkpt lat="46.91137" lon="-1.52101">
        <ele>58</ele>
        <time>2011-04-10T07:05:43Z</time>
      </trkpt>
      <trkpt lat="46.91148" lon="-1.52109">
        <ele>58</ele>
        <time>2011-04-10T07:05:45Z</time>
      </trkpt>
      <trkpt lat="46.91165" lon="-1.52117">
        <ele>58</ele>
        <time>2011-04-10T07:05:48Z</time>
      </trkpt>
      <trkpt lat="46.91176" lon="-1.52125">
        <ele>57</ele>
        <time>2011-04-10T07:05:50Z</time>
      </trkpt>
      <trkpt lat="46.91194" lon="-1.52122">
        <ele>56</ele>
        <time>2011-04-10T07:05:54Z</time>
      </trkpt>
      <trkpt lat="46.91198" lon="-1.52116">
        <ele>56</ele>
        <time>2011-04-10T07:05:55Z</time>
      </trkpt>
      <trkpt lat="46.9121" lon="-1.52088">
        <ele>56</ele>
        <time>2011-04-10T07:05:59Z</time>
      </trkpt>
      <trkpt lat="46.91241" lon="-1.52055">
        <ele>55</ele>
        <time>2011-04-10T07:06:05Z</time>
      </trkpt>
      <trkpt lat="46.91253" lon="-1.5205">
        <ele>53</ele>
        <time>2011-04-10T07:06:07Z</time>
      </trkpt>
      <trkpt lat="46.9128" lon="-1.52048">
        <ele>53</ele>
        <time>2011-04-10T07:06:11Z</time>
      </trkpt>
      <trkpt lat="46.9133" lon="-1.52048">
        <ele>52</ele>
        <time>2011-04-10T07:06:18Z</time>
      </trkpt>
      <trkpt lat="46.91346" lon="-1.52048">
        <ele>50</ele>
        <time>2011-04-10T07:06:20Z</time>
      </trkpt>
      <trkpt lat="46.91393" lon="-1.52048">
        <ele>49</ele>
        <time>2011-04-10T07:06:26Z</time>
      </trkpt>
      <trkpt lat="46.91417" lon="-1.52061">
        <ele>46</ele>
        <time>2011-04-10T07:06:30Z</time>
      </trkpt>
      <trkpt lat="46.91438" lon="-1.52069">
        <ele>46</ele>
        <time>2011-04-10T07:06:34Z</time>
      </trkpt>
      <trkpt lat="46.91449" lon="-1.5207">
        <ele>46</ele>
        <time>2011-04-10T07:06:36Z</time>
      </trkpt>
      <trkpt lat="46.91475" lon="-1.52078">
        <ele>45</ele>
        <time>2011-04-10T07:06:41Z</time>
      </trkpt>
      <trkpt lat="46.91489" lon="-1.52076">
        <ele>45</ele>
        <time>2011-04-10T07:06:46Z</time>
      </trkpt>
      <trkpt lat="46.91491" lon="-1.52073">
        <ele>45</ele>
        <time>2011-04-10T07:06:50Z</time>
      </trkpt>
      <trkpt lat="46.91491" lon="-1.52072">
        <ele>45</ele>
        <time>2011-04-10T07:06:52Z</time>
      </trkpt>
      <trkpt lat="46.91494" lon="-1.5207">
        <ele>45</ele>
        <time>2011-04-10T07:08:52Z</time>
      </trkpt>
      <trkpt lat="46.91497" lon="-1.52068">
        <ele>44</ele>
        <time>2011-04-10T07:08:58Z</time>
      </trkpt>
      <trkpt lat="46.91498" lon="-1.52069">
        <ele>44</ele>
        <time>2011-04-10T07:08:59Z</time>
      </trkpt>
      <trkpt lat="46.91507" lon="-1.5208">
        <ele>44</ele>
        <time>2011-04-10T07:09:05Z</time>
      </trkpt>
      <trkpt lat="46.91521" lon="-1.52084">
        <ele>43</ele>
        <time>2011-04-10T07:09:09Z</time>
      </trkpt>
      <trkpt lat="46.91545" lon="-1.52085">
        <ele>43</ele>
        <time>2011-04-10T07:09:14Z</time>
      </trkpt>
      <trkpt lat="46.91556" lon="-1.5208">
        <ele>43</ele>
        <time>2011-04-10T07:09:16Z</time>
      </trkpt>
      <trkpt lat="46.91592" lon="-1.52058">
        <ele>44</ele>
        <time>2011-04-10T07:09:22Z</time>
      </trkpt>
      <trkpt lat="46.91612" lon="-1.52048">
        <ele>44</ele>
        <time>2011-04-10T07:09:26Z</time>
      </trkpt>
      <trkpt lat="46.91622" lon="-1.52052">
        <ele>45</ele>
        <time>2011-04-10T07:09:29Z</time>
      </trkpt>
      <trkpt lat="46.91624" lon="-1.52057">
        <ele>45</ele>
        <time>2011-04-10T07:09:30Z</time>
      </trkpt>
      <trkpt lat="46.9163" lon="-1.52069">
        <ele>45</ele>
        <time>2011-04-10T07:09:34Z</time>
      </trkpt>
      <trkpt lat="46.91633" lon="-1.52072">
        <ele>45</ele>
        <time>2011-04-10T07:09:36Z</time>
      </trkpt>
      <trkpt lat="46.91638" lon="-1.52079">
        <ele>45</ele>
        <time>2011-04-10T07:09:41Z</time>
      </trkpt>
      <trkpt lat="46.91638" lon="-1.52079">
        <ele>45</ele>
        <time>2011-04-10T07:09:44Z</time>
      </trkpt>
      <trkpt lat="46.91643" lon="-1.52084">
        <ele>46</ele>
        <time>2011-04-10T07:09:49Z</time>
      </trkpt>
      <trkpt lat="46.91644" lon="-1.52091">
        <ele>46</ele>
        <time>2011-04-10T07:09:55Z</time>
      </trkpt>
      <trkpt lat="46.91646" lon="-1.52099">
        <ele>46</ele>
        <time>2011-04-10T07:10:01Z</time>
      </trkpt>
      <trkpt lat="46.91646" lon="-1.521">
        <ele>46</ele>
        <time>2011-04-10T07:10:04Z</time>
      </trkpt>
      <trkpt lat="46.91647" lon="-1.52102">
        <ele>46</ele>
        <time>2011-04-10T07:10:05Z</time>
      </trkpt>
      <trkpt lat="46.9165" lon="-1.5211">
        <ele>46</ele>
        <time>2011-04-10T07:10:08Z</time>
      </trkpt>
      <trkpt lat="46.91651" lon="-1.52116">
        <ele>47</ele>
        <time>2011-04-10T07:10:11Z</time>
      </trkpt>
      <trkpt lat="46.91651" lon="-1.52119">
        <ele>47</ele>
        <time>2011-04-10T07:10:13Z</time>
      </trkpt>
      <trkpt lat="46.91641" lon="-1.52121">
        <ele>46</ele>
        <time>2011-04-10T07:10:18Z</time>
      </trkpt>
      <trkpt lat="46.91628" lon="-1.5212">
        <ele>46</ele>
        <time>2011-04-10T07:10:21Z</time>
      </trkpt>
      <trkpt lat="46.91604" lon="-1.52126">
        <ele>45</ele>
        <time>2011-04-10T07:10:26Z</time>
      </trkpt>
      <trkpt lat="46.91599" lon="-1.52141">
        <ele>44</ele>
        <time>2011-04-10T07:10:29Z</time>
      </trkpt>
      <trkpt lat="46.91598" lon="-1.52156">
        <ele>44</ele>
        <time>2011-04-10T07:10:33Z</time>
      </trkpt>
      <trkpt lat="46.91598" lon="-1.52158">
        <ele>44</ele>
        <time>2011-04-10T07:10:34Z</time>
      </trkpt>
      <trkpt lat="46.91594" lon="-1.52174">
        <ele>44</ele>
        <time>2011-04-10T07:10:40Z</time>
      </trkpt>
      <trkpt lat="46.91587" lon="-1.52195">
        <ele>46</ele>
        <time>2011-04-10T07:10:44Z</time>
      </trkpt>
      <trkpt lat="46.91574" lon="-1.52215">
        <ele>44</ele>
        <time>2011-04-10T07:10:49Z</time>
      </trkpt>
      <trkpt lat="46.91551" lon="-1.52239">
        <ele>44</ele>
        <time>2011-04-10T07:10:56Z</time>
      </trkpt>
      <trkpt lat="46.91549" lon="-1.52244">
        <ele>44</ele>
        <time>2011-04-10T07:10:57Z</time>
      </trkpt>
      <trkpt lat="46.91547" lon="-1.52273">
        <ele>45</ele>
        <time>2011-04-10T07:11:02Z</time>
      </trkpt>
      <trkpt lat="46.9155" lon="-1.52294">
        <ele>46</ele>
        <time>2011-04-10T07:11:06Z</time>
      </trkpt>
      <trkpt lat="46.91538" lon="-1.52308">
        <ele>46</ele>
        <time>2011-04-10T07:11:11Z</time>
      </trkpt>
      <trkpt lat="46.91519" lon="-1.52322">
        <ele>45</ele>
        <time>2011-04-10T07:11:17Z</time>
      </trkpt>
      <trkpt lat="46.91493" lon="-1.52344">
        <ele>45</ele>
        <time>2011-04-10T07:11:25Z</time>
      </trkpt>
      <trkpt lat="46.91477" lon="-1.5237">
        <ele>46</ele>
        <time>2011-04-10T07:11:31Z</time>
      </trkpt>
      <trkpt lat="46.9147" lon="-1.524">
        <ele>47</ele>
        <time>2011-04-10T07:11:37Z</time>
      </trkpt>
      <trkpt lat="46.91468" lon="-1.52419">
        <ele>49</ele>
        <time>2011-04-10T07:11:41Z</time>
      </trkpt>
      <trkpt lat="46.91469" lon="-1.52454">
        <ele>49</ele>
        <time>2011-04-10T07:11:49Z</time>
      </trkpt>
      <trkpt lat="46.91475" lon="-1.52487">
        <ele>50</ele>
        <time>2011-04-10T07:11:57Z</time>
      </trkpt>
      <trkpt lat="46.91485" lon="-1.52508">
        <ele>51</ele>
        <time>2011-04-10T07:12:03Z</time>
      </trkpt>
      <trkpt lat="46.91487" lon="-1.52512">
        <ele>51</ele>
        <time>2011-04-10T07:12:04Z</time>
      </trkpt>
      <trkpt lat="46.91492" lon="-1.52536">
        <ele>51</ele>
        <time>2011-04-10T07:12:10Z</time>
      </trkpt>
      <trkpt lat="46.91491" lon="-1.5258">
        <ele>52</ele>
        <time>2011-04-10T07:12:19Z</time>
      </trkpt>
      <trkpt lat="46.91495" lon="-1.52605">
        <ele>51</ele>
        <time>2011-04-10T07:12:24Z</time>
      </trkpt>
      <trkpt lat="46.91515" lon="-1.52638">
        <ele>54</ele>
        <time>2011-04-10T07:12:32Z</time>
      </trkpt>
      <trkpt lat="46.91547" lon="-1.52688">
        <ele>55</ele>
        <time>2011-04-10T07:12:44Z</time>
      </trkpt>
      <trkpt lat="46.91573" lon="-1.5273">
        <ele>56</ele>
        <time>2011-04-10T07:12:54Z</time>
      </trkpt>
      <trkpt lat="46.91595" lon="-1.52766">
        <ele>58</ele>
        <time>2011-04-10T07:13:02Z</time>
      </trkpt>
      <trkpt lat="46.91625" lon="-1.52814">
        <ele>58</ele>
        <time>2011-04-10T07:13:12Z</time>
      </trkpt>
      <trkpt lat="46.91663" lon="-1.52876">
        <ele>58</ele>
        <time>2011-04-10T07:13:24Z</time>
      </trkpt>
      <trkpt lat="46.917" lon="-1.52937">
        <ele>59</ele>
        <time>2011-04-10T07:13:35Z</time>
      </trkpt>
      <trkpt lat="46.91743" lon="-1.53003">
        <ele>59</ele>
        <time>2011-04-10T07:13:47Z</time>
      </trkpt>
      <trkpt lat="46.91766" lon="-1.53017">
        <ele>60</ele>
        <time>2011-04-10T07:13:52Z</time>
      </trkpt>
      <trkpt lat="46.91838" lon="-1.53021">
        <ele>62</ele>
        <time>2011-04-10T07:14:05Z</time>
      </trkpt>
      <trkpt lat="46.91893" lon="-1.53025">
        <ele>63</ele>
        <time>2011-04-10T07:14:15Z</time>
      </trkpt>
      <trkpt lat="46.91914" lon="-1.53027">
        <ele>64</ele>
        <time>2011-04-10T07:14:19Z</time>
      </trkpt>
      <trkpt lat="46.91935" lon="-1.53046">
        <ele>65</ele>
        <time>2011-04-10T07:14:24Z</time>
      </trkpt>
      <trkpt lat="46.91939" lon="-1.53069">
        <ele>65</ele>
        <time>2011-04-10T07:14:28Z</time>
      </trkpt>
      <trkpt lat="46.91933" lon="-1.53079">
        <ele>64</ele>
        <time>2011-04-10T07:14:30Z</time>
      </trkpt>
      <trkpt lat="46.91895" lon="-1.53117">
        <ele>63</ele>
        <time>2011-04-10T07:14:38Z</time>
      </trkpt>
      <trkpt lat="46.9185" lon="-1.53152">
        <ele>62</ele>
        <time>2011-04-10T07:14:46Z</time>
      </trkpt>
      <trkpt lat="46.91805" lon="-1.53173">
        <ele>60</ele>
        <time>2011-04-10T07:14:53Z</time>
      </trkpt>
      <trkpt lat="46.91741" lon="-1.53204">
        <ele>56</ele>
        <time>2011-04-10T07:15:02Z</time>
      </trkpt>
      <trkpt lat="46.91691" lon="-1.53227">
        <ele>55</ele>
        <time>2011-04-10T07:15:09Z</time>
      </trkpt>
      <trkpt lat="46.91676" lon="-1.53234">
        <ele>55</ele>
        <time>2011-04-10T07:15:11Z</time>
      </trkpt>
      <trkpt lat="46.91647" lon="-1.53247">
        <ele>55</ele>
        <time>2011-04-10T07:15:15Z</time>
      </trkpt>
      <trkpt lat="46.91633" lon="-1.53255">
        <ele>56</ele>
        <time>2011-04-10T07:15:17Z</time>
      </trkpt>
      <trkpt lat="46.91613" lon="-1.53254">
        <ele>56</ele>
        <time>2011-04-10T07:15:20Z</time>
      </trkpt>
      <trkpt lat="46.91609" lon="-1.53238">
        <ele>56</ele>
        <time>2011-04-10T07:15:22Z</time>
      </trkpt>
      <trkpt lat="46.91604" lon="-1.53175">
        <ele>56</ele>
        <time>2011-04-10T07:15:30Z</time>
      </trkpt>
      <trkpt lat="46.91599" lon="-1.53139">
        <ele>56</ele>
        <time>2011-04-10T07:15:36Z</time>
      </trkpt>
      <trkpt lat="46.91598" lon="-1.53136">
        <ele>56</ele>
        <time>2011-04-10T07:15:39Z</time>
      </trkpt>
      <trkpt lat="46.91598" lon="-1.53136">
        <ele>56</ele>
        <time>2011-04-10T07:15:42Z</time>
      </trkpt>
      <trkpt lat="46.91598" lon="-1.53135">
        <ele>56</ele>
        <time>2011-04-10T07:15:43Z</time>
      </trkpt>
      <trkpt lat="46.91598" lon="-1.53134">
        <ele>56</ele>
        <time>2011-04-10T07:15:46Z</time>
      </trkpt>
      <trkpt lat="46.91598" lon="-1.53133">
        <ele>56</ele>
        <time>2011-04-10T07:15:47Z</time>
      </trkpt>
      <trkpt lat="46.91598" lon="-1.53131">
        <ele>56</ele>
        <time>2011-04-10T07:15:48Z</time>
      </trkpt>
      <trkpt lat="46.91593" lon="-1.53114">
        <ele>56</ele>
        <time>2011-04-10T07:15:52Z</time>
      </trkpt>
      <trkpt lat="46.91579" lon="-1.53087">
        <ele>58</ele>
        <time>2011-04-10T07:15:58Z</time>
      </trkpt>
      <trkpt lat="46.91562" lon="-1.53071">
        <ele>58</ele>
        <time>2011-04-10T07:16:03Z</time>
      </trkpt>
      <trkpt lat="46.91553" lon="-1.53074">
        <ele>58</ele>
        <time>2011-04-10T07:16:05Z</time>
      </trkpt>
      <trkpt lat="46.91543" lon="-1.53081">
        <ele>58</ele>
        <time>2011-04-10T07:16:08Z</time>
      </trkpt>
      <trkpt lat="46.91527" lon="-1.53095">
        <ele>60</ele>
        <time>2011-04-10T07:16:13Z</time>
      </trkpt>
      <trkpt lat="46.91515" lon="-1.5309">
        <ele>60</ele>
        <time>2011-04-10T07:16:17Z</time>
      </trkpt>
      <trkpt lat="46.91491" lon="-1.53062">
        <ele>60</ele>
        <time>2011-04-10T07:16:24Z</time>
      </trkpt>
      <trkpt lat="46.91466" lon="-1.53035">
        <ele>60</ele>
        <time>2011-04-10T07:16:31Z</time>
      </trkpt>
      <trkpt lat="46.91438" lon="-1.53">
        <ele>59</ele>
        <time>2011-04-10T07:16:39Z</time>
      </trkpt>
      <trkpt lat="46.91434" lon="-1.52996">
        <ele>58</ele>
        <time>2011-04-10T07:16:40Z</time>
      </trkpt>
      <trkpt lat="46.91414" lon="-1.52964">
        <ele>57</ele>
        <time>2011-04-10T07:16:46Z</time>
      </trkpt>
      <trkpt lat="46.91399" lon="-1.52932">
        <ele>57</ele>
        <time>2011-04-10T07:16:51Z</time>
      </trkpt>
      <trkpt lat="46.91372" lon="-1.5289">
        <ele>53</ele>
        <time>2011-04-10T07:16:58Z</time>
      </trkpt>
      <trkpt lat="46.91348" lon="-1.52854">
        <ele>52</ele>
        <time>2011-04-10T07:17:04Z</time>
      </trkpt>
      <trkpt lat="46.91346" lon="-1.52852">
        <ele>51</ele>
        <time>2011-04-10T07:17:05Z</time>
      </trkpt>
      <trkpt lat="46.91338" lon="-1.52858">
        <ele>52</ele>
        <time>2011-04-10T07:17:09Z</time>
      </trkpt>
      <trkpt lat="46.91323" lon="-1.52866">
        <ele>51</ele>
        <time>2011-04-10T07:17:14Z</time>
      </trkpt>
      <trkpt lat="46.91309" lon="-1.52875">
        <ele>52</ele>
        <time>2011-04-10T07:17:19Z</time>
      </trkpt>
      <trkpt lat="46.91303" lon="-1.52878">
        <ele>52</ele>
        <time>2011-04-10T07:17:21Z</time>
      </trkpt>
      <trkpt lat="46.91303" lon="-1.52892">
        <ele>52</ele>
        <time>2011-04-10T07:17:24Z</time>
      </trkpt>
      <trkpt lat="46.91311" lon="-1.52911">
        <ele>53</ele>
        <time>2011-04-10T07:17:29Z</time>
      </trkpt>
      <trkpt lat="46.91318" lon="-1.52929">
        <ele>55</ele>
        <time>2011-04-10T07:17:33Z</time>
      </trkpt>
      <trkpt lat="46.9132" lon="-1.52933">
        <ele>55</ele>
        <time>2011-04-10T07:17:34Z</time>
      </trkpt>
      <trkpt lat="46.91324" lon="-1.5294">
        <ele>55</ele>
        <time>2011-04-10T07:17:36Z</time>
      </trkpt>
      <trkpt lat="46.91336" lon="-1.52963">
        <ele>57</ele>
        <time>2011-04-10T07:17:42Z</time>
      </trkpt>
      <trkpt lat="46.91352" lon="-1.52992">
        <ele>58</ele>
        <time>2011-04-10T07:17:49Z</time>
      </trkpt>
      <trkpt lat="46.91366" lon="-1.53016">
        <ele>59</ele>
        <time>2011-04-10T07:17:55Z</time>
      </trkpt>
      <trkpt lat="46.91379" lon="-1.53035">
        <ele>59</ele>
        <time>2011-04-10T07:18:00Z</time>
      </trkpt>
      <trkpt lat="46.91388" lon="-1.53057">
        <ele>60</ele>
        <time>2011-04-10T07:18:05Z</time>
      </trkpt>
      <trkpt lat="46.91402" lon="-1.53083">
        <ele>60</ele>
        <time>2011-04-10T07:18:11Z</time>
      </trkpt>
      <trkpt lat="46.91425" lon="-1.53121">
        <ele>61</ele>
        <time>2011-04-10T07:18:20Z</time>
      </trkpt>
      <trkpt lat="46.91439" lon="-1.53145">
        <ele>61</ele>
        <time>2011-04-10T07:18:26Z</time>
      </trkpt>
      <trkpt lat="46.91454" lon="-1.53171">
        <ele>61</ele>
        <time>2011-04-10T07:18:33Z</time>
      </trkpt>
      <trkpt lat="46.91451" lon="-1.53189">
        <ele>61</ele>
        <time>2011-04-10T07:18:37Z</time>
      </trkpt>
      <trkpt lat="46.91442" lon="-1.53209">
        <ele>61</ele>
        <time>2011-04-10T07:18:42Z</time>
      </trkpt>
      <trkpt lat="46.91426" lon="-1.53225">
        <ele>61</ele>
        <time>2011-04-10T07:18:47Z</time>
      </trkpt>
      <trkpt lat="46.91417" lon="-1.53237">
        <ele>61</ele>
        <time>2011-04-10T07:18:50Z</time>
      </trkpt>
      <trkpt lat="46.91411" lon="-1.53264">
        <ele>60</ele>
        <time>2011-04-10T07:18:55Z</time>
      </trkpt>
      <trkpt lat="46.91424" lon="-1.53278">
        <ele>62</ele>
        <time>2011-04-10T07:18:59Z</time>
      </trkpt>
      <trkpt lat="46.9143" lon="-1.53288">
        <ele>62</ele>
        <time>2011-04-10T07:19:01Z</time>
      </trkpt>
      <trkpt lat="46.91437" lon="-1.53309">
        <ele>62</ele>
        <time>2011-04-10T07:19:05Z</time>
      </trkpt>
      <trkpt lat="46.91445" lon="-1.53345">
        <ele>62</ele>
        <time>2011-04-10T07:19:11Z</time>
      </trkpt>
      <trkpt lat="46.91452" lon="-1.53369">
        <ele>62</ele>
        <time>2011-04-10T07:19:15Z</time>
      </trkpt>
      <trkpt lat="46.91458" lon="-1.53391">
        <ele>62</ele>
        <time>2011-04-10T07:19:19Z</time>
      </trkpt>
      <trkpt lat="46.91462" lon="-1.53431">
        <ele>62</ele>
        <time>2011-04-10T07:19:26Z</time>
      </trkpt>
      <trkpt lat="46.91464" lon="-1.53465">
        <ele>62</ele>
        <time>2011-04-10T07:19:32Z</time>
      </trkpt>
      <trkpt lat="46.91466" lon="-1.53492">
        <ele>62</ele>
        <time>2011-04-10T07:19:37Z</time>
      </trkpt>
      <trkpt lat="46.91466" lon="-1.53514">
        <ele>62</ele>
        <time>2011-04-10T07:19:41Z</time>
      </trkpt>
      <trkpt lat="46.91474" lon="-1.53554">
        <ele>62</ele>
        <time>2011-04-10T07:19:48Z</time>
      </trkpt>
      <trkpt lat="46.91475" lon="-1.5356">
        <ele>62</ele>
        <time>2011-04-10T07:19:49Z</time>
      </trkpt>
      <trkpt lat="46.91484" lon="-1.53608">
        <ele>62</ele>
        <time>2011-04-10T07:19:57Z</time>
      </trkpt>
      <trkpt lat="46.91487" lon="-1.5362">
        <ele>62</ele>
        <time>2011-04-10T07:19:59Z</time>
      </trkpt>
      <trkpt lat="46.91495" lon="-1.53661">
        <ele>64</ele>
        <time>2011-04-10T07:20:06Z</time>
      </trkpt>
      <trkpt lat="46.91497" lon="-1.53667">
        <ele>65</ele>
        <time>2011-04-10T07:20:07Z</time>
      </trkpt>
      <trkpt lat="46.915" lon="-1.53679">
        <ele>64</ele>
        <time>2011-04-10T07:20:09Z</time>
      </trkpt>
      <trkpt lat="46.91516" lon="-1.53715">
        <ele>64</ele>
        <time>2011-04-10T07:20:16Z</time>
      </trkpt>
      <trkpt lat="46.91527" lon="-1.53732">
        <ele>64</ele>
        <time>2011-04-10T07:20:20Z</time>
      </trkpt>
      <trkpt lat="46.91554" lon="-1.53762">
        <ele>64</ele>
        <time>2011-04-10T07:20:28Z</time>
      </trkpt>
      <trkpt lat="46.91589" lon="-1.53802">
        <ele>63</ele>
        <time>2011-04-10T07:20:38Z</time>
      </trkpt>
      <trkpt lat="46.91605" lon="-1.53823">
        <ele>63</ele>
        <time>2011-04-10T07:20:43Z</time>
      </trkpt>
      <trkpt lat="46.91623" lon="-1.53845">
        <ele>62</ele>
        <time>2011-04-10T07:20:49Z</time>
      </trkpt>
      <trkpt lat="46.91635" lon="-1.53849">
        <ele>62</ele>
        <time>2011-04-10T07:20:52Z</time>
      </trkpt>
      <trkpt lat="46.91639" lon="-1.53845">
        <ele>61</ele>
        <time>2011-04-10T07:20:53Z</time>
      </trkpt>
      <trkpt lat="46.91678" lon="-1.53797">
        <ele>60</ele>
        <time>2011-04-10T07:21:02Z</time>
      </trkpt>
      <trkpt lat="46.91718" lon="-1.53745">
        <ele>60</ele>
        <time>2011-04-10T07:21:11Z</time>
      </trkpt>
      <trkpt lat="46.91749" lon="-1.53704">
        <ele>59</ele>
        <time>2011-04-10T07:21:18Z</time>
      </trkpt>
      <trkpt lat="46.9178" lon="-1.5366">
        <ele>59</ele>
        <time>2011-04-10T07:21:25Z</time>
      </trkpt>
      <trkpt lat="46.91804" lon="-1.53627">
        <ele>59</ele>
        <time>2011-04-10T07:21:30Z</time>
      </trkpt>
      <trkpt lat="46.91844" lon="-1.53565">
        <ele>58</ele>
        <time>2011-04-10T07:21:39Z</time>
      </trkpt>
      <trkpt lat="46.91851" lon="-1.5355">
        <ele>59</ele>
        <time>2011-04-10T07:21:41Z</time>
      </trkpt>
      <trkpt lat="46.9187" lon="-1.53483">
        <ele>59</ele>
        <time>2011-04-10T07:21:49Z</time>
      </trkpt>
      <trkpt lat="46.91892" lon="-1.53394">
        <ele>61</ele>
        <time>2011-04-10T07:22:00Z</time>
      </trkpt>
      <trkpt lat="46.91912" lon="-1.53324">
        <ele>63</ele>
        <time>2011-04-10T07:22:09Z</time>
      </trkpt>
      <trkpt lat="46.91935" lon="-1.53287">
        <ele>64</ele>
        <time>2011-04-10T07:22:15Z</time>
      </trkpt>
      <trkpt lat="46.91974" lon="-1.53241">
        <ele>64</ele>
        <time>2011-04-10T07:22:24Z</time>
      </trkpt>
      <trkpt lat="46.91987" lon="-1.53229">
        <ele>64</ele>
        <time>2011-04-10T07:22:27Z</time>
      </trkpt>
      <trkpt lat="46.91995" lon="-1.5321">
        <ele>64</ele>
        <time>2011-04-10T07:22:30Z</time>
      </trkpt>
      <trkpt lat="46.91994" lon="-1.53202">
        <ele>64</ele>
        <time>2011-04-10T07:22:31Z</time>
      </trkpt>
      <trkpt lat="46.91975" lon="-1.5312">
        <ele>64</ele>
        <time>2011-04-10T07:22:41Z</time>
      </trkpt>
      <trkpt lat="46.91958" lon="-1.53081">
        <ele>65</ele>
        <time>2011-04-10T07:22:46Z</time>
      </trkpt>
      <trkpt lat="46.91954" lon="-1.53073">
        <ele>65</ele>
        <time>2011-04-10T07:22:47Z</time>
      </trkpt>
      <trkpt lat="46.91948" lon="-1.53039">
        <ele>65</ele>
        <time>2011-04-10T07:22:51Z</time>
      </trkpt>
      <trkpt lat="46.9196" lon="-1.52925">
        <ele>66</ele>
        <time>2011-04-10T07:23:03Z</time>
      </trkpt>
      <trkpt lat="46.91974" lon="-1.52847">
        <ele>67</ele>
        <time>2011-04-10T07:23:11Z</time>
      </trkpt>
      <trkpt lat="46.9199" lon="-1.52765">
        <ele>68</ele>
        <time>2011-04-10T07:23:19Z</time>
      </trkpt>
      <trkpt lat="46.91992" lon="-1.52682">
        <ele>67</ele>
        <time>2011-04-10T07:23:27Z</time>
      </trkpt>
      <trkpt lat="46.91993" lon="-1.52572">
        <ele>66</ele>
        <time>2011-04-10T07:23:38Z</time>
      </trkpt>
      <trkpt lat="46.91994" lon="-1.52462">
        <ele>65</ele>
        <time>2011-04-10T07:23:49Z</time>
      </trkpt>
      <trkpt lat="46.91987" lon="-1.52389">
        <ele>65</ele>
        <time>2011-04-10T07:23:56Z</time>
      </trkpt>
      <trkpt lat="46.91975" lon="-1.52293">
        <ele>64</ele>
        <time>2011-04-10T07:24:05Z</time>
      </trkpt>
      <trkpt lat="46.91965" lon="-1.52206">
        <ele>65</ele>
        <time>2011-04-10T07:24:14Z</time>
      </trkpt>
      <trkpt lat="46.91967" lon="-1.52142">
        <ele>64</ele>
        <time>2011-04-10T07:24:20Z</time>
      </trkpt>
      <trkpt lat="46.91972" lon="-1.52052">
        <ele>63</ele>
        <time>2011-04-10T07:24:28Z</time>
      </trkpt>
      <trkpt lat="46.91979" lon="-1.51931">
        <ele>62</ele>
        <time>2011-04-10T07:24:38Z</time>
      </trkpt>
      <trkpt lat="46.91978" lon="-1.51844">
        <ele>61</ele>
        <time>2011-04-10T07:24:44Z</time>
      </trkpt>
      <trkpt lat="46.91974" lon="-1.51681">
        <ele>59</ele>
        <time>2011-04-10T07:24:55Z</time>
      </trkpt>
      <trkpt lat="46.91967" lon="-1.51562">
        <ele>58</ele>
        <time>2011-04-10T07:25:03Z</time>
      </trkpt>
      <trkpt lat="46.91953" lon="-1.51444">
        <ele>55</ele>
        <time>2011-04-10T07:25:11Z</time>
      </trkpt>
      <trkpt lat="46.91934" lon="-1.51329">
        <ele>53</ele>
        <time>2011-04-10T07:25:19Z</time>
      </trkpt>
      <trkpt lat="46.91918" lon="-1.5124">
        <ele>52</ele>
        <time>2011-04-10T07:25:26Z</time>
      </trkpt>
      <trkpt lat="46.91909" lon="-1.51164">
        <ele>50</ele>
        <time>2011-04-10T07:25:32Z</time>
      </trkpt>
      <trkpt lat="46.91913" lon="-1.51072">
        <ele>50</ele>
        <time>2011-04-10T07:25:39Z</time>
      </trkpt>
      <trkpt lat="46.91914" lon="-1.51059">
        <ele>50</ele>
        <time>2011-04-10T07:25:40Z</time>
      </trkpt>
      <trkpt lat="46.91931" lon="-1.51013">
        <ele>50</ele>
        <time>2011-04-10T07:25:44Z</time>
      </trkpt>
      <trkpt lat="46.91937" lon="-1.51004">
        <ele>50</ele>
        <time>2011-04-10T07:25:45Z</time>
      </trkpt>
      <trkpt lat="46.92021" lon="-1.50887">
        <ele>48</ele>
        <time>2011-04-10T07:25:58Z</time>
      </trkpt>
      <trkpt lat="46.92092" lon="-1.50789">
        <ele>44</ele>
        <time>2011-04-10T07:26:09Z</time>
      </trkpt>
      <trkpt lat="46.92142" lon="-1.50716">
        <ele>43</ele>
        <time>2011-04-10T07:26:17Z</time>
      </trkpt>
      <trkpt lat="46.92171" lon="-1.50652">
        <ele>41</ele>
        <time>2011-04-10T07:26:23Z</time>
      </trkpt>
      <trkpt lat="46.92201" lon="-1.50579">
        <ele>38</ele>
        <time>2011-04-10T07:26:30Z</time>
      </trkpt>
      <trkpt lat="46.92204" lon="-1.50571">
        <ele>38</ele>
        <time>2011-04-10T07:26:31Z</time>
      </trkpt>
      <trkpt lat="46.92224" lon="-1.50549">
        <ele>38</ele>
        <time>2011-04-10T07:26:35Z</time>
      </trkpt>
      <trkpt lat="46.9223" lon="-1.50545">
        <ele>38</ele>
        <time>2011-04-10T07:26:36Z</time>
      </trkpt>
      <trkpt lat="46.92258" lon="-1.50542">
        <ele>38</ele>
        <time>2011-04-10T07:26:40Z</time>
      </trkpt>
      <trkpt lat="46.92279" lon="-1.50547">
        <ele>38</ele>
        <time>2011-04-10T07:26:43Z</time>
      </trkpt>
      <trkpt lat="46.92294" lon="-1.50541">
        <ele>38</ele>
        <time>2011-04-10T07:26:47Z</time>
      </trkpt>
      <trkpt lat="46.92302" lon="-1.50544">
        <ele>38</ele>
        <time>2011-04-10T07:26:52Z</time>
      </trkpt>
      <trkpt lat="46.92307" lon="-1.50548">
        <ele>38</ele>
        <time>2011-04-10T07:26:55Z</time>
      </trkpt>
      <trkpt lat="46.92312" lon="-1.5055">
        <ele>38</ele>
        <time>2011-04-10T07:26:57Z</time>
      </trkpt>
      <trkpt lat="46.92324" lon="-1.50557">
        <ele>38</ele>
        <time>2011-04-10T07:27:02Z</time>
      </trkpt>
      <trkpt lat="46.92327" lon="-1.50559">
        <ele>38</ele>
        <time>2011-04-10T07:27:04Z</time>
      </trkpt>
      <trkpt lat="46.9233" lon="-1.50557">
        <ele>38</ele>
        <time>2011-04-10T07:27:08Z</time>
      </trkpt>
      <trkpt lat="46.92331" lon="-1.50557">
        <ele>38</ele>
        <time>2011-04-10T07:27:09Z</time>
      </trkpt>
      <trkpt lat="46.92331" lon="-1.50556">
        <ele>38</ele>
        <time>2011-04-10T07:27:12Z</time>
      </trkpt>
      <trkpt lat="46.92331" lon="-1.50553">
        <ele>38</ele>
        <time>2011-04-10T07:27:14Z</time>
      </trkpt>
      <trkpt lat="46.92333" lon="-1.50546">
        <ele>36</ele>
        <time>2011-04-10T07:27:19Z</time>
      </trkpt>
      <trkpt lat="46.92334" lon="-1.5054">
        <ele>36</ele>
        <time>2011-04-10T07:27:22Z</time>
      </trkpt>
      <trkpt lat="46.92333" lon="-1.5054">
        <ele>38</ele>
        <time>2011-04-10T07:27:25Z</time>
      </trkpt>
      <trkpt lat="46.92332" lon="-1.50537">
        <ele>38</ele>
        <time>2011-04-10T07:27:28Z</time>
      </trkpt>
      <trkpt lat="46.92333" lon="-1.50533">
        <ele>37</ele>
        <time>2011-04-10T07:27:32Z</time>
      </trkpt>
      <trkpt lat="46.92333" lon="-1.50532">
        <ele>37</ele>
        <time>2011-04-10T07:27:35Z</time>
      </trkpt>
      <trkpt lat="46.92333" lon="-1.50531">
        <ele>37</ele>
        <time>2011-04-10T07:27:36Z</time>
      </trkpt>
      <trkpt lat="46.92341" lon="-1.50529">
        <ele>36</ele>
        <time>2011-04-10T07:27:39Z</time>
      </trkpt>
      <trkpt lat="46.92342" lon="-1.5052">
        <ele>36</ele>
        <time>2011-04-10T07:27:43Z</time>
      </trkpt>
      <trkpt lat="46.92346" lon="-1.50508">
        <ele>36</ele>
        <time>2011-04-10T07:27:47Z</time>
      </trkpt>
      <trkpt lat="46.92347" lon="-1.50503">
        <ele>36</ele>
        <time>2011-04-10T07:27:48Z</time>
      </trkpt>
      <trkpt lat="46.92355" lon="-1.50461">
        <ele>34</ele>
        <time>2011-04-10T07:27:55Z</time>
      </trkpt>
      <trkpt lat="46.92358" lon="-1.50441">
        <ele>34</ele>
        <time>2011-04-10T07:27:58Z</time>
      </trkpt>
      <trkpt lat="46.9237" lon="-1.50416">
        <ele>33</ele>
        <time>2011-04-10T07:28:03Z</time>
      </trkpt>
      <trkpt lat="46.92373" lon="-1.5041">
        <ele>33</ele>
        <time>2011-04-10T07:28:04Z</time>
      </trkpt>
      <trkpt lat="46.92383" lon="-1.50361">
        <ele>33</ele>
        <time>2011-04-10T07:28:11Z</time>
      </trkpt>
      <trkpt lat="46.92389" lon="-1.50294">
        <ele>33</ele>
        <time>2011-04-10T07:28:19Z</time>
      </trkpt>
      <trkpt lat="46.924" lon="-1.50246">
        <ele>32</ele>
        <time>2011-04-10T07:28:25Z</time>
      </trkpt>
      <trkpt lat="46.92404" lon="-1.50232">
        <ele>32</ele>
        <time>2011-04-10T07:28:27Z</time>
      </trkpt>
      <trkpt lat="46.92409" lon="-1.50212">
        <ele>31</ele>
        <time>2011-04-10T07:28:30Z</time>
      </trkpt>
      <trkpt lat="46.92419" lon="-1.50211">
        <ele>33</ele>
        <time>2011-04-10T07:28:34Z</time>
      </trkpt>
      <trkpt lat="46.92429" lon="-1.5022">
        <ele>34</ele>
        <time>2011-04-10T07:28:37Z</time>
      </trkpt>
      <trkpt lat="46.92441" lon="-1.50215">
        <ele>34</ele>
        <time>2011-04-10T07:28:41Z</time>
      </trkpt>
      <trkpt lat="46.92445" lon="-1.5021">
        <ele>34</ele>
        <time>2011-04-10T07:28:42Z</time>
      </trkpt>
      <trkpt lat="46.92451" lon="-1.50199">
        <ele>34</ele>
        <time>2011-04-10T07:28:44Z</time>
      </trkpt>
      <trkpt lat="46.92471" lon="-1.50175">
        <ele>33</ele>
        <time>2011-04-10T07:28:49Z</time>
      </trkpt>
      <trkpt lat="46.92489" lon="-1.50168">
        <ele>33</ele>
        <time>2011-04-10T07:28:53Z</time>
      </trkpt>
      <trkpt lat="46.92529" lon="-1.50162">
        <ele>32</ele>
        <time>2011-04-10T07:29:00Z</time>
      </trkpt>
      <trkpt lat="46.92564" lon="-1.50154">
        <ele>32</ele>
        <time>2011-04-10T07:29:06Z</time>
      </trkpt>
      <trkpt lat="46.92575" lon="-1.50152">
        <ele>33</ele>
        <time>2011-04-10T07:29:08Z</time>
      </trkpt>
      <trkpt lat="46.92619" lon="-1.50152">
        <ele>33</ele>
        <time>2011-04-10T07:29:16Z</time>
      </trkpt>
      <trkpt lat="46.92652" lon="-1.50153">
        <ele>33</ele>
        <time>2011-04-10T07:29:22Z</time>
      </trkpt>
      <trkpt lat="46.92684" lon="-1.50156">
        <ele>32</ele>
        <time>2011-04-10T07:29:27Z</time>
      </trkpt>
      <trkpt lat="46.92716" lon="-1.50157">
        <ele>31</ele>
        <time>2011-04-10T07:29:32Z</time>
      </trkpt>
      <trkpt lat="46.92739" lon="-1.50174">
        <ele>33</ele>
        <time>2011-04-10T07:29:37Z</time>
      </trkpt>
      <trkpt lat="46.92745" lon="-1.50192">
        <ele>34</ele>
        <time>2011-04-10T07:29:40Z</time>
      </trkpt>
      <trkpt lat="46.92753" lon="-1.50225">
        <ele>33</ele>
        <time>2011-04-10T07:29:46Z</time>
      </trkpt>
      <trkpt lat="46.92759" lon="-1.50246">
        <ele>35</ele>
        <time>2011-04-10T07:29:50Z</time>
      </trkpt>
      <trkpt lat="46.92764" lon="-1.50266">
        <ele>34</ele>
        <time>2011-04-10T07:29:54Z</time>
      </trkpt>
      <trkpt lat="46.92772" lon="-1.503">
        <ele>34</ele>
        <time>2011-04-10T07:30:00Z</time>
      </trkpt>
      <trkpt lat="46.92778" lon="-1.50324">
        <ele>35</ele>
        <time>2011-04-10T07:30:04Z</time>
      </trkpt>
      <trkpt lat="46.92782" lon="-1.50337">
        <ele>36</ele>
        <time>2011-04-10T07:30:06Z</time>
      </trkpt>
      <trkpt lat="46.92791" lon="-1.50372">
        <ele>35</ele>
        <time>2011-04-10T07:30:12Z</time>
      </trkpt>
      <trkpt lat="46.92794" lon="-1.50383">
        <ele>35</ele>
        <time>2011-04-10T07:30:14Z</time>
      </trkpt>
      <trkpt lat="46.92799" lon="-1.50406">
        <ele>35</ele>
        <time>2011-04-10T07:30:18Z</time>
      </trkpt>
      <trkpt lat="46.92807" lon="-1.50438">
        <ele>37</ele>
        <time>2011-04-10T07:30:24Z</time>
      </trkpt>
      <trkpt lat="46.92809" lon="-1.50444">
        <ele>37</ele>
        <time>2011-04-10T07:30:27Z</time>
      </trkpt>
      <trkpt lat="46.92814" lon="-1.50452">
        <ele>38</ele>
        <time>2011-04-10T07:30:35Z</time>
      </trkpt>
      <trkpt lat="46.92814" lon="-1.50455">
        <ele>38</ele>
        <time>2011-04-10T07:30:38Z</time>
      </trkpt>
      <trkpt lat="46.92815" lon="-1.50455">
        <ele>38</ele>
        <time>2011-04-10T07:30:41Z</time>
      </trkpt>
      <trkpt lat="46.92815" lon="-1.50457">
        <ele>38</ele>
        <time>2011-04-10T07:30:42Z</time>
      </trkpt>
      <trkpt lat="46.92814" lon="-1.50457">
        <ele>38</ele>
        <time>2011-04-10T07:30:43Z</time>
      </trkpt>
      <trkpt lat="46.92809" lon="-1.50457">
        <ele>38</ele>
        <time>2011-04-10T07:30:47Z</time>
      </trkpt>
      <trkpt lat="46.92807" lon="-1.50464">
        <ele>39</ele>
        <time>2011-04-10T07:30:51Z</time>
      </trkpt>
      <trkpt lat="46.92808" lon="-1.50476">
        <ele>39</ele>
        <time>2011-04-10T07:30:55Z</time>
      </trkpt>
      <trkpt lat="46.92808" lon="-1.5048">
        <ele>39</ele>
        <time>2011-04-10T07:30:57Z</time>
      </trkpt>
      <trkpt lat="46.92808" lon="-1.50485">
        <ele>39</ele>
        <time>2011-04-10T07:31:00Z</time>
      </trkpt>
      <trkpt lat="46.92807" lon="-1.50489">
        <ele>39</ele>
        <time>2011-04-10T07:31:04Z</time>
      </trkpt>
      <trkpt lat="46.92807" lon="-1.50489">
        <ele>39</ele>
        <time>2011-04-10T07:31:07Z</time>
      </trkpt>
      <trkpt lat="46.92804" lon="-1.50489">
        <ele>39</ele>
        <time>2011-04-10T07:31:11Z</time>
      </trkpt>
      <trkpt lat="46.92804" lon="-1.50489">
        <ele>39</ele>
        <time>2011-04-10T07:31:13Z</time>
      </trkpt>
      <trkpt lat="46.92804" lon="-1.5049">
        <ele>39</ele>
        <time>2011-04-10T07:31:17Z</time>
      </trkpt>
      <trkpt lat="46.92801" lon="-1.50487">
        <ele>40</ele>
        <time>2011-04-10T07:31:22Z</time>
      </trkpt>
      <trkpt lat="46.928" lon="-1.5049">
        <ele>40</ele>
        <time>2011-04-10T07:31:25Z</time>
      </trkpt>
      <trkpt lat="46.928" lon="-1.50498">
        <ele>40</ele>
        <time>2011-04-10T07:31:30Z</time>
      </trkpt>
      <trkpt lat="46.928" lon="-1.50508">
        <ele>43</ele>
        <time>2011-04-10T07:31:36Z</time>
      </trkpt>
      <trkpt lat="46.92801" lon="-1.50518">
        <ele>43</ele>
        <time>2011-04-10T07:31:42Z</time>
      </trkpt>
      <trkpt lat="46.92801" lon="-1.50525">
        <ele>44</ele>
        <time>2011-04-10T07:31:45Z</time>
      </trkpt>
      <trkpt lat="46.92803" lon="-1.50534">
        <ele>44</ele>
        <time>2011-04-10T07:31:49Z</time>
      </trkpt>
      <trkpt lat="46.92809" lon="-1.50548">
        <ele>44</ele>
        <time>2011-04-10T07:31:56Z</time>
      </trkpt>
      <trkpt lat="46.92815" lon="-1.5056">
        <ele>45</ele>
        <time>2011-04-10T07:32:02Z</time>
      </trkpt>
      <trkpt lat="46.92818" lon="-1.50566">
        <ele>45</ele>
        <time>2011-04-10T07:32:05Z</time>
      </trkpt>
      <trkpt lat="46.9282" lon="-1.5057">
        <ele>45</ele>
        <time>2011-04-10T07:32:07Z</time>
      </trkpt>
      <trkpt lat="46.92829" lon="-1.50587">
        <ele>45</ele>
        <time>2011-04-10T07:32:13Z</time>
      </trkpt>
      <trkpt lat="46.92834" lon="-1.50594">
        <ele>43</ele>
        <time>2011-04-10T07:32:15Z</time>
      </trkpt>
      <trkpt lat="46.92845" lon="-1.50609">
        <ele>43</ele>
        <time>2011-04-10T07:32:21Z</time>
      </trkpt>
      <trkpt lat="46.92856" lon="-1.50624">
        <ele>43</ele>
        <time>2011-04-10T07:32:26Z</time>
      </trkpt>
      <trkpt lat="46.92868" lon="-1.50641">
        <ele>43</ele>
        <time>2011-04-10T07:32:32Z</time>
      </trkpt>
      <trkpt lat="46.92881" lon="-1.50657">
        <ele>43</ele>
        <time>2011-04-10T07:32:39Z</time>
      </trkpt>
      <trkpt lat="46.92889" lon="-1.50668">
        <ele>47</ele>
        <time>2011-04-10T07:32:43Z</time>
      </trkpt>
      <trkpt lat="46.929" lon="-1.50677">
        <ele>46</ele>
        <time>2011-04-10T07:32:48Z</time>
      </trkpt>
      <trkpt lat="46.92909" lon="-1.50685">
        <ele>46</ele>
        <time>2011-04-10T07:32:53Z</time>
      </trkpt>
      <trkpt lat="46.9291" lon="-1.50685">
        <ele>46</ele>
        <time>2011-04-10T07:32:54Z</time>
      </trkpt>
      <trkpt lat="46.92919" lon="-1.50686">
        <ele>43</ele>
        <time>2011-04-10T07:32:59Z</time>
      </trkpt>
      <trkpt lat="46.92923" lon="-1.50692">
        <ele>43</ele>
        <time>2011-04-10T07:33:06Z</time>
      </trkpt>
      <trkpt lat="46.92924" lon="-1.50692">
        <ele>43</ele>
        <time>2011-04-10T07:33:08Z</time>
      </trkpt>
      <trkpt lat="46.92926" lon="-1.50692">
        <ele>43</ele>
        <time>2011-04-10T07:33:11Z</time>
      </trkpt>
      <trkpt lat="46.92926" lon="-1.50692">
        <ele>43</ele>
        <time>2011-04-10T07:33:12Z</time>
      </trkpt>
      <trkpt lat="46.92931" lon="-1.50696">
        <ele>43</ele>
        <time>2011-04-10T07:33:15Z</time>
      </trkpt>
      <trkpt lat="46.9294" lon="-1.50698">
        <ele>43</ele>
        <time>2011-04-10T07:33:20Z</time>
      </trkpt>
      <trkpt lat="46.9295" lon="-1.50701">
        <ele>42</ele>
        <time>2011-04-10T07:33:24Z</time>
      </trkpt>
      <trkpt lat="46.92962" lon="-1.50708">
        <ele>42</ele>
        <time>2011-04-10T07:33:30Z</time>
      </trkpt>
      <trkpt lat="46.92971" lon="-1.50714">
        <ele>42</ele>
        <time>2011-04-10T07:33:36Z</time>
      </trkpt>
      <trkpt lat="46.92982" lon="-1.50718">
        <ele>42</ele>
        <time>2011-04-10T07:33:40Z</time>
      </trkpt>
      <trkpt lat="46.92991" lon="-1.50724">
        <ele>42</ele>
        <time>2011-04-10T07:33:45Z</time>
      </trkpt>
      <trkpt lat="46.92997" lon="-1.50725">
        <ele>42</ele>
        <time>2011-04-10T07:33:51Z</time>
      </trkpt>
      <trkpt lat="46.92998" lon="-1.50725">
        <ele>42</ele>
        <time>2011-04-10T07:33:54Z</time>
      </trkpt>
      <trkpt lat="46.92999" lon="-1.50725">
        <ele>42</ele>
        <time>2011-04-10T07:33:57Z</time>
      </trkpt>
      <trkpt lat="46.93" lon="-1.50725">
        <ele>42</ele>
        <time>2011-04-10T07:33:58Z</time>
      </trkpt>
      <trkpt lat="46.93" lon="-1.50725">
        <ele>42</ele>
        <time>2011-04-10T07:33:59Z</time>
      </trkpt>
      <trkpt lat="46.93" lon="-1.50725">
        <ele>42</ele>
        <time>2011-04-10T07:34:02Z</time>
      </trkpt>
      <trkpt lat="46.93001" lon="-1.50727">
        <ele>38</ele>
        <time>2011-04-10T07:34:04Z</time>
      </trkpt>
      <trkpt lat="46.93001" lon="-1.50728">
        <ele>38</ele>
        <time>2011-04-10T07:34:07Z</time>
      </trkpt>
      <trkpt lat="46.93006" lon="-1.50729">
        <ele>38</ele>
        <time>2011-04-10T07:34:09Z</time>
      </trkpt>
      <trkpt lat="46.93009" lon="-1.50733">
        <ele>38</ele>
        <time>2011-04-10T07:34:14Z</time>
      </trkpt>
      <trkpt lat="46.9301" lon="-1.50734">
        <ele>39</ele>
        <time>2011-04-10T07:34:15Z</time>
      </trkpt>
      <trkpt lat="46.93009" lon="-1.50752">
        <ele>43</ele>
        <time>2011-04-10T07:34:21Z</time>
      </trkpt>
      <trkpt lat="46.93009" lon="-1.5076">
        <ele>43</ele>
        <time>2011-04-10T07:34:23Z</time>
      </trkpt>
      <trkpt lat="46.93005" lon="-1.50791">
        <ele>43</ele>
        <time>2011-04-10T07:34:31Z</time>
      </trkpt>
      <trkpt lat="46.93002" lon="-1.50816">
        <ele>45</ele>
        <time>2011-04-10T07:34:37Z</time>
      </trkpt>
      <trkpt lat="46.92998" lon="-1.50843">
        <ele>49</ele>
        <time>2011-04-10T07:34:44Z</time>
      </trkpt>
      <trkpt lat="46.92996" lon="-1.50854">
        <ele>49</ele>
        <time>2011-04-10T07:34:47Z</time>
      </trkpt>
      <trkpt lat="46.93002" lon="-1.50867">
        <ele>46</ele>
        <time>2011-04-10T07:34:52Z</time>
      </trkpt>
      <trkpt lat="46.93003" lon="-1.50869">
        <ele>46</ele>
        <time>2011-04-10T07:34:53Z</time>
      </trkpt>
      <trkpt lat="46.93007" lon="-1.50884">
        <ele>46</ele>
        <time>2011-04-10T07:34:58Z</time>
      </trkpt>
      <trkpt lat="46.93015" lon="-1.50891">
        <ele>46</ele>
        <time>2011-04-10T07:35:03Z</time>
      </trkpt>
      <trkpt lat="46.93017" lon="-1.50895">
        <ele>46</ele>
        <time>2011-04-10T07:35:04Z</time>
      </trkpt>
      <trkpt lat="46.93034" lon="-1.50926">
        <ele>47</ele>
        <time>2011-04-10T07:35:12Z</time>
      </trkpt>
      <trkpt lat="46.93048" lon="-1.5095">
        <ele>47</ele>
        <time>2011-04-10T07:35:18Z</time>
      </trkpt>
      <trkpt lat="46.93056" lon="-1.50964">
        <ele>47</ele>
        <time>2011-04-10T07:35:22Z</time>
      </trkpt>
      <trkpt lat="46.93057" lon="-1.50967">
        <ele>47</ele>
        <time>2011-04-10T07:35:23Z</time>
      </trkpt>
      <trkpt lat="46.93065" lon="-1.50973">
        <ele>47</ele>
        <time>2011-04-10T07:35:28Z</time>
      </trkpt>
      <trkpt lat="46.93077" lon="-1.50994">
        <ele>47</ele>
        <time>2011-04-10T07:35:33Z</time>
      </trkpt>
      <trkpt lat="46.93089" lon="-1.51016">
        <ele>43</ele>
        <time>2011-04-10T07:35:38Z</time>
      </trkpt>
      <trkpt lat="46.93091" lon="-1.51022">
        <ele>43</ele>
        <time>2011-04-10T07:35:40Z</time>
      </trkpt>
      <trkpt lat="46.93092" lon="-1.51022">
        <ele>43</ele>
        <time>2011-04-10T07:35:41Z</time>
      </trkpt>
      <trkpt lat="46.93105" lon="-1.51041">
        <ele>41</ele>
        <time>2011-04-10T07:35:48Z</time>
      </trkpt>
      <trkpt lat="46.9311" lon="-1.51051">
        <ele>41</ele>
        <time>2011-04-10T07:35:53Z</time>
      </trkpt>
      <trkpt lat="46.93112" lon="-1.51066">
        <ele>41</ele>
        <time>2011-04-10T07:35:58Z</time>
      </trkpt>
      <trkpt lat="46.93114" lon="-1.51076">
        <ele>41</ele>
        <time>2011-04-10T07:36:02Z</time>
      </trkpt>
      <trkpt lat="46.93119" lon="-1.51088">
        <ele>43</ele>
        <time>2011-04-10T07:36:05Z</time>
      </trkpt>
      <trkpt lat="46.93124" lon="-1.51099">
        <ele>43</ele>
        <time>2011-04-10T07:36:10Z</time>
      </trkpt>
      <trkpt lat="46.93127" lon="-1.51105">
        <ele>43</ele>
        <time>2011-04-10T07:36:16Z</time>
      </trkpt>
      <trkpt lat="46.93128" lon="-1.51108">
        <ele>43</ele>
        <time>2011-04-10T07:36:19Z</time>
      </trkpt>
      <trkpt lat="46.93128" lon="-1.51111">
        <ele>43</ele>
        <time>2011-04-10T07:36:21Z</time>
      </trkpt>
      <trkpt lat="46.93128" lon="-1.51117">
        <ele>43</ele>
        <time>2011-04-10T07:36:25Z</time>
      </trkpt>
      <trkpt lat="46.93128" lon="-1.51118">
        <ele>43</ele>
        <time>2011-04-10T07:36:28Z</time>
      </trkpt>
      <trkpt lat="46.93135" lon="-1.51127">
        <ele>43</ele>
        <time>2011-04-10T07:36:31Z</time>
      </trkpt>
      <trkpt lat="46.93147" lon="-1.51132">
        <ele>43</ele>
        <time>2011-04-10T07:36:36Z</time>
      </trkpt>
      <trkpt lat="46.9315" lon="-1.51134">
        <ele>43</ele>
        <time>2011-04-10T07:36:37Z</time>
      </trkpt>
      <trkpt lat="46.9317" lon="-1.51148">
        <ele>38</ele>
        <time>2011-04-10T07:36:43Z</time>
      </trkpt>
      <trkpt lat="46.93178" lon="-1.51158">
        <ele>39</ele>
        <time>2011-04-10T07:36:47Z</time>
      </trkpt>
      <trkpt lat="46.93186" lon="-1.51166">
        <ele>38</ele>
        <time>2011-04-10T07:36:50Z</time>
      </trkpt>
      <trkpt lat="46.93193" lon="-1.51172">
        <ele>42</ele>
        <time>2011-04-10T07:36:52Z</time>
      </trkpt>
      <trkpt lat="46.93206" lon="-1.51185">
        <ele>41</ele>
        <time>2011-04-10T07:36:57Z</time>
      </trkpt>
      <trkpt lat="46.93222" lon="-1.51201">
        <ele>41</ele>
        <time>2011-04-10T07:37:02Z</time>
      </trkpt>
      <trkpt lat="46.9324" lon="-1.5122">
        <ele>41</ele>
        <time>2011-04-10T07:37:08Z</time>
      </trkpt>
      <trkpt lat="46.93254" lon="-1.51237">
        <ele>39</ele>
        <time>2011-04-10T07:37:13Z</time>
      </trkpt>
      <trkpt lat="46.93268" lon="-1.51253">
        <ele>41</ele>
        <time>2011-04-10T07:37:18Z</time>
      </trkpt>
      <trkpt lat="46.93271" lon="-1.51255">
        <ele>41</ele>
        <time>2011-04-10T07:37:23Z</time>
      </trkpt>
      <trkpt lat="46.93273" lon="-1.51263">
        <ele>41</ele>
        <time>2011-04-10T07:37:26Z</time>
      </trkpt>
      <trkpt lat="46.93287" lon="-1.51271">
        <ele>40</ele>
        <time>2011-04-10T07:37:30Z</time>
      </trkpt>
      <trkpt lat="46.93298" lon="-1.51271">
        <ele>39</ele>
        <time>2011-04-10T07:37:32Z</time>
      </trkpt>
      <trkpt lat="46.93321" lon="-1.51281">
        <ele>38</ele>
        <time>2011-04-10T07:37:36Z</time>
      </trkpt>
      <trkpt lat="46.93352" lon="-1.51305">
        <ele>34</ele>
        <time>2011-04-10T07:37:42Z</time>
      </trkpt>
      <trkpt lat="46.93369" lon="-1.51315">
        <ele>33</ele>
        <time>2011-04-10T07:37:46Z</time>
      </trkpt>
      <trkpt lat="46.93381" lon="-1.51325">
        <ele>32</ele>
        <time>2011-04-10T07:37:50Z</time>
      </trkpt>
      <trkpt lat="46.93388" lon="-1.51337">
        <ele>35</ele>
        <time>2011-04-10T07:37:55Z</time>
      </trkpt>
      <trkpt lat="46.93384" lon="-1.51331">
        <ele>32</ele>
        <time>2011-04-10T07:37:59Z</time>
      </trkpt>
      <trkpt lat="46.93374" lon="-1.51324">
        <ele>33</ele>
        <time>2011-04-10T07:38:03Z</time>
      </trkpt>
      <trkpt lat="46.93373" lon="-1.51332">
        <ele>33</ele>
        <time>2011-04-10T07:38:06Z</time>
      </trkpt>
      <trkpt lat="46.93378" lon="-1.5134">
        <ele>36</ele>
        <time>2011-04-10T07:38:11Z</time>
      </trkpt>
      <trkpt lat="46.93376" lon="-1.51347">
        <ele>36</ele>
        <time>2011-04-10T07:38:15Z</time>
      </trkpt>
      <trkpt lat="46.93371" lon="-1.51342">
        <ele>36</ele>
        <time>2011-04-10T07:38:19Z</time>
      </trkpt>
      <trkpt lat="46.93362" lon="-1.51335">
        <ele>37</ele>
        <time>2011-04-10T07:38:26Z</time>
      </trkpt>
      <trkpt lat="46.93361" lon="-1.51333">
        <ele>34</ele>
        <time>2011-04-10T07:38:27Z</time>
      </trkpt>
      <trkpt lat="46.93348" lon="-1.51319">
        <ele>35</ele>
        <time>2011-04-10T07:38:34Z</time>
      </trkpt>
      <trkpt lat="46.93346" lon="-1.51318">
        <ele>35</ele>
        <time>2011-04-10T07:38:35Z</time>
      </trkpt>
      <trkpt lat="46.93328" lon="-1.51315">
        <ele>40</ele>
        <time>2011-04-10T07:38:41Z</time>
      </trkpt>
      <trkpt lat="46.9332" lon="-1.51326">
        <ele>40</ele>
        <time>2011-04-10T07:38:45Z</time>
      </trkpt>
      <trkpt lat="46.93313" lon="-1.5136">
        <ele>43</ele>
        <time>2011-04-10T07:38:52Z</time>
      </trkpt>
      <trkpt lat="46.93304" lon="-1.51376">
        <ele>43</ele>
        <time>2011-04-10T07:38:56Z</time>
      </trkpt>
      <trkpt lat="46.93294" lon="-1.51396">
        <ele>44</ele>
        <time>2011-04-10T07:39:01Z</time>
      </trkpt>
      <trkpt lat="46.93279" lon="-1.5142">
        <ele>45</ele>
        <time>2011-04-10T07:39:07Z</time>
      </trkpt>
      <trkpt lat="46.93275" lon="-1.51441">
        <ele>45</ele>
        <time>2011-04-10T07:39:11Z</time>
      </trkpt>
      <trkpt lat="46.9328" lon="-1.51472">
        <ele>46</ele>
        <time>2011-04-10T07:39:17Z</time>
      </trkpt>
      <trkpt lat="46.93295" lon="-1.51478">
        <ele>45</ele>
        <time>2011-04-10T07:39:21Z</time>
      </trkpt>
      <trkpt lat="46.93311" lon="-1.51473">
        <ele>45</ele>
        <time>2011-04-10T07:39:25Z</time>
      </trkpt>
      <trkpt lat="46.93325" lon="-1.51484">
        <ele>46</ele>
        <time>2011-04-10T07:39:29Z</time>
      </trkpt>
      <trkpt lat="46.93337" lon="-1.51493">
        <ele>44</ele>
        <time>2011-04-10T07:39:32Z</time>
      </trkpt>
      <trkpt lat="46.93341" lon="-1.51492">
        <ele>44</ele>
        <time>2011-04-10T07:39:33Z</time>
      </trkpt>
      <trkpt lat="46.93352" lon="-1.51492">
        <ele>43</ele>
        <time>2011-04-10T07:39:38Z</time>
      </trkpt>
      <trkpt lat="46.93361" lon="-1.51494">
        <ele>42</ele>
        <time>2011-04-10T07:39:43Z</time>
      </trkpt>
      <trkpt lat="46.93365" lon="-1.51494">
        <ele>41</ele>
        <time>2011-04-10T07:39:45Z</time>
      </trkpt>
      <trkpt lat="46.93375" lon="-1.51491">
        <ele>41</ele>
        <time>2011-04-10T07:39:49Z</time>
      </trkpt>
      <trkpt lat="46.93377" lon="-1.51488">
        <ele>40</ele>
        <time>2011-04-10T07:39:50Z</time>
      </trkpt>
      <trkpt lat="46.9339" lon="-1.5148">
        <ele>40</ele>
        <time>2011-04-10T07:39:54Z</time>
      </trkpt>
      <trkpt lat="46.93411" lon="-1.5148">
        <ele>39</ele>
        <time>2011-04-10T07:40:01Z</time>
      </trkpt>
      <trkpt lat="46.93415" lon="-1.5148">
        <ele>39</ele>
        <time>2011-04-10T07:40:08Z</time>
      </trkpt>
      <trkpt lat="46.93416" lon="-1.51481">
        <ele>39</ele>
        <time>2011-04-10T07:40:10Z</time>
      </trkpt>
      <trkpt lat="46.93415" lon="-1.51483">
        <ele>39</ele>
        <time>2011-04-10T07:40:18Z</time>
      </trkpt>
      <trkpt lat="46.93416" lon="-1.51485">
        <ele>39</ele>
        <time>2011-04-10T07:40:19Z</time>
      </trkpt>
      <trkpt lat="46.93416" lon="-1.51485">
        <ele>39</ele>
        <time>2011-04-10T07:40:23Z</time>
      </trkpt>
      <trkpt lat="46.93419" lon="-1.51489">
        <ele>35</ele>
        <time>2011-04-10T07:40:28Z</time>
      </trkpt>
      <trkpt lat="46.9342" lon="-1.5149">
        <ele>35</ele>
        <time>2011-04-10T07:40:31Z</time>
      </trkpt>
      <trkpt lat="46.93421" lon="-1.5149">
        <ele>36</ele>
        <time>2011-04-10T07:40:32Z</time>
      </trkpt>
      <trkpt lat="46.93422" lon="-1.51492">
        <ele>36</ele>
        <time>2011-04-10T07:40:35Z</time>
      </trkpt>
      <trkpt lat="46.93423" lon="-1.51493">
        <ele>36</ele>
        <time>2011-04-10T07:40:38Z</time>
      </trkpt>
      <trkpt lat="46.93423" lon="-1.51493">
        <ele>36</ele>
        <time>2011-04-10T07:40:39Z</time>
      </trkpt>
      <trkpt lat="46.93423" lon="-1.51493">
        <ele>36</ele>
        <time>2011-04-10T07:40:40Z</time>
      </trkpt>
      <trkpt lat="46.93424" lon="-1.51496">
        <ele>36</ele>
        <time>2011-04-10T07:40:41Z</time>
      </trkpt>
      <trkpt lat="46.93425" lon="-1.51496">
        <ele>36</ele>
        <time>2011-04-10T07:40:42Z</time>
      </trkpt>
      <trkpt lat="46.93425" lon="-1.51496">
        <ele>36</ele>
        <time>2011-04-10T07:40:45Z</time>
      </trkpt>
      <trkpt lat="46.93431" lon="-1.51503">
        <ele>35</ele>
        <time>2011-04-10T07:40:51Z</time>
      </trkpt>
      <trkpt lat="46.93436" lon="-1.51507">
        <ele>34</ele>
        <time>2011-04-10T07:40:55Z</time>
      </trkpt>
      <trkpt lat="46.93435" lon="-1.51516">
        <ele>34</ele>
        <time>2011-04-10T07:41:01Z</time>
      </trkpt>
      <trkpt lat="46.93432" lon="-1.51528">
        <ele>34</ele>
        <time>2011-04-10T07:41:05Z</time>
      </trkpt>
      <trkpt lat="46.93428" lon="-1.51546">
        <ele>34</ele>
        <time>2011-04-10T07:41:11Z</time>
      </trkpt>
      <trkpt lat="46.9343" lon="-1.51568">
        <ele>35</ele>
        <time>2011-04-10T07:41:15Z</time>
      </trkpt>
      <trkpt lat="46.93426" lon="-1.5159">
        <ele>35</ele>
        <time>2011-04-10T07:41:18Z</time>
      </trkpt>
      <trkpt lat="46.93423" lon="-1.5162">
        <ele>33</ele>
        <time>2011-04-10T07:41:22Z</time>
      </trkpt>
      <trkpt lat="46.93421" lon="-1.51653">
        <ele>34</ele>
        <time>2011-04-10T07:41:27Z</time>
      </trkpt>
      <trkpt lat="46.93429" lon="-1.51689">
        <ele>35</ele>
        <time>2011-04-10T07:41:32Z</time>
      </trkpt>
      <trkpt lat="46.93434" lon="-1.51709">
        <ele>35</ele>
        <time>2011-04-10T07:41:35Z</time>
      </trkpt>
      <trkpt lat="46.93444" lon="-1.51727">
        <ele>35</ele>
        <time>2011-04-10T07:41:38Z</time>
      </trkpt>
      <trkpt lat="46.93454" lon="-1.51746">
        <ele>34</ele>
        <time>2011-04-10T07:41:41Z</time>
      </trkpt>
      <trkpt lat="46.9346" lon="-1.51757">
        <ele>38</ele>
        <time>2011-04-10T07:41:43Z</time>
      </trkpt>
      <trkpt lat="46.93465" lon="-1.51769">
        <ele>38</ele>
        <time>2011-04-10T07:41:45Z</time>
      </trkpt>
      <trkpt lat="46.93474" lon="-1.51786">
        <ele>38</ele>
        <time>2011-04-10T07:41:48Z</time>
      </trkpt>
      <trkpt lat="46.93491" lon="-1.51803">
        <ele>38</ele>
        <time>2011-04-10T07:41:52Z</time>
      </trkpt>
      <trkpt lat="46.93509" lon="-1.51816">
        <ele>33</ele>
        <time>2011-04-10T07:41:56Z</time>
      </trkpt>
      <trkpt lat="46.93538" lon="-1.51838">
        <ele>36</ele>
        <time>2011-04-10T07:42:03Z</time>
      </trkpt>
      <trkpt lat="46.9355" lon="-1.51846">
        <ele>34</ele>
        <time>2011-04-10T07:42:07Z</time>
      </trkpt>
      <trkpt lat="46.93554" lon="-1.51848">
        <ele>34</ele>
        <time>2011-04-10T07:42:08Z</time>
      </trkpt>
      <trkpt lat="46.93558" lon="-1.51855">
        <ele>34</ele>
        <time>2011-04-10T07:42:11Z</time>
      </trkpt>
      <trkpt lat="46.93557" lon="-1.51855">
        <ele>34</ele>
        <time>2011-04-10T07:42:12Z</time>
      </trkpt>
      <trkpt lat="46.93544" lon="-1.51849">
        <ele>35</ele>
        <time>2011-04-10T07:42:18Z</time>
      </trkpt>
      <trkpt lat="46.93535" lon="-1.51845">
        <ele>36</ele>
        <time>2011-04-10T07:42:23Z</time>
      </trkpt>
      <trkpt lat="46.93533" lon="-1.51845">
        <ele>36</ele>
        <time>2011-04-10T07:42:24Z</time>
      </trkpt>
      <trkpt lat="46.93523" lon="-1.51841">
        <ele>37</ele>
        <time>2011-04-10T07:42:31Z</time>
      </trkpt>
      <trkpt lat="46.93516" lon="-1.51839">
        <ele>38</ele>
        <time>2011-04-10T07:42:35Z</time>
      </trkpt>
      <trkpt lat="46.93509" lon="-1.51837">
        <ele>38</ele>
        <time>2011-04-10T07:42:42Z</time>
      </trkpt>
      <trkpt lat="46.93508" lon="-1.51837">
        <ele>38</ele>
        <time>2011-04-10T07:42:45Z</time>
      </trkpt>
      <trkpt lat="46.93509" lon="-1.51839">
        <ele>38</ele>
        <time>2011-04-10T07:42:47Z</time>
      </trkpt>
      <trkpt lat="46.93512" lon="-1.5184">
        <ele>38</ele>
        <time>2011-04-10T07:42:49Z</time>
      </trkpt>
      <trkpt lat="46.93522" lon="-1.51849">
        <ele>37</ele>
        <time>2011-04-10T07:42:55Z</time>
      </trkpt>
      <trkpt lat="46.93525" lon="-1.51851">
        <ele>37</ele>
        <time>2011-04-10T07:42:56Z</time>
      </trkpt>
      <trkpt lat="46.93542" lon="-1.51865">
        <ele>36</ele>
        <time>2011-04-10T07:43:02Z</time>
      </trkpt>
      <trkpt lat="46.93555" lon="-1.51876">
        <ele>36</ele>
        <time>2011-04-10T07:43:06Z</time>
      </trkpt>
      <trkpt lat="46.93567" lon="-1.51885">
        <ele>36</ele>
        <time>2011-04-10T07:43:10Z</time>
      </trkpt>
      <trkpt lat="46.93575" lon="-1.51888">
        <ele>36</ele>
        <time>2011-04-10T07:43:12Z</time>
      </trkpt>
      <trkpt lat="46.93591" lon="-1.51894">
        <ele>32</ele>
        <time>2011-04-10T07:43:15Z</time>
      </trkpt>
      <trkpt lat="46.93596" lon="-1.51897">
        <ele>32</ele>
        <time>2011-04-10T07:43:16Z</time>
      </trkpt>
      <trkpt lat="46.93606" lon="-1.519">
        <ele>31</ele>
        <time>2011-04-10T07:43:18Z</time>
      </trkpt>
      <trkpt lat="46.93615" lon="-1.51901">
        <ele>30</ele>
        <time>2011-04-10T07:43:20Z</time>
      </trkpt>
      <trkpt lat="46.93628" lon="-1.51913">
        <ele>30</ele>
        <time>2011-04-10T07:43:23Z</time>
      </trkpt>
      <trkpt lat="46.93639" lon="-1.51926">
        <ele>34</ele>
        <time>2011-04-10T07:43:26Z</time>
      </trkpt>
      <trkpt lat="46.93654" lon="-1.51936">
        <ele>34</ele>
        <time>2011-04-10T07:43:30Z</time>
      </trkpt>
      <trkpt lat="46.93675" lon="-1.51956">
        <ele>32</ele>
        <time>2011-04-10T07:43:36Z</time>
      </trkpt>
      <trkpt lat="46.93695" lon="-1.5197">
        <ele>33</ele>
        <time>2011-04-10T07:43:42Z</time>
      </trkpt>
      <trkpt lat="46.9371" lon="-1.51981">
        <ele>33</ele>
        <time>2011-04-10T07:43:47Z</time>
      </trkpt>
      <trkpt lat="46.9373" lon="-1.51992">
        <ele>33</ele>
        <time>2011-04-10T07:43:52Z</time>
      </trkpt>
      <trkpt lat="46.93752" lon="-1.52002">
        <ele>33</ele>
        <time>2011-04-10T07:43:57Z</time>
      </trkpt>
      <trkpt lat="46.93766" lon="-1.52007">
        <ele>34</ele>
        <time>2011-04-10T07:44:00Z</time>
      </trkpt>
      <trkpt lat="46.93785" lon="-1.52011">
        <ele>33</ele>
        <time>2011-04-10T07:44:05Z</time>
      </trkpt>
      <trkpt lat="46.93809" lon="-1.52014">
        <ele>32</ele>
        <time>2011-04-10T07:44:11Z</time>
      </trkpt>
      <trkpt lat="46.93837" lon="-1.52018">
        <ele>30</ele>
        <time>2011-04-10T07:44:17Z</time>
      </trkpt>
      <trkpt lat="46.93866" lon="-1.52024">
        <ele>30</ele>
        <time>2011-04-10T07:44:23Z</time>
      </trkpt>
      <trkpt lat="46.93883" lon="-1.52024">
        <ele>29</ele>
        <time>2011-04-10T07:44:27Z</time>
      </trkpt>
      <trkpt lat="46.93914" lon="-1.52022">
        <ele>29</ele>
        <time>2011-04-10T07:44:34Z</time>
      </trkpt>
      <trkpt lat="46.93939" lon="-1.52021">
        <ele>27</ele>
        <time>2011-04-10T07:44:40Z</time>
      </trkpt>
      <trkpt lat="46.93954" lon="-1.52021">
        <ele>26</ele>
        <time>2011-04-10T07:44:44Z</time>
      </trkpt>
      <trkpt lat="46.93966" lon="-1.52025">
        <ele>26</ele>
        <time>2011-04-10T07:44:48Z</time>
      </trkpt>
      <trkpt lat="46.93964" lon="-1.52028">
        <ele>26</ele>
        <time>2011-04-10T07:44:52Z</time>
      </trkpt>
      <trkpt lat="46.9396" lon="-1.52029">
        <ele>26</ele>
        <time>2011-04-10T07:44:54Z</time>
      </trkpt>
      <trkpt lat="46.93936" lon="-1.52036">
        <ele>27</ele>
        <time>2011-04-10T07:45:02Z</time>
      </trkpt>
      <trkpt lat="46.93918" lon="-1.52045">
        <ele>27</ele>
        <time>2011-04-10T07:45:09Z</time>
      </trkpt>
      <trkpt lat="46.93899" lon="-1.52054">
        <ele>29</ele>
        <time>2011-04-10T07:45:17Z</time>
      </trkpt>
      <trkpt lat="46.93886" lon="-1.52057">
        <ele>30</ele>
        <time>2011-04-10T07:45:22Z</time>
      </trkpt>
      <trkpt lat="46.93875" lon="-1.52057">
        <ele>30</ele>
        <time>2011-04-10T07:45:27Z</time>
      </trkpt>
      <trkpt lat="46.9387" lon="-1.52057">
        <ele>30</ele>
        <time>2011-04-10T07:45:29Z</time>
      </trkpt>
      <trkpt lat="46.93856" lon="-1.52058">
        <ele>31</ele>
        <time>2011-04-10T07:45:35Z</time>
      </trkpt>
      <trkpt lat="46.93843" lon="-1.5206">
        <ele>31</ele>
        <time>2011-04-10T07:45:40Z</time>
      </trkpt>
      <trkpt lat="46.9383" lon="-1.52059">
        <ele>34</ele>
        <time>2011-04-10T07:45:45Z</time>
      </trkpt>
      <trkpt lat="46.93813" lon="-1.52055">
        <ele>34</ele>
        <time>2011-04-10T07:45:51Z</time>
      </trkpt>
      <trkpt lat="46.93799" lon="-1.52051">
        <ele>34</ele>
        <time>2011-04-10T07:45:56Z</time>
      </trkpt>
      <trkpt lat="46.93783" lon="-1.52048">
        <ele>35</ele>
        <time>2011-04-10T07:46:01Z</time>
      </trkpt>
      <trkpt lat="46.93763" lon="-1.52047">
        <ele>35</ele>
        <time>2011-04-10T07:46:07Z</time>
      </trkpt>
      <trkpt lat="46.93746" lon="-1.52037">
        <ele>38</ele>
        <time>2011-04-10T07:46:11Z</time>
      </trkpt>
      <trkpt lat="46.93742" lon="-1.52034">
        <ele>38</ele>
        <time>2011-04-10T07:46:12Z</time>
      </trkpt>
      <trkpt lat="46.93729" lon="-1.52028">
        <ele>38</ele>
        <time>2011-04-10T07:46:15Z</time>
      </trkpt>
      <trkpt lat="46.93703" lon="-1.52013">
        <ele>38</ele>
        <time>2011-04-10T07:46:21Z</time>
      </trkpt>
      <trkpt lat="46.9368" lon="-1.52001">
        <ele>39</ele>
        <time>2011-04-10T07:46:27Z</time>
      </trkpt>
      <trkpt lat="46.93669" lon="-1.51994">
        <ele>37</ele>
        <time>2011-04-10T07:46:31Z</time>
      </trkpt>
      <trkpt lat="46.93651" lon="-1.51985">
        <ele>38</ele>
        <time>2011-04-10T07:46:36Z</time>
      </trkpt>
      <trkpt lat="46.9363" lon="-1.51974">
        <ele>38</ele>
        <time>2011-04-10T07:46:42Z</time>
      </trkpt>
      <trkpt lat="46.9361" lon="-1.51963">
        <ele>38</ele>
        <time>2011-04-10T07:46:48Z</time>
      </trkpt>
      <trkpt lat="46.9359" lon="-1.51951">
        <ele>38</ele>
        <time>2011-04-10T07:46:54Z</time>
      </trkpt>
      <trkpt lat="46.93564" lon="-1.51933">
        <ele>41</ele>
        <time>2011-04-10T07:47:00Z</time>
      </trkpt>
      <trkpt lat="46.93532" lon="-1.51906">
        <ele>39</ele>
        <time>2011-04-10T07:47:07Z</time>
      </trkpt>
      <trkpt lat="46.93503" lon="-1.51881">
        <ele>39</ele>
        <time>2011-04-10T07:47:13Z</time>
      </trkpt>
      <trkpt lat="46.93493" lon="-1.51874">
        <ele>44</ele>
        <time>2011-04-10T07:47:15Z</time>
      </trkpt>
      <trkpt lat="46.93477" lon="-1.51877">
        <ele>44</ele>
        <time>2011-04-10T07:47:19Z</time>
      </trkpt>
      <trkpt lat="46.93471" lon="-1.51897">
        <ele>45</ele>
        <time>2011-04-10T07:47:23Z</time>
      </trkpt>
      <trkpt lat="46.93468" lon="-1.51901">
        <ele>45</ele>
        <time>2011-04-10T07:47:24Z</time>
      </trkpt>
      <trkpt lat="46.93463" lon="-1.51907">
        <ele>45</ele>
        <time>2011-04-10T07:47:26Z</time>
      </trkpt>
      <trkpt lat="46.93466" lon="-1.51922">
        <ele>47</ele>
        <time>2011-04-10T07:47:30Z</time>
      </trkpt>
      <trkpt lat="46.9347" lon="-1.51924">
        <ele>47</ele>
        <time>2011-04-10T07:47:31Z</time>
      </trkpt>
      <trkpt lat="46.93509" lon="-1.51949">
        <ele>44</ele>
        <time>2011-04-10T07:47:39Z</time>
      </trkpt>
      <trkpt lat="46.9354" lon="-1.5197">
        <ele>44</ele>
        <time>2011-04-10T07:47:45Z</time>
      </trkpt>
      <trkpt lat="46.93594" lon="-1.52003">
        <ele>43</ele>
        <time>2011-04-10T07:47:55Z</time>
      </trkpt>
      <trkpt lat="46.9364" lon="-1.52032">
        <ele>42</ele>
        <time>2011-04-10T07:48:03Z</time>
      </trkpt>
      <trkpt lat="46.93655" lon="-1.5206">
        <ele>42</ele>
        <time>2011-04-10T07:48:07Z</time>
      </trkpt>
      <trkpt lat="46.9368" lon="-1.52134">
        <ele>41</ele>
        <time>2011-04-10T07:48:16Z</time>
      </trkpt>
      <trkpt lat="46.93677" lon="-1.52156">
        <ele>40</ele>
        <time>2011-04-10T07:48:19Z</time>
      </trkpt>
      <trkpt lat="46.93663" lon="-1.5217">
        <ele>40</ele>
        <time>2011-04-10T07:48:22Z</time>
      </trkpt>
      <trkpt lat="46.93614" lon="-1.52218">
        <ele>42</ele>
        <time>2011-04-10T07:48:31Z</time>
      </trkpt>
      <trkpt lat="46.9356" lon="-1.52258">
        <ele>44</ele>
        <time>2011-04-10T07:48:41Z</time>
      </trkpt>
      <trkpt lat="46.93525" lon="-1.52285">
        <ele>44</ele>
        <time>2011-04-10T07:48:49Z</time>
      </trkpt>
      <trkpt lat="46.93521" lon="-1.52287">
        <ele>45</ele>
        <time>2011-04-10T07:48:50Z</time>
      </trkpt>
      <trkpt lat="46.93518" lon="-1.5231">
        <ele>44</ele>
        <time>2011-04-10T07:48:54Z</time>
      </trkpt>
      <trkpt lat="46.93524" lon="-1.52364">
        <ele>43</ele>
        <time>2011-04-10T07:49:00Z</time>
      </trkpt>
      <trkpt lat="46.9353" lon="-1.52438">
        <ele>44</ele>
        <time>2011-04-10T07:49:07Z</time>
      </trkpt>
      <trkpt lat="46.9354" lon="-1.52493">
        <ele>45</ele>
        <time>2011-04-10T07:49:13Z</time>
      </trkpt>
      <trkpt lat="46.93551" lon="-1.5255">
        <ele>47</ele>
        <time>2011-04-10T07:49:20Z</time>
      </trkpt>
      <trkpt lat="46.93569" lon="-1.52639">
        <ele>49</ele>
        <time>2011-04-10T07:49:31Z</time>
      </trkpt>
      <trkpt lat="46.93589" lon="-1.52719">
        <ele>48</ele>
        <time>2011-04-10T07:49:41Z</time>
      </trkpt>
      <trkpt lat="46.93607" lon="-1.5277">
        <ele>50</ele>
        <time>2011-04-10T07:49:48Z</time>
      </trkpt>
      <trkpt lat="46.93632" lon="-1.52847">
        <ele>52</ele>
        <time>2011-04-10T07:49:58Z</time>
      </trkpt>
      <trkpt lat="46.93645" lon="-1.52914">
        <ele>52</ele>
        <time>2011-04-10T07:50:06Z</time>
      </trkpt>
      <trkpt lat="46.93662" lon="-1.53001">
        <ele>53</ele>
        <time>2011-04-10T07:50:16Z</time>
      </trkpt>
      <trkpt lat="46.9368" lon="-1.53065">
        <ele>52</ele>
        <time>2011-04-10T07:50:23Z</time>
      </trkpt>
      <trkpt lat="46.93703" lon="-1.53118">
        <ele>51</ele>
        <time>2011-04-10T07:50:29Z</time>
      </trkpt>
      <trkpt lat="46.93746" lon="-1.53198">
        <ele>51</ele>
        <time>2011-04-10T07:50:39Z</time>
      </trkpt>
      <trkpt lat="46.93777" lon="-1.53256">
        <ele>52</ele>
        <time>2011-04-10T07:50:47Z</time>
      </trkpt>
      <trkpt lat="46.93812" lon="-1.53338">
        <ele>53</ele>
        <time>2011-04-10T07:50:58Z</time>
      </trkpt>
      <trkpt lat="46.93847" lon="-1.5342">
        <ele>54</ele>
        <time>2011-04-10T07:51:09Z</time>
      </trkpt>
      <trkpt lat="46.9386" lon="-1.53438">
        <ele>54</ele>
        <time>2011-04-10T07:51:12Z</time>
      </trkpt>
      <trkpt lat="46.93881" lon="-1.5348">
        <ele>54</ele>
        <time>2011-04-10T07:51:18Z</time>
      </trkpt>
      <trkpt lat="46.93914" lon="-1.53559">
        <ele>54</ele>
        <time>2011-04-10T07:51:29Z</time>
      </trkpt>
      <trkpt lat="46.93949" lon="-1.5364">
        <ele>54</ele>
        <time>2011-04-10T07:51:40Z</time>
      </trkpt>
      <trkpt lat="46.93972" lon="-1.53693">
        <ele>54</ele>
        <time>2011-04-10T07:51:47Z</time>
      </trkpt>
      <trkpt lat="46.93985" lon="-1.53701">
        <ele>54</ele>
        <time>2011-04-10T07:51:50Z</time>
      </trkpt>
      <trkpt lat="46.93993" lon="-1.53692">
        <ele>54</ele>
        <time>2011-04-10T07:51:52Z</time>
      </trkpt>
      <trkpt lat="46.9403" lon="-1.53651">
        <ele>51</ele>
        <time>2011-04-10T07:52:00Z</time>
      </trkpt>
      <trkpt lat="46.9405" lon="-1.53632">
        <ele>51</ele>
        <time>2011-04-10T07:52:04Z</time>
      </trkpt>
      <trkpt lat="46.94069" lon="-1.53612">
        <ele>51</ele>
        <time>2011-04-10T07:52:08Z</time>
      </trkpt>
      <trkpt lat="46.94112" lon="-1.53572">
        <ele>50</ele>
        <time>2011-04-10T07:52:16Z</time>
      </trkpt>
      <trkpt lat="46.94117" lon="-1.53567">
        <ele>50</ele>
        <time>2011-04-10T07:52:17Z</time>
      </trkpt>
      <trkpt lat="46.94127" lon="-1.53547">
        <ele>50</ele>
        <time>2011-04-10T07:52:20Z</time>
      </trkpt>
      <trkpt lat="46.94128" lon="-1.53524">
        <ele>50</ele>
        <time>2011-04-10T07:52:23Z</time>
      </trkpt>
      <trkpt lat="46.94137" lon="-1.53513">
        <ele>50</ele>
        <time>2011-04-10T07:52:25Z</time>
      </trkpt>
      <trkpt lat="46.94183" lon="-1.53459">
        <ele>47</ele>
        <time>2011-04-10T07:52:34Z</time>
      </trkpt>
      <trkpt lat="46.94195" lon="-1.53449">
        <ele>47</ele>
        <time>2011-04-10T07:52:36Z</time>
      </trkpt>
      <trkpt lat="46.94207" lon="-1.53438">
        <ele>46</ele>
        <time>2011-04-10T07:52:38Z</time>
      </trkpt>
      <trkpt lat="46.94222" lon="-1.53418">
        <ele>45</ele>
        <time>2011-04-10T07:52:41Z</time>
      </trkpt>
      <trkpt lat="46.94241" lon="-1.53395">
        <ele>43</ele>
        <time>2011-04-10T07:52:45Z</time>
      </trkpt>
      <trkpt lat="46.94246" lon="-1.53372">
        <ele>43</ele>
        <time>2011-04-10T07:52:49Z</time>
      </trkpt>
      <trkpt lat="46.9425" lon="-1.53367">
        <ele>42</ele>
        <time>2011-04-10T07:52:50Z</time>
      </trkpt>
      <trkpt lat="46.94279" lon="-1.53333">
        <ele>38</ele>
        <time>2011-04-10T07:52:56Z</time>
      </trkpt>
      <trkpt lat="46.94288" lon="-1.53322">
        <ele>37</ele>
        <time>2011-04-10T07:52:58Z</time>
      </trkpt>
      <trkpt lat="46.94295" lon="-1.53317">
        <ele>37</ele>
        <time>2011-04-10T07:53:00Z</time>
      </trkpt>
      <trkpt lat="46.943" lon="-1.53332">
        <ele>37</ele>
        <time>2011-04-10T07:53:03Z</time>
      </trkpt>
      <trkpt lat="46.94308" lon="-1.53376">
        <ele>39</ele>
        <time>2011-04-10T07:53:09Z</time>
      </trkpt>
      <trkpt lat="46.94316" lon="-1.53444">
        <ele>41</ele>
        <time>2011-04-10T07:53:18Z</time>
      </trkpt>
      <trkpt lat="46.94318" lon="-1.5348">
        <ele>42</ele>
        <time>2011-04-10T07:53:23Z</time>
      </trkpt>
      <trkpt lat="46.94329" lon="-1.53514">
        <ele>43</ele>
        <time>2011-04-10T07:53:28Z</time>
      </trkpt>
      <trkpt lat="46.94335" lon="-1.53526">
        <ele>42</ele>
        <time>2011-04-10T07:53:30Z</time>
      </trkpt>
      <trkpt lat="46.94363" lon="-1.53564">
        <ele>42</ele>
        <time>2011-04-10T07:53:37Z</time>
      </trkpt>
      <trkpt lat="46.94378" lon="-1.53586">
        <ele>42</ele>
        <time>2011-04-10T07:53:41Z</time>
      </trkpt>
      <trkpt lat="46.94389" lon="-1.53603">
        <ele>42</ele>
        <time>2011-04-10T07:53:44Z</time>
      </trkpt>
      <trkpt lat="46.94397" lon="-1.53619">
        <ele>42</ele>
        <time>2011-04-10T07:53:46Z</time>
      </trkpt>
      <trkpt lat="46.94407" lon="-1.53647">
        <ele>41</ele>
        <time>2011-04-10T07:53:49Z</time>
      </trkpt>
      <trkpt lat="46.94409" lon="-1.53655">
        <ele>41</ele>
        <time>2011-04-10T07:53:50Z</time>
      </trkpt>
      <trkpt lat="46.94405" lon="-1.5368">
        <ele>41</ele>
        <time>2011-04-10T07:53:54Z</time>
      </trkpt>
      <trkpt lat="46.94389" lon="-1.53695">
        <ele>42</ele>
        <time>2011-04-10T07:53:58Z</time>
      </trkpt>
      <trkpt lat="46.94381" lon="-1.53703">
        <ele>43</ele>
        <time>2011-04-10T07:54:00Z</time>
      </trkpt>
      <trkpt lat="46.94372" lon="-1.5371">
        <ele>43</ele>
        <time>2011-04-10T07:54:02Z</time>
      </trkpt>
      <trkpt lat="46.94352" lon="-1.53719">
        <ele>43</ele>
        <time>2011-04-10T07:54:06Z</time>
      </trkpt>
      <trkpt lat="46.94345" lon="-1.53731">
        <ele>43</ele>
        <time>2011-04-10T07:54:09Z</time>
      </trkpt>
      <trkpt lat="46.94344" lon="-1.53737">
        <ele>43</ele>
        <time>2011-04-10T07:54:10Z</time>
      </trkpt>
      <trkpt lat="46.94343" lon="-1.5375">
        <ele>43</ele>
        <time>2011-04-10T07:54:12Z</time>
      </trkpt>
      <trkpt lat="46.94334" lon="-1.53774">
        <ele>43</ele>
        <time>2011-04-10T07:54:16Z</time>
      </trkpt>
      <trkpt lat="46.94322" lon="-1.53817">
        <ele>45</ele>
        <time>2011-04-10T07:54:23Z</time>
      </trkpt>
      <trkpt lat="46.94317" lon="-1.53844">
        <ele>46</ele>
        <time>2011-04-10T07:54:28Z</time>
      </trkpt>
      <trkpt lat="46.94308" lon="-1.53893">
        <ele>48</ele>
        <time>2011-04-10T07:54:38Z</time>
      </trkpt>
      <trkpt lat="46.94304" lon="-1.53924">
        <ele>50</ele>
        <time>2011-04-10T07:54:46Z</time>
      </trkpt>
      <trkpt lat="46.94305" lon="-1.53945">
        <ele>51</ele>
        <time>2011-04-10T07:54:52Z</time>
      </trkpt>
      <trkpt lat="46.94306" lon="-1.53968">
        <ele>51</ele>
        <time>2011-04-10T07:54:59Z</time>
      </trkpt>
      <trkpt lat="46.94311" lon="-1.53985">
        <ele>51</ele>
        <time>2011-04-10T07:55:06Z</time>
      </trkpt>
      <trkpt lat="46.94311" lon="-1.53987">
        <ele>51</ele>
        <time>2011-04-10T07:55:08Z</time>
      </trkpt>
      <trkpt lat="46.94317" lon="-1.5399">
        <ele>51</ele>
        <time>2011-04-10T07:55:14Z</time>
      </trkpt>
      <trkpt lat="46.94322" lon="-1.53993">
        <ele>51</ele>
        <time>2011-04-10T07:55:19Z</time>
      </trkpt>
      <trkpt lat="46.94326" lon="-1.54">
        <ele>51</ele>
        <time>2011-04-10T07:55:25Z</time>
      </trkpt>
      <trkpt lat="46.94327" lon="-1.54003">
        <ele>51</ele>
        <time>2011-04-10T07:55:27Z</time>
      </trkpt>
      <trkpt lat="46.9433" lon="-1.54014">
        <ele>52</ele>
        <time>2011-04-10T07:55:34Z</time>
      </trkpt>
      <trkpt lat="46.94335" lon="-1.54024">
        <ele>51</ele>
        <time>2011-04-10T07:55:38Z</time>
      </trkpt>
      <trkpt lat="46.94343" lon="-1.54016">
        <ele>51</ele>
        <time>2011-04-10T07:55:43Z</time>
      </trkpt>
      <trkpt lat="46.94351" lon="-1.53999">
        <ele>49</ele>
        <time>2011-04-10T07:55:49Z</time>
      </trkpt>
      <trkpt lat="46.94363" lon="-1.53977">
        <ele>48</ele>
        <time>2011-04-10T07:55:56Z</time>
      </trkpt>
      <trkpt lat="46.94369" lon="-1.53954">
        <ele>48</ele>
        <time>2011-04-10T07:56:01Z</time>
      </trkpt>
      <trkpt lat="46.9438" lon="-1.53943">
        <ele>47</ele>
        <time>2011-04-10T07:56:04Z</time>
      </trkpt>
      <trkpt lat="46.94397" lon="-1.5394">
        <ele>47</ele>
        <time>2011-04-10T07:56:08Z</time>
      </trkpt>
      <trkpt lat="46.944" lon="-1.53944">
        <ele>47</ele>
        <time>2011-04-10T07:56:09Z</time>
      </trkpt>
      <trkpt lat="46.94428" lon="-1.53991">
        <ele>47</ele>
        <time>2011-04-10T07:56:18Z</time>
      </trkpt>
      <trkpt lat="46.94441" lon="-1.54011">
        <ele>48</ele>
        <time>2011-04-10T07:56:22Z</time>
      </trkpt>
      <trkpt lat="46.9444" lon="-1.54034">
        <ele>48</ele>
        <time>2011-04-10T07:56:26Z</time>
      </trkpt>
      <trkpt lat="46.94405" lon="-1.5409">
        <ele>50</ele>
        <time>2011-04-10T07:56:37Z</time>
      </trkpt>
      <trkpt lat="46.94392" lon="-1.5411">
        <ele>50</ele>
        <time>2011-04-10T07:56:41Z</time>
      </trkpt>
      <trkpt lat="46.9439" lon="-1.54131">
        <ele>51</ele>
        <time>2011-04-10T07:56:45Z</time>
      </trkpt>
      <trkpt lat="46.94393" lon="-1.54136">
        <ele>51</ele>
        <time>2011-04-10T07:56:46Z</time>
      </trkpt>
      <trkpt lat="46.94417" lon="-1.54169">
        <ele>51</ele>
        <time>2011-04-10T07:56:53Z</time>
      </trkpt>
      <trkpt lat="46.94441" lon="-1.54204">
        <ele>51</ele>
        <time>2011-04-10T07:57:00Z</time>
      </trkpt>
      <trkpt lat="46.94469" lon="-1.54246">
        <ele>51</ele>
        <time>2011-04-10T07:57:08Z</time>
      </trkpt>
      <trkpt lat="46.94503" lon="-1.54306">
        <ele>51</ele>
        <time>2011-04-10T07:57:18Z</time>
      </trkpt>
      <trkpt lat="46.94506" lon="-1.54312">
        <ele>51</ele>
        <time>2011-04-10T07:57:19Z</time>
      </trkpt>
      <trkpt lat="46.94521" lon="-1.54361">
        <ele>52</ele>
        <time>2011-04-10T07:57:26Z</time>
      </trkpt>
      <trkpt lat="46.9454" lon="-1.54419">
        <ele>53</ele>
        <time>2011-04-10T07:57:35Z</time>
      </trkpt>
      <trkpt lat="46.94557" lon="-1.5447">
        <ele>54</ele>
        <time>2011-04-10T07:57:43Z</time>
      </trkpt>
      <trkpt lat="46.94572" lon="-1.54523">
        <ele>55</ele>
        <time>2011-04-10T07:57:51Z</time>
      </trkpt>
      <trkpt lat="46.94573" lon="-1.54529">
        <ele>55</ele>
        <time>2011-04-10T07:57:52Z</time>
      </trkpt>
      <trkpt lat="46.94579" lon="-1.54549">
        <ele>55</ele>
        <time>2011-04-10T07:57:55Z</time>
      </trkpt>
      <trkpt lat="46.94598" lon="-1.54589">
        <ele>55</ele>
        <time>2011-04-10T07:58:02Z</time>
      </trkpt>
      <trkpt lat="46.94608" lon="-1.54595">
        <ele>55</ele>
        <time>2011-04-10T07:58:05Z</time>
      </trkpt>
      <trkpt lat="46.94612" lon="-1.54592">
        <ele>54</ele>
        <time>2011-04-10T07:58:06Z</time>
      </trkpt>
      <trkpt lat="46.94647" lon="-1.54543">
        <ele>53</ele>
        <time>2011-04-10T07:58:15Z</time>
      </trkpt>
      <trkpt lat="46.94671" lon="-1.54518">
        <ele>50</ele>
        <time>2011-04-10T07:58:20Z</time>
      </trkpt>
      <trkpt lat="46.94678" lon="-1.5451">
        <ele>50</ele>
        <time>2011-04-10T07:58:22Z</time>
      </trkpt>
      <trkpt lat="46.94692" lon="-1.54503">
        <ele>50</ele>
        <time>2011-04-10T07:58:26Z</time>
      </trkpt>
      <trkpt lat="46.94695" lon="-1.54498">
        <ele>49</ele>
        <time>2011-04-10T07:58:27Z</time>
      </trkpt>
      <trkpt lat="46.94725" lon="-1.54454">
        <ele>48</ele>
        <time>2011-04-10T07:58:34Z</time>
      </trkpt>
      <trkpt lat="46.94734" lon="-1.54441">
        <ele>48</ele>
        <time>2011-04-10T07:58:36Z</time>
      </trkpt>
      <trkpt lat="46.94749" lon="-1.54435">
        <ele>48</ele>
        <time>2011-04-10T07:58:39Z</time>
      </trkpt>
      <trkpt lat="46.94757" lon="-1.54447">
        <ele>45</ele>
        <time>2011-04-10T07:58:41Z</time>
      </trkpt>
      <trkpt lat="46.94786" lon="-1.54502">
        <ele>45</ele>
        <time>2011-04-10T07:58:49Z</time>
      </trkpt>
      <trkpt lat="46.94816" lon="-1.54553">
        <ele>45</ele>
        <time>2011-04-10T07:58:57Z</time>
      </trkpt>
      <trkpt lat="46.94844" lon="-1.54603">
        <ele>45</ele>
        <time>2011-04-10T07:59:05Z</time>
      </trkpt>
      <trkpt lat="46.9487" lon="-1.54649">
        <ele>45</ele>
        <time>2011-04-10T07:59:12Z</time>
      </trkpt>
      <trkpt lat="46.94906" lon="-1.54709">
        <ele>45</ele>
        <time>2011-04-10T07:59:21Z</time>
      </trkpt>
      <trkpt lat="46.94945" lon="-1.54776">
        <ele>44</ele>
        <time>2011-04-10T07:59:31Z</time>
      </trkpt>
      <trkpt lat="46.94958" lon="-1.54782">
        <ele>43</ele>
        <time>2011-04-10T07:59:34Z</time>
      </trkpt>
      <trkpt lat="46.94962" lon="-1.54777">
        <ele>43</ele>
        <time>2011-04-10T07:59:35Z</time>
      </trkpt>
      <trkpt lat="46.94982" lon="-1.54764">
        <ele>42</ele>
        <time>2011-04-10T07:59:39Z</time>
      </trkpt>
      <trkpt lat="46.9499" lon="-1.54776">
        <ele>42</ele>
        <time>2011-04-10T07:59:41Z</time>
      </trkpt>
      <trkpt lat="46.95017" lon="-1.54833">
        <ele>41</ele>
        <time>2011-04-10T07:59:49Z</time>
      </trkpt>
      <trkpt lat="46.95025" lon="-1.54865">
        <ele>42</ele>
        <time>2011-04-10T07:59:53Z</time>
      </trkpt>
      <trkpt lat="46.95028" lon="-1.54899">
        <ele>43</ele>
        <time>2011-04-10T07:59:57Z</time>
      </trkpt>
      <trkpt lat="46.95041" lon="-1.54934">
        <ele>44</ele>
        <time>2011-04-10T08:00:02Z</time>
      </trkpt>
      <trkpt lat="46.95062" lon="-1.54938">
        <ele>43</ele>
        <time>2011-04-10T08:00:06Z</time>
      </trkpt>
      <trkpt lat="46.95067" lon="-1.54937">
        <ele>43</ele>
        <time>2011-04-10T08:00:07Z</time>
      </trkpt>
      <trkpt lat="46.95115" lon="-1.5492">
        <ele>42</ele>
        <time>2011-04-10T08:00:15Z</time>
      </trkpt>
      <trkpt lat="46.95135" lon="-1.5491">
        <ele>41</ele>
        <time>2011-04-10T08:00:18Z</time>
      </trkpt>
      <trkpt lat="46.95156" lon="-1.54895">
        <ele>41</ele>
        <time>2011-04-10T08:00:22Z</time>
      </trkpt>
      <trkpt lat="46.95163" lon="-1.54899">
        <ele>41</ele>
        <time>2011-04-10T08:00:25Z</time>
      </trkpt>
      <trkpt lat="46.95165" lon="-1.54898">
        <ele>41</ele>
        <time>2011-04-10T08:00:29Z</time>
      </trkpt>
      <trkpt lat="46.95165" lon="-1.54898">
        <ele>41</ele>
        <time>2011-04-10T08:00:30Z</time>
      </trkpt>
      <trkpt lat="46.95163" lon="-1.54897">
        <ele>41</ele>
        <time>2011-04-10T08:02:02Z</time>
      </trkpt>
      <trkpt lat="46.95166" lon="-1.54892">
        <ele>40</ele>
        <time>2011-04-10T08:02:06Z</time>
      </trkpt>
      <trkpt lat="46.95174" lon="-1.54893">
        <ele>39</ele>
        <time>2011-04-10T08:02:10Z</time>
      </trkpt>
      <trkpt lat="46.9518" lon="-1.54906">
        <ele>40</ele>
        <time>2011-04-10T08:02:13Z</time>
      </trkpt>
      <trkpt lat="46.95197" lon="-1.54958">
        <ele>40</ele>
        <time>2011-04-10T08:02:22Z</time>
      </trkpt>
      <trkpt lat="46.95215" lon="-1.55003">
        <ele>41</ele>
        <time>2011-04-10T08:02:29Z</time>
      </trkpt>
      <trkpt lat="46.95222" lon="-1.55015">
        <ele>40</ele>
        <time>2011-04-10T08:02:31Z</time>
      </trkpt>
      <trkpt lat="46.95261" lon="-1.55064">
        <ele>39</ele>
        <time>2011-04-10T08:02:40Z</time>
      </trkpt>
      <trkpt lat="46.95278" lon="-1.55086">
        <ele>39</ele>
        <time>2011-04-10T08:02:44Z</time>
      </trkpt>
      <trkpt lat="46.95299" lon="-1.55093">
        <ele>38</ele>
        <time>2011-04-10T08:02:48Z</time>
      </trkpt>
      <trkpt lat="46.95354" lon="-1.55063">
        <ele>36</ele>
        <time>2011-04-10T08:02:57Z</time>
      </trkpt>
      <trkpt lat="46.95367" lon="-1.55073">
        <ele>36</ele>
        <time>2011-04-10T08:03:00Z</time>
      </trkpt>
      <trkpt lat="46.95368" lon="-1.5508">
        <ele>36</ele>
        <time>2011-04-10T08:03:01Z</time>
      </trkpt>
      <trkpt lat="46.95368" lon="-1.5513">
        <ele>36</ele>
        <time>2011-04-10T08:03:07Z</time>
      </trkpt>
      <trkpt lat="46.95377" lon="-1.55179">
        <ele>36</ele>
        <time>2011-04-10T08:03:13Z</time>
      </trkpt>
      <trkpt lat="46.95384" lon="-1.55236">
        <ele>36</ele>
        <time>2011-04-10T08:03:20Z</time>
      </trkpt>
      <trkpt lat="46.95388" lon="-1.55266">
        <ele>36</ele>
        <time>2011-04-10T08:03:24Z</time>
      </trkpt>
      <trkpt lat="46.95407" lon="-1.55322">
        <ele>36</ele>
        <time>2011-04-10T08:03:32Z</time>
      </trkpt>
      <trkpt lat="46.95416" lon="-1.55351">
        <ele>36</ele>
        <time>2011-04-10T08:03:36Z</time>
      </trkpt>
      <trkpt lat="46.95432" lon="-1.55401">
        <ele>35</ele>
        <time>2011-04-10T08:03:43Z</time>
      </trkpt>
      <trkpt lat="46.95455" lon="-1.55464">
        <ele>36</ele>
        <time>2011-04-10T08:03:52Z</time>
      </trkpt>
      <trkpt lat="46.95458" lon="-1.55471">
        <ele>36</ele>
        <time>2011-04-10T08:03:53Z</time>
      </trkpt>
      <trkpt lat="46.95462" lon="-1.55491">
        <ele>36</ele>
        <time>2011-04-10T08:03:56Z</time>
      </trkpt>
      <trkpt lat="46.95484" lon="-1.55537">
        <ele>37</ele>
        <time>2011-04-10T08:04:04Z</time>
      </trkpt>
      <trkpt lat="46.95513" lon="-1.55587">
        <ele>36</ele>
        <time>2011-04-10T08:04:14Z</time>
      </trkpt>
      <trkpt lat="46.95537" lon="-1.55619">
        <ele>35</ele>
        <time>2011-04-10T08:04:21Z</time>
      </trkpt>
      <trkpt lat="46.9554" lon="-1.55623">
        <ele>35</ele>
        <time>2011-04-10T08:04:22Z</time>
      </trkpt>
      <trkpt lat="46.95539" lon="-1.55641">
        <ele>35</ele>
        <time>2011-04-10T08:04:26Z</time>
      </trkpt>
      <trkpt lat="46.95509" lon="-1.55666">
        <ele>36</ele>
        <time>2011-04-10T08:04:35Z</time>
      </trkpt>
      <trkpt lat="46.95486" lon="-1.55685">
        <ele>39</ele>
        <time>2011-04-10T08:04:42Z</time>
      </trkpt>
      <trkpt lat="46.95462" lon="-1.55706">
        <ele>40</ele>
        <time>2011-04-10T08:04:50Z</time>
      </trkpt>
      <trkpt lat="46.95439" lon="-1.55727">
        <ele>41</ele>
        <time>2011-04-10T08:04:58Z</time>
      </trkpt>
      <trkpt lat="46.95426" lon="-1.55743">
        <ele>42</ele>
        <time>2011-04-10T08:05:03Z</time>
      </trkpt>
      <trkpt lat="46.95397" lon="-1.55777">
        <ele>45</ele>
        <time>2011-04-10T08:05:13Z</time>
      </trkpt>
      <trkpt lat="46.95368" lon="-1.55809">
        <ele>46</ele>
        <time>2011-04-10T08:05:23Z</time>
      </trkpt>
      <trkpt lat="46.95343" lon="-1.55837">
        <ele>47</ele>
        <time>2011-04-10T08:05:31Z</time>
      </trkpt>
      <trkpt lat="46.95311" lon="-1.55872">
        <ele>48</ele>
        <time>2011-04-10T08:05:40Z</time>
      </trkpt>
      <trkpt lat="46.9527" lon="-1.55915">
        <ele>47</ele>
        <time>2011-04-10T08:05:50Z</time>
      </trkpt>
      <trkpt lat="46.95264" lon="-1.55941">
        <ele>46</ele>
        <time>2011-04-10T08:05:54Z</time>
      </trkpt>
      <trkpt lat="46.95267" lon="-1.55956">
        <ele>46</ele>
        <time>2011-04-10T08:05:56Z</time>
      </trkpt>
      <trkpt lat="46.95264" lon="-1.55999">
        <ele>46</ele>
        <time>2011-04-10T08:06:01Z</time>
      </trkpt>
      <trkpt lat="46.95245" lon="-1.56091">
        <ele>45</ele>
        <time>2011-04-10T08:06:11Z</time>
      </trkpt>
      <trkpt lat="46.95224" lon="-1.56153">
        <ele>45</ele>
        <time>2011-04-10T08:06:18Z</time>
      </trkpt>
      <trkpt lat="46.95198" lon="-1.562">
        <ele>43</ele>
        <time>2011-04-10T08:06:24Z</time>
      </trkpt>
      <trkpt lat="46.95155" lon="-1.56259">
        <ele>41</ele>
        <time>2011-04-10T08:06:32Z</time>
      </trkpt>
      <trkpt lat="46.95117" lon="-1.56307">
        <ele>40</ele>
        <time>2011-04-10T08:06:39Z</time>
      </trkpt>
      <trkpt lat="46.95108" lon="-1.56331">
        <ele>40</ele>
        <time>2011-04-10T08:06:42Z</time>
      </trkpt>
      <trkpt lat="46.95114" lon="-1.56347">
        <ele>40</ele>
        <time>2011-04-10T08:06:44Z</time>
      </trkpt>
      <trkpt lat="46.95119" lon="-1.56354">
        <ele>40</ele>
        <time>2011-04-10T08:06:45Z</time>
      </trkpt>
      <trkpt lat="46.95159" lon="-1.56419">
        <ele>41</ele>
        <time>2011-04-10T08:06:54Z</time>
      </trkpt>
      <trkpt lat="46.95194" lon="-1.56483">
        <ele>41</ele>
        <time>2011-04-10T08:07:03Z</time>
      </trkpt>
      <trkpt lat="46.95205" lon="-1.56503">
        <ele>41</ele>
        <time>2011-04-10T08:07:06Z</time>
      </trkpt>
      <trkpt lat="46.95216" lon="-1.56543">
        <ele>41</ele>
        <time>2011-04-10T08:07:11Z</time>
      </trkpt>
      <trkpt lat="46.95206" lon="-1.56562">
        <ele>41</ele>
        <time>2011-04-10T08:07:14Z</time>
      </trkpt>
      <trkpt lat="46.9518" lon="-1.56585">
        <ele>40</ele>
        <time>2011-04-10T08:07:19Z</time>
      </trkpt>
      <trkpt lat="46.95176" lon="-1.56602">
        <ele>41</ele>
        <time>2011-04-10T08:07:21Z</time>
      </trkpt>
      <trkpt lat="46.95177" lon="-1.56655">
        <ele>40</ele>
        <time>2011-04-10T08:07:27Z</time>
      </trkpt>
      <trkpt lat="46.95194" lon="-1.56701">
        <ele>40</ele>
        <time>2011-04-10T08:07:33Z</time>
      </trkpt>
      <trkpt lat="46.95207" lon="-1.56751">
        <ele>39</ele>
        <time>2011-04-10T08:07:39Z</time>
      </trkpt>
      <trkpt lat="46.95213" lon="-1.56766">
        <ele>39</ele>
        <time>2011-04-10T08:07:41Z</time>
      </trkpt>
      <trkpt lat="46.9522" lon="-1.56798">
        <ele>39</ele>
        <time>2011-04-10T08:07:45Z</time>
      </trkpt>
      <trkpt lat="46.95228" lon="-1.56829">
        <ele>40</ele>
        <time>2011-04-10T08:07:49Z</time>
      </trkpt>
      <trkpt lat="46.95259" lon="-1.56896">
        <ele>38</ele>
        <time>2011-04-10T08:07:58Z</time>
      </trkpt>
      <trkpt lat="46.95275" lon="-1.56941">
        <ele>37</ele>
        <time>2011-04-10T08:08:03Z</time>
      </trkpt>
      <trkpt lat="46.95278" lon="-1.5695">
        <ele>37</ele>
        <time>2011-04-10T08:08:04Z</time>
      </trkpt>
      <trkpt lat="46.95288" lon="-1.57006">
        <ele>36</ele>
        <time>2011-04-10T08:08:10Z</time>
      </trkpt>
      <trkpt lat="46.95293" lon="-1.57045">
        <ele>35</ele>
        <time>2011-04-10T08:08:14Z</time>
      </trkpt>
      <trkpt lat="46.95311" lon="-1.57087">
        <ele>33</ele>
        <time>2011-04-10T08:08:19Z</time>
      </trkpt>
      <trkpt lat="46.95316" lon="-1.57094">
        <ele>33</ele>
        <time>2011-04-10T08:08:20Z</time>
      </trkpt>
      <trkpt lat="46.9534" lon="-1.57108">
        <ele>34</ele>
        <time>2011-04-10T08:08:24Z</time>
      </trkpt>
      <trkpt lat="46.95355" lon="-1.57095">
        <ele>34</ele>
        <time>2011-04-10T08:08:27Z</time>
      </trkpt>
      <trkpt lat="46.95394" lon="-1.57041">
        <ele>37</ele>
        <time>2011-04-10T08:08:37Z</time>
      </trkpt>
      <trkpt lat="46.95431" lon="-1.56994">
        <ele>39</ele>
        <time>2011-04-10T08:08:47Z</time>
      </trkpt>
      <trkpt lat="46.95453" lon="-1.56966">
        <ele>41</ele>
        <time>2011-04-10T08:08:53Z</time>
      </trkpt>
      <trkpt lat="46.95487" lon="-1.56925">
        <ele>43</ele>
        <time>2011-04-10T08:09:02Z</time>
      </trkpt>
      <trkpt lat="46.95502" lon="-1.56906">
        <ele>44</ele>
        <time>2011-04-10T08:09:06Z</time>
      </trkpt>
      <trkpt lat="46.95537" lon="-1.56864">
        <ele>45</ele>
        <time>2011-04-10T08:09:15Z</time>
      </trkpt>
      <trkpt lat="46.95587" lon="-1.5681">
        <ele>46</ele>
        <time>2011-04-10T08:09:27Z</time>
      </trkpt>
      <trkpt lat="46.95603" lon="-1.56793">
        <ele>45</ele>
        <time>2011-04-10T08:09:31Z</time>
      </trkpt>
      <trkpt lat="46.95617" lon="-1.56781">
        <ele>45</ele>
        <time>2011-04-10T08:09:35Z</time>
      </trkpt>
      <trkpt lat="46.95624" lon="-1.56791">
        <ele>45</ele>
        <time>2011-04-10T08:09:37Z</time>
      </trkpt>
      <trkpt lat="46.95647" lon="-1.56846">
        <ele>45</ele>
        <time>2011-04-10T08:09:45Z</time>
      </trkpt>
      <trkpt lat="46.95675" lon="-1.56913">
        <ele>44</ele>
        <time>2011-04-10T08:09:53Z</time>
      </trkpt>
      <trkpt lat="46.957" lon="-1.56963">
        <ele>44</ele>
        <time>2011-04-10T08:09:59Z</time>
      </trkpt>
      <trkpt lat="46.95729" lon="-1.57038">
        <ele>44</ele>
        <time>2011-04-10T08:10:08Z</time>
      </trkpt>
      <trkpt lat="46.95776" lon="-1.57168">
        <ele>44</ele>
        <time>2011-04-10T08:10:24Z</time>
      </trkpt>
      <trkpt lat="46.95782" lon="-1.57184">
        <ele>44</ele>
        <time>2011-04-10T08:10:26Z</time>
      </trkpt>
      <trkpt lat="46.9578" lon="-1.57207">
        <ele>44</ele>
        <time>2011-04-10T08:10:29Z</time>
      </trkpt>
      <trkpt lat="46.95771" lon="-1.57216">
        <ele>44</ele>
        <time>2011-04-10T08:10:31Z</time>
      </trkpt>
      <trkpt lat="46.95716" lon="-1.5726">
        <ele>42</ele>
        <time>2011-04-10T08:10:41Z</time>
      </trkpt>
      <trkpt lat="46.95707" lon="-1.5728">
        <ele>42</ele>
        <time>2011-04-10T08:10:44Z</time>
      </trkpt>
      <trkpt lat="46.95716" lon="-1.57303">
        <ele>42</ele>
        <time>2011-04-10T08:10:47Z</time>
      </trkpt>
      <trkpt lat="46.95733" lon="-1.57332">
        <ele>42</ele>
        <time>2011-04-10T08:10:51Z</time>
      </trkpt>
      <trkpt lat="46.95761" lon="-1.57401">
        <ele>43</ele>
        <time>2011-04-10T08:11:00Z</time>
      </trkpt>
      <trkpt lat="46.95788" lon="-1.5748">
        <ele>43</ele>
        <time>2011-04-10T08:11:10Z</time>
      </trkpt>
      <trkpt lat="46.95803" lon="-1.57497">
        <ele>43</ele>
        <time>2011-04-10T08:11:14Z</time>
      </trkpt>
      <trkpt lat="46.95859" lon="-1.57479">
        <ele>44</ele>
        <time>2011-04-10T08:11:24Z</time>
      </trkpt>
      <trkpt lat="46.9591" lon="-1.57451">
        <ele>44</ele>
        <time>2011-04-10T08:11:33Z</time>
      </trkpt>
      <trkpt lat="46.95966" lon="-1.57415">
        <ele>46</ele>
        <time>2011-04-10T08:11:43Z</time>
      </trkpt>
      <trkpt lat="46.96004" lon="-1.57388">
        <ele>46</ele>
        <time>2011-04-10T08:11:50Z</time>
      </trkpt>
      <trkpt lat="46.9602" lon="-1.57378">
        <ele>46</ele>
        <time>2011-04-10T08:11:53Z</time>
      </trkpt>
      <trkpt lat="46.96039" lon="-1.57384">
        <ele>46</ele>
        <time>2011-04-10T08:11:57Z</time>
      </trkpt>
      <trkpt lat="46.96042" lon="-1.5739">
        <ele>46</ele>
        <time>2011-04-10T08:11:58Z</time>
      </trkpt>
      <trkpt lat="46.96065" lon="-1.5745">
        <ele>46</ele>
        <time>2011-04-10T08:12:06Z</time>
      </trkpt>
      <trkpt lat="46.96093" lon="-1.57521">
        <ele>45</ele>
        <time>2011-04-10T08:12:15Z</time>
      </trkpt>
      <trkpt lat="46.96118" lon="-1.57593">
        <ele>43</ele>
        <time>2011-04-10T08:12:24Z</time>
      </trkpt>
      <trkpt lat="46.96136" lon="-1.57651">
        <ele>43</ele>
        <time>2011-04-10T08:12:31Z</time>
      </trkpt>
      <trkpt lat="46.9614" lon="-1.57659">
        <ele>43</ele>
        <time>2011-04-10T08:12:32Z</time>
      </trkpt>
      <trkpt lat="46.96167" lon="-1.57715">
        <ele>41</ele>
        <time>2011-04-10T08:12:39Z</time>
      </trkpt>
      <trkpt lat="46.96195" lon="-1.57768">
        <ele>39</ele>
        <time>2011-04-10T08:12:45Z</time>
      </trkpt>
      <trkpt lat="46.96213" lon="-1.57805">
        <ele>37</ele>
        <time>2011-04-10T08:12:49Z</time>
      </trkpt>
      <trkpt lat="46.96219" lon="-1.57843">
        <ele>32</ele>
        <time>2011-04-10T08:12:53Z</time>
      </trkpt>
      <trkpt lat="46.96213" lon="-1.5789">
        <ele>31</ele>
        <time>2011-04-10T08:12:57Z</time>
      </trkpt>
      <trkpt lat="46.96209" lon="-1.57925">
        <ele>26</ele>
        <time>2011-04-10T08:13:00Z</time>
      </trkpt>
      <trkpt lat="46.96207" lon="-1.57943">
        <ele>26</ele>
        <time>2011-04-10T08:13:02Z</time>
      </trkpt>
      <trkpt lat="46.96198" lon="-1.57976">
        <ele>25</ele>
        <time>2011-04-10T08:13:06Z</time>
      </trkpt>
      <trkpt lat="46.962" lon="-1.57985">
        <ele>25</ele>
        <time>2011-04-10T08:13:07Z</time>
      </trkpt>
      <trkpt lat="46.96219" lon="-1.58051">
        <ele>25</ele>
        <time>2011-04-10T08:13:15Z</time>
      </trkpt>
      <trkpt lat="46.96214" lon="-1.58088">
        <ele>30</ele>
        <time>2011-04-10T08:13:20Z</time>
      </trkpt>
      <trkpt lat="46.96217" lon="-1.58108">
        <ele>31</ele>
        <time>2011-04-10T08:13:23Z</time>
      </trkpt>
      <trkpt lat="46.96216" lon="-1.58119">
        <ele>31</ele>
        <time>2011-04-10T08:13:25Z</time>
      </trkpt>
      <trkpt lat="46.96216" lon="-1.5813">
        <ele>32</ele>
        <time>2011-04-10T08:13:28Z</time>
      </trkpt>
      <trkpt lat="46.96209" lon="-1.58123">
        <ele>31</ele>
        <time>2011-04-10T08:13:31Z</time>
      </trkpt>
      <trkpt lat="46.96201" lon="-1.58129">
        <ele>32</ele>
        <time>2011-04-10T08:13:36Z</time>
      </trkpt>
      <trkpt lat="46.96202" lon="-1.58131">
        <ele>32</ele>
        <time>2011-04-10T08:13:37Z</time>
      </trkpt>
      <trkpt lat="46.96203" lon="-1.58135">
        <ele>32</ele>
        <time>2011-04-10T08:13:39Z</time>
      </trkpt>
      <trkpt lat="46.96208" lon="-1.58138">
        <ele>32</ele>
        <time>2011-04-10T08:13:42Z</time>
      </trkpt>
      <trkpt lat="46.96211" lon="-1.58148">
        <ele>33</ele>
        <time>2011-04-10T08:13:46Z</time>
      </trkpt>
      <trkpt lat="46.96216" lon="-1.58159">
        <ele>33</ele>
        <time>2011-04-10T08:13:51Z</time>
      </trkpt>
      <trkpt lat="46.96227" lon="-1.58157">
        <ele>33</ele>
        <time>2011-04-10T08:13:57Z</time>
      </trkpt>
      <trkpt lat="46.96236" lon="-1.58173">
        <ele>37</ele>
        <time>2011-04-10T08:14:01Z</time>
      </trkpt>
      <trkpt lat="46.96242" lon="-1.58188">
        <ele>38</ele>
        <time>2011-04-10T08:14:05Z</time>
      </trkpt>
      <trkpt lat="46.96248" lon="-1.58194">
        <ele>38</ele>
        <time>2011-04-10T08:14:08Z</time>
      </trkpt>
      <trkpt lat="46.96252" lon="-1.58203">
        <ele>39</ele>
        <time>2011-04-10T08:14:12Z</time>
      </trkpt>
      <trkpt lat="46.96252" lon="-1.58205">
        <ele>39</ele>
        <time>2011-04-10T08:14:13Z</time>
      </trkpt>
      <trkpt lat="46.96251" lon="-1.58209">
        <ele>39</ele>
        <time>2011-04-10T08:14:15Z</time>
      </trkpt>
      <trkpt lat="46.96248" lon="-1.58217">
        <ele>39</ele>
        <time>2011-04-10T08:14:20Z</time>
      </trkpt>
      <trkpt lat="46.96251" lon="-1.58233">
        <ele>40</ele>
        <time>2011-04-10T08:14:26Z</time>
      </trkpt>
      <trkpt lat="46.9625" lon="-1.58235">
        <ele>40</ele>
        <time>2011-04-10T08:14:27Z</time>
      </trkpt>
      <trkpt lat="46.96248" lon="-1.58239">
        <ele>40</ele>
        <time>2011-04-10T08:14:29Z</time>
      </trkpt>
      <trkpt lat="46.96252" lon="-1.58252">
        <ele>41</ele>
        <time>2011-04-10T08:14:35Z</time>
      </trkpt>
      <trkpt lat="46.96249" lon="-1.58264">
        <ele>42</ele>
        <time>2011-04-10T08:14:41Z</time>
      </trkpt>
      <trkpt lat="46.96248" lon="-1.58264">
        <ele>42</ele>
        <time>2011-04-10T08:14:42Z</time>
      </trkpt>
      <trkpt lat="46.9624" lon="-1.58254">
        <ele>42</ele>
        <time>2011-04-10T08:14:47Z</time>
      </trkpt>
      <trkpt lat="46.96229" lon="-1.5826">
        <ele>42</ele>
        <time>2011-04-10T08:14:51Z</time>
      </trkpt>
      <trkpt lat="46.96213" lon="-1.5828">
        <ele>43</ele>
        <time>2011-04-10T08:14:57Z</time>
      </trkpt>
      <trkpt lat="46.96199" lon="-1.58294">
        <ele>43</ele>
        <time>2011-04-10T08:15:03Z</time>
      </trkpt>
      <trkpt lat="46.96185" lon="-1.58312">
        <ele>43</ele>
        <time>2011-04-10T08:15:08Z</time>
      </trkpt>
      <trkpt lat="46.96164" lon="-1.58336">
        <ele>44</ele>
        <time>2011-04-10T08:15:15Z</time>
      </trkpt>
      <trkpt lat="46.96153" lon="-1.58346">
        <ele>43</ele>
        <time>2011-04-10T08:15:18Z</time>
      </trkpt>
      <trkpt lat="46.96143" lon="-1.58338">
        <ele>43</ele>
        <time>2011-04-10T08:15:21Z</time>
      </trkpt>
      <trkpt lat="46.96141" lon="-1.58331">
        <ele>41</ele>
        <time>2011-04-10T08:15:22Z</time>
      </trkpt>
      <trkpt lat="46.96135" lon="-1.58318">
        <ele>41</ele>
        <time>2011-04-10T08:15:24Z</time>
      </trkpt>
      <trkpt lat="46.96133" lon="-1.58297">
        <ele>40</ele>
        <time>2011-04-10T08:15:27Z</time>
      </trkpt>
      <trkpt lat="46.96133" lon="-1.5829">
        <ele>40</ele>
        <time>2011-04-10T08:15:29Z</time>
      </trkpt>
      <trkpt lat="46.96127" lon="-1.58263">
        <ele>40</ele>
        <time>2011-04-10T08:15:35Z</time>
      </trkpt>
      <trkpt lat="46.96117" lon="-1.58228">
        <ele>36</ele>
        <time>2011-04-10T08:15:41Z</time>
      </trkpt>
      <trkpt lat="46.96106" lon="-1.58217">
        <ele>35</ele>
        <time>2011-04-10T08:15:44Z</time>
      </trkpt>
      <trkpt lat="46.96096" lon="-1.5821">
        <ele>34</ele>
        <time>2011-04-10T08:15:47Z</time>
      </trkpt>
      <trkpt lat="46.96082" lon="-1.58214">
        <ele>30</ele>
        <time>2011-04-10T08:15:50Z</time>
      </trkpt>
      <trkpt lat="46.96061" lon="-1.58212">
        <ele>29</ele>
        <time>2011-04-10T08:15:54Z</time>
      </trkpt>
      <trkpt lat="46.96049" lon="-1.58198">
        <ele>28</ele>
        <time>2011-04-10T08:15:57Z</time>
      </trkpt>
      <trkpt lat="46.96043" lon="-1.58189">
        <ele>28</ele>
        <time>2011-04-10T08:15:59Z</time>
      </trkpt>
      <trkpt lat="46.96022" lon="-1.58202">
        <ele>27</ele>
        <time>2011-04-10T08:16:04Z</time>
      </trkpt>
      <trkpt lat="46.95978" lon="-1.58225">
        <ele>25</ele>
        <time>2011-04-10T08:16:12Z</time>
      </trkpt>
      <trkpt lat="46.95939" lon="-1.58246">
        <ele>25</ele>
        <time>2011-04-10T08:16:20Z</time>
      </trkpt>
      <trkpt lat="46.95935" lon="-1.58248">
        <ele>25</ele>
        <time>2011-04-10T08:16:21Z</time>
      </trkpt>
      <trkpt lat="46.95936" lon="-1.58258">
        <ele>29</ele>
        <time>2011-04-10T08:16:25Z</time>
      </trkpt>
      <trkpt lat="46.95938" lon="-1.58258">
        <ele>29</ele>
        <time>2011-04-10T08:16:26Z</time>
      </trkpt>
      <trkpt lat="46.95953" lon="-1.58255">
        <ele>29</ele>
        <time>2011-04-10T08:16:32Z</time>
      </trkpt>
      <trkpt lat="46.95971" lon="-1.58251">
        <ele>30</ele>
        <time>2011-04-10T08:16:39Z</time>
      </trkpt>
      <trkpt lat="46.95987" lon="-1.58248">
        <ele>26</ele>
        <time>2011-04-10T08:16:44Z</time>
      </trkpt>
      <trkpt lat="46.95991" lon="-1.58257">
        <ele>29</ele>
        <time>2011-04-10T08:16:48Z</time>
      </trkpt>
      <trkpt lat="46.95987" lon="-1.58276">
        <ele>30</ele>
        <time>2011-04-10T08:16:53Z</time>
      </trkpt>
      <trkpt lat="46.95985" lon="-1.58276">
        <ele>30</ele>
        <time>2011-04-10T08:16:54Z</time>
      </trkpt>
      <trkpt lat="46.95981" lon="-1.58277">
        <ele>30</ele>
        <time>2011-04-10T08:16:57Z</time>
      </trkpt>
      <trkpt lat="46.95974" lon="-1.58287">
        <ele>31</ele>
        <time>2011-04-10T08:17:04Z</time>
      </trkpt>
      <trkpt lat="46.95966" lon="-1.5829">
        <ele>31</ele>
        <time>2011-04-10T08:17:09Z</time>
      </trkpt>
      <trkpt lat="46.95959" lon="-1.58297">
        <ele>31</ele>
        <time>2011-04-10T08:17:14Z</time>
      </trkpt>
      <trkpt lat="46.9595" lon="-1.58298">
        <ele>31</ele>
        <time>2011-04-10T08:17:18Z</time>
      </trkpt>
      <trkpt lat="46.95939" lon="-1.58293">
        <ele>31</ele>
        <time>2011-04-10T08:17:23Z</time>
      </trkpt>
      <trkpt lat="46.95936" lon="-1.58295">
        <ele>31</ele>
        <time>2011-04-10T08:17:24Z</time>
      </trkpt>
      <trkpt lat="46.95929" lon="-1.58305">
        <ele>32</ele>
        <time>2011-04-10T08:17:28Z</time>
      </trkpt>
      <trkpt lat="46.95919" lon="-1.58317">
        <ele>33</ele>
        <time>2011-04-10T08:17:33Z</time>
      </trkpt>
      <trkpt lat="46.95914" lon="-1.58324">
        <ele>33</ele>
        <time>2011-04-10T08:17:36Z</time>
      </trkpt>
      <trkpt lat="46.95911" lon="-1.58334">
        <ele>36</ele>
        <time>2011-04-10T08:17:41Z</time>
      </trkpt>
      <trkpt lat="46.95915" lon="-1.58336">
        <ele>36</ele>
        <time>2011-04-10T08:17:44Z</time>
      </trkpt>
      <trkpt lat="46.95916" lon="-1.58339">
        <ele>36</ele>
        <time>2011-04-10T08:17:46Z</time>
      </trkpt>
      <trkpt lat="46.95912" lon="-1.58355">
        <ele>36</ele>
        <time>2011-04-10T08:17:53Z</time>
      </trkpt>
      <trkpt lat="46.95908" lon="-1.58366">
        <ele>36</ele>
        <time>2011-04-10T08:17:58Z</time>
      </trkpt>
      <trkpt lat="46.95906" lon="-1.58369">
        <ele>36</ele>
        <time>2011-04-10T08:18:01Z</time>
      </trkpt>
      <trkpt lat="46.95906" lon="-1.5837">
        <ele>36</ele>
        <time>2011-04-10T08:18:02Z</time>
      </trkpt>
      <trkpt lat="46.95905" lon="-1.58371">
        <ele>36</ele>
        <time>2011-04-10T08:18:05Z</time>
      </trkpt>
      <trkpt lat="46.95901" lon="-1.58375">
        <ele>37</ele>
        <time>2011-04-10T08:18:08Z</time>
      </trkpt>
      <trkpt lat="46.95894" lon="-1.58378">
        <ele>36</ele>
        <time>2011-04-10T08:18:13Z</time>
      </trkpt>
      <trkpt lat="46.95884" lon="-1.58381">
        <ele>36</ele>
        <time>2011-04-10T08:18:18Z</time>
      </trkpt>
      <trkpt lat="46.95875" lon="-1.58381">
        <ele>36</ele>
        <time>2011-04-10T08:18:22Z</time>
      </trkpt>
      <trkpt lat="46.95869" lon="-1.58388">
        <ele>36</ele>
        <time>2011-04-10T08:18:26Z</time>
      </trkpt>
      <trkpt lat="46.9586" lon="-1.58395">
        <ele>36</ele>
        <time>2011-04-10T08:18:30Z</time>
      </trkpt>
      <trkpt lat="46.95851" lon="-1.58398">
        <ele>36</ele>
        <time>2011-04-10T08:18:34Z</time>
      </trkpt>
      <trkpt lat="46.95838" lon="-1.58397">
        <ele>36</ele>
        <time>2011-04-10T08:18:38Z</time>
      </trkpt>
      <trkpt lat="46.95828" lon="-1.58401">
        <ele>33</ele>
        <time>2011-04-10T08:18:41Z</time>
      </trkpt>
      <trkpt lat="46.9582" lon="-1.58407">
        <ele>32</ele>
        <time>2011-04-10T08:18:44Z</time>
      </trkpt>
      <trkpt lat="46.95813" lon="-1.58409">
        <ele>32</ele>
        <time>2011-04-10T08:18:47Z</time>
      </trkpt>
      <trkpt lat="46.95798" lon="-1.5841">
        <ele>30</ele>
        <time>2011-04-10T08:18:53Z</time>
      </trkpt>
      <trkpt lat="46.95791" lon="-1.58414">
        <ele>29</ele>
        <time>2011-04-10T08:18:57Z</time>
      </trkpt>
      <trkpt lat="46.9579" lon="-1.58417">
        <ele>33</ele>
        <time>2011-04-10T08:18:58Z</time>
      </trkpt>
      <trkpt lat="46.95787" lon="-1.58421">
        <ele>33</ele>
        <time>2011-04-10T08:19:00Z</time>
      </trkpt>
      <trkpt lat="46.95776" lon="-1.5843">
        <ele>32</ele>
        <time>2011-04-10T08:19:05Z</time>
      </trkpt>
      <trkpt lat="46.95762" lon="-1.58429">
        <ele>30</ele>
        <time>2011-04-10T08:19:11Z</time>
      </trkpt>
      <trkpt lat="46.95751" lon="-1.58431">
        <ele>30</ele>
        <time>2011-04-10T08:19:15Z</time>
      </trkpt>
      <trkpt lat="46.95748" lon="-1.58436">
        <ele>27</ele>
        <time>2011-04-10T08:19:17Z</time>
      </trkpt>
      <trkpt lat="46.95743" lon="-1.58439">
        <ele>27</ele>
        <time>2011-04-10T08:19:22Z</time>
      </trkpt>
      <trkpt lat="46.95734" lon="-1.5844">
        <ele>27</ele>
        <time>2011-04-10T08:19:26Z</time>
      </trkpt>
      <trkpt lat="46.95725" lon="-1.5844">
        <ele>27</ele>
        <time>2011-04-10T08:19:28Z</time>
      </trkpt>
      <trkpt lat="46.95715" lon="-1.58446">
        <ele>27</ele>
        <time>2011-04-10T08:19:30Z</time>
      </trkpt>
      <trkpt lat="46.95687" lon="-1.58468">
        <ele>27</ele>
        <time>2011-04-10T08:19:36Z</time>
      </trkpt>
      <trkpt lat="46.95665" lon="-1.58478">
        <ele>26</ele>
        <time>2011-04-10T08:19:40Z</time>
      </trkpt>
      <trkpt lat="46.95623" lon="-1.58482">
        <ele>25</ele>
        <time>2011-04-10T08:19:47Z</time>
      </trkpt>
      <trkpt lat="46.956" lon="-1.58477">
        <ele>24</ele>
        <time>2011-04-10T08:19:51Z</time>
      </trkpt>
      <trkpt lat="46.95566" lon="-1.58455">
        <ele>22</ele>
        <time>2011-04-10T08:19:58Z</time>
      </trkpt>
      <trkpt lat="46.95543" lon="-1.58429">
        <ele>21</ele>
        <time>2011-04-10T08:20:03Z</time>
      </trkpt>
      <trkpt lat="46.95522" lon="-1.58389">
        <ele>20</ele>
        <time>2011-04-10T08:20:09Z</time>
      </trkpt>
      <trkpt lat="46.95508" lon="-1.58368">
        <ele>20</ele>
        <time>2011-04-10T08:20:13Z</time>
      </trkpt>
      <trkpt lat="46.95487" lon="-1.58323">
        <ele>22</ele>
        <time>2011-04-10T08:20:20Z</time>
      </trkpt>
      <trkpt lat="46.95465" lon="-1.58273">
        <ele>24</ele>
        <time>2011-04-10T08:20:28Z</time>
      </trkpt>
      <trkpt lat="46.9545" lon="-1.58239">
        <ele>27</ele>
        <time>2011-04-10T08:20:34Z</time>
      </trkpt>
      <trkpt lat="46.95447" lon="-1.58214">
        <ele>28</ele>
        <time>2011-04-10T08:20:39Z</time>
      </trkpt>
      <trkpt lat="46.95446" lon="-1.58201">
        <ele>29</ele>
        <time>2011-04-10T08:20:44Z</time>
      </trkpt>
      <trkpt lat="46.95446" lon="-1.58191">
        <ele>29</ele>
        <time>2011-04-10T08:20:49Z</time>
      </trkpt>
      <trkpt lat="46.95443" lon="-1.58183">
        <ele>29</ele>
        <time>2011-04-10T08:20:54Z</time>
      </trkpt>
      <trkpt lat="46.95434" lon="-1.58181">
        <ele>29</ele>
        <time>2011-04-10T08:20:58Z</time>
      </trkpt>
      <trkpt lat="46.95417" lon="-1.58162">
        <ele>31</ele>
        <time>2011-04-10T08:21:02Z</time>
      </trkpt>
      <trkpt lat="46.95404" lon="-1.58147">
        <ele>31</ele>
        <time>2011-04-10T08:21:06Z</time>
      </trkpt>
      <trkpt lat="46.95392" lon="-1.58141">
        <ele>31</ele>
        <time>2011-04-10T08:21:10Z</time>
      </trkpt>
      <trkpt lat="46.95381" lon="-1.58134">
        <ele>31</ele>
        <time>2011-04-10T08:21:12Z</time>
      </trkpt>
      <trkpt lat="46.95362" lon="-1.58135">
        <ele>30</ele>
        <time>2011-04-10T08:21:16Z</time>
      </trkpt>
      <trkpt lat="46.95342" lon="-1.5813">
        <ele>30</ele>
        <time>2011-04-10T08:21:19Z</time>
      </trkpt>
      <trkpt lat="46.9532" lon="-1.58114">
        <ele>28</ele>
        <time>2011-04-10T08:21:23Z</time>
      </trkpt>
      <trkpt lat="46.95303" lon="-1.58097">
        <ele>28</ele>
        <time>2011-04-10T08:21:27Z</time>
      </trkpt>
      <trkpt lat="46.95282" lon="-1.58073">
        <ele>33</ele>
        <time>2011-04-10T08:21:33Z</time>
      </trkpt>
      <trkpt lat="46.95265" lon="-1.58068">
        <ele>32</ele>
        <time>2011-04-10T08:21:38Z</time>
      </trkpt>
      <trkpt lat="46.95251" lon="-1.58062">
        <ele>32</ele>
        <time>2011-04-10T08:21:42Z</time>
      </trkpt>
      <trkpt lat="46.95246" lon="-1.58064">
        <ele>31</ele>
        <time>2011-04-10T08:21:46Z</time>
      </trkpt>
      <trkpt lat="46.95236" lon="-1.58072">
        <ele>30</ele>
        <time>2011-04-10T08:21:51Z</time>
      </trkpt>
      <trkpt lat="46.95213" lon="-1.58069">
        <ele>32</ele>
        <time>2011-04-10T08:21:57Z</time>
      </trkpt>
      <trkpt lat="46.95197" lon="-1.58071">
        <ele>32</ele>
        <time>2011-04-10T08:22:01Z</time>
      </trkpt>
      <trkpt lat="46.9519" lon="-1.58073">
        <ele>32</ele>
        <time>2011-04-10T08:22:03Z</time>
      </trkpt>
      <trkpt lat="46.95167" lon="-1.58093">
        <ele>28</ele>
        <time>2011-04-10T08:22:09Z</time>
      </trkpt>
      <trkpt lat="46.95157" lon="-1.5811">
        <ele>28</ele>
        <time>2011-04-10T08:22:12Z</time>
      </trkpt>
      <trkpt lat="46.9515" lon="-1.5813">
        <ele>28</ele>
        <time>2011-04-10T08:22:15Z</time>
      </trkpt>
      <trkpt lat="46.95143" lon="-1.58141">
        <ele>27</ele>
        <time>2011-04-10T08:22:17Z</time>
      </trkpt>
      <trkpt lat="46.95137" lon="-1.5815">
        <ele>27</ele>
        <time>2011-04-10T08:22:19Z</time>
      </trkpt>
      <trkpt lat="46.95125" lon="-1.58159">
        <ele>27</ele>
        <time>2011-04-10T08:22:23Z</time>
      </trkpt>
      <trkpt lat="46.95123" lon="-1.5816">
        <ele>27</ele>
        <time>2011-04-10T08:22:24Z</time>
      </trkpt>
      <trkpt lat="46.95115" lon="-1.58159">
        <ele>27</ele>
        <time>2011-04-10T08:22:28Z</time>
      </trkpt>
      <trkpt lat="46.95107" lon="-1.58162">
        <ele>27</ele>
        <time>2011-04-10T08:22:31Z</time>
      </trkpt>
      <trkpt lat="46.95082" lon="-1.58192">
        <ele>26</ele>
        <time>2011-04-10T08:22:39Z</time>
      </trkpt>
      <trkpt lat="46.95058" lon="-1.58228">
        <ele>25</ele>
        <time>2011-04-10T08:22:46Z</time>
      </trkpt>
      <trkpt lat="46.95026" lon="-1.58276">
        <ele>26</ele>
        <time>2011-04-10T08:22:55Z</time>
      </trkpt>
      <trkpt lat="46.94999" lon="-1.58327">
        <ele>27</ele>
        <time>2011-04-10T08:23:03Z</time>
      </trkpt>
      <trkpt lat="46.94982" lon="-1.58358">
        <ele>28</ele>
        <time>2011-04-10T08:23:08Z</time>
      </trkpt>
      <trkpt lat="46.94956" lon="-1.58398">
        <ele>28</ele>
        <time>2011-04-10T08:23:15Z</time>
      </trkpt>
      <trkpt lat="46.9494" lon="-1.58422">
        <ele>29</ele>
        <time>2011-04-10T08:23:19Z</time>
      </trkpt>
      <trkpt lat="46.94925" lon="-1.58442">
        <ele>29</ele>
        <time>2011-04-10T08:23:23Z</time>
      </trkpt>
      <trkpt lat="46.949" lon="-1.58463">
        <ele>28</ele>
        <time>2011-04-10T08:23:29Z</time>
      </trkpt>
      <trkpt lat="46.94859" lon="-1.58474">
        <ele>27</ele>
        <time>2011-04-10T08:23:37Z</time>
      </trkpt>
      <trkpt lat="46.94827" lon="-1.58469">
        <ele>26</ele>
        <time>2011-04-10T08:23:43Z</time>
      </trkpt>
      <trkpt lat="46.94808" lon="-1.58459">
        <ele>27</ele>
        <time>2011-04-10T08:23:47Z</time>
      </trkpt>
      <trkpt lat="46.94784" lon="-1.58435">
        <ele>27</ele>
        <time>2011-04-10T08:23:52Z</time>
      </trkpt>
      <trkpt lat="46.94753" lon="-1.58394">
        <ele>29</ele>
        <time>2011-04-10T08:23:59Z</time>
      </trkpt>
      <trkpt lat="46.94741" lon="-1.58376">
        <ele>28</ele>
        <time>2011-04-10T08:24:02Z</time>
      </trkpt>
      <trkpt lat="46.94716" lon="-1.58344">
        <ele>29</ele>
        <time>2011-04-10T08:24:08Z</time>
      </trkpt>
      <trkpt lat="46.94713" lon="-1.58338">
        <ele>29</ele>
        <time>2011-04-10T08:24:10Z</time>
      </trkpt>
      <trkpt lat="46.94716" lon="-1.58338">
        <ele>29</ele>
        <time>2011-04-10T08:24:12Z</time>
      </trkpt>
      <trkpt lat="46.94723" lon="-1.58338">
        <ele>29</ele>
        <time>2011-04-10T08:24:15Z</time>
      </trkpt>
      <trkpt lat="46.94726" lon="-1.58329">
        <ele>31</ele>
        <time>2011-04-10T08:24:18Z</time>
      </trkpt>
      <trkpt lat="46.94725" lon="-1.58326">
        <ele>31</ele>
        <time>2011-04-10T08:24:19Z</time>
      </trkpt>
      <trkpt lat="46.94718" lon="-1.58298">
        <ele>31</ele>
        <time>2011-04-10T08:24:26Z</time>
      </trkpt>
      <trkpt lat="46.94714" lon="-1.58281">
        <ele>31</ele>
        <time>2011-04-10T08:24:30Z</time>
      </trkpt>
      <trkpt lat="46.94703" lon="-1.58244">
        <ele>32</ele>
        <time>2011-04-10T08:24:39Z</time>
      </trkpt>
      <trkpt lat="46.94702" lon="-1.58222">
        <ele>33</ele>
        <time>2011-04-10T08:24:45Z</time>
      </trkpt>
      <trkpt lat="46.94691" lon="-1.58212">
        <ele>33</ele>
        <time>2011-04-10T08:24:50Z</time>
      </trkpt>
      <trkpt lat="46.94671" lon="-1.58189">
        <ele>33</ele>
        <time>2011-04-10T08:24:58Z</time>
      </trkpt>
      <trkpt lat="46.94664" lon="-1.58192">
        <ele>32</ele>
        <time>2011-04-10T08:25:03Z</time>
      </trkpt>
      <trkpt lat="46.94659" lon="-1.58199">
        <ele>32</ele>
        <time>2011-04-10T08:25:06Z</time>
      </trkpt>
      <trkpt lat="46.94659" lon="-1.58203">
        <ele>32</ele>
        <time>2011-04-10T08:25:07Z</time>
      </trkpt>
      <trkpt lat="46.94659" lon="-1.58213">
        <ele>31</ele>
        <time>2011-04-10T08:25:10Z</time>
      </trkpt>
      <trkpt lat="46.94662" lon="-1.58228">
        <ele>31</ele>
        <time>2011-04-10T08:25:14Z</time>
      </trkpt>
      <trkpt lat="46.94661" lon="-1.58235">
        <ele>31</ele>
        <time>2011-04-10T08:25:16Z</time>
      </trkpt>
      <trkpt lat="46.94651" lon="-1.5825">
        <ele>31</ele>
        <time>2011-04-10T08:25:19Z</time>
      </trkpt>
      <trkpt lat="46.94642" lon="-1.58259">
        <ele>29</ele>
        <time>2011-04-10T08:25:22Z</time>
      </trkpt>
      <trkpt lat="46.9464" lon="-1.58262">
        <ele>29</ele>
        <time>2011-04-10T08:25:23Z</time>
      </trkpt>
      <trkpt lat="46.94638" lon="-1.58268">
        <ele>29</ele>
        <time>2011-04-10T08:25:25Z</time>
      </trkpt>
      <trkpt lat="46.94631" lon="-1.58263">
        <ele>29</ele>
        <time>2011-04-10T08:25:29Z</time>
      </trkpt>
      <trkpt lat="46.9463" lon="-1.5826">
        <ele>29</ele>
        <time>2011-04-10T08:25:30Z</time>
      </trkpt>
      <trkpt lat="46.94619" lon="-1.58238">
        <ele>31</ele>
        <time>2011-04-10T08:25:36Z</time>
      </trkpt>
      <trkpt lat="46.94603" lon="-1.58214">
        <ele>32</ele>
        <time>2011-04-10T08:25:42Z</time>
      </trkpt>
      <trkpt lat="46.94587" lon="-1.58194">
        <ele>31</ele>
        <time>2011-04-10T08:25:48Z</time>
      </trkpt>
      <trkpt lat="46.94572" lon="-1.58179">
        <ele>33</ele>
        <time>2011-04-10T08:25:53Z</time>
      </trkpt>
      <trkpt lat="46.94556" lon="-1.5817">
        <ele>34</ele>
        <time>2011-04-10T08:25:59Z</time>
      </trkpt>
      <trkpt lat="46.94542" lon="-1.58167">
        <ele>34</ele>
        <time>2011-04-10T08:26:05Z</time>
      </trkpt>
      <trkpt lat="46.94537" lon="-1.5817">
        <ele>35</ele>
        <time>2011-04-10T08:26:10Z</time>
      </trkpt>
      <trkpt lat="46.94534" lon="-1.58172">
        <ele>35</ele>
        <time>2011-04-10T08:26:12Z</time>
      </trkpt>
      <trkpt lat="46.94524" lon="-1.58186">
        <ele>35</ele>
        <time>2011-04-10T08:26:19Z</time>
      </trkpt>
      <trkpt lat="46.94516" lon="-1.58197">
        <ele>35</ele>
        <time>2011-04-10T08:26:25Z</time>
      </trkpt>
      <trkpt lat="46.94505" lon="-1.5821">
        <ele>36</ele>
        <time>2011-04-10T08:26:31Z</time>
      </trkpt>
      <trkpt lat="46.94494" lon="-1.58219">
        <ele>38</ele>
        <time>2011-04-10T08:26:36Z</time>
      </trkpt>
      <trkpt lat="46.94493" lon="-1.58221">
        <ele>38</ele>
        <time>2011-04-10T08:26:37Z</time>
      </trkpt>
      <trkpt lat="46.9449" lon="-1.58244">
        <ele>38</ele>
        <time>2011-04-10T08:26:43Z</time>
      </trkpt>
      <trkpt lat="46.94492" lon="-1.58265">
        <ele>37</ele>
        <time>2011-04-10T08:26:48Z</time>
      </trkpt>
      <trkpt lat="46.94502" lon="-1.58276">
        <ele>33</ele>
        <time>2011-04-10T08:26:54Z</time>
      </trkpt>
      <trkpt lat="46.94514" lon="-1.58274">
        <ele>33</ele>
        <time>2011-04-10T08:26:59Z</time>
      </trkpt>
      <trkpt lat="46.94539" lon="-1.58269">
        <ele>32</ele>
        <time>2011-04-10T08:27:06Z</time>
      </trkpt>
      <trkpt lat="46.94544" lon="-1.5827">
        <ele>32</ele>
        <time>2011-04-10T08:27:07Z</time>
      </trkpt>
      <trkpt lat="46.94568" lon="-1.58273">
        <ele>31</ele>
        <time>2011-04-10T08:27:13Z</time>
      </trkpt>
      <trkpt lat="46.94581" lon="-1.58277">
        <ele>31</ele>
        <time>2011-04-10T08:27:16Z</time>
      </trkpt>
      <trkpt lat="46.94594" lon="-1.58281">
        <ele>29</ele>
        <time>2011-04-10T08:27:18Z</time>
      </trkpt>
      <trkpt lat="46.94617" lon="-1.58286">
        <ele>29</ele>
        <time>2011-04-10T08:27:23Z</time>
      </trkpt>
      <trkpt lat="46.94622" lon="-1.58284">
        <ele>29</ele>
        <time>2011-04-10T08:27:25Z</time>
      </trkpt>
      <trkpt lat="46.94628" lon="-1.5828">
        <ele>29</ele>
        <time>2011-04-10T08:27:27Z</time>
      </trkpt>
      <trkpt lat="46.94631" lon="-1.58278">
        <ele>29</ele>
        <time>2011-04-10T08:27:28Z</time>
      </trkpt>
      <trkpt lat="46.94642" lon="-1.58286">
        <ele>29</ele>
        <time>2011-04-10T08:27:32Z</time>
      </trkpt>
      <trkpt lat="46.94646" lon="-1.58294">
        <ele>28</ele>
        <time>2011-04-10T08:27:35Z</time>
      </trkpt>
      <trkpt lat="46.94642" lon="-1.58301">
        <ele>28</ele>
        <time>2011-04-10T08:27:39Z</time>
      </trkpt>
      <trkpt lat="46.94642" lon="-1.58309">
        <ele>28</ele>
        <time>2011-04-10T08:27:43Z</time>
      </trkpt>
      <trkpt lat="46.94643" lon="-1.58311">
        <ele>28</ele>
        <time>2011-04-10T08:27:45Z</time>
      </trkpt>
      <trkpt lat="46.94643" lon="-1.58313">
        <ele>28</ele>
        <time>2011-04-10T08:27:48Z</time>
      </trkpt>
      <trkpt lat="46.94643" lon="-1.58314">
        <ele>28</ele>
        <time>2011-04-10T08:27:49Z</time>
      </trkpt>
      <trkpt lat="46.94644" lon="-1.58317">
        <ele>28</ele>
        <time>2011-04-10T08:27:58Z</time>
      </trkpt>
      <trkpt lat="46.94644" lon="-1.58318">
        <ele>28</ele>
        <time>2011-04-10T08:27:59Z</time>
      </trkpt>
      <trkpt lat="46.94644" lon="-1.5832">
        <ele>28</ele>
        <time>2011-04-10T08:28:03Z</time>
      </trkpt>
      <trkpt lat="46.94644" lon="-1.58321">
        <ele>28</ele>
        <time>2011-04-10T08:28:04Z</time>
      </trkpt>
      <trkpt lat="46.94647" lon="-1.58324">
        <ele>28</ele>
        <time>2011-04-10T08:28:11Z</time>
      </trkpt>
      <trkpt lat="46.94648" lon="-1.58324">
        <ele>28</ele>
        <time>2011-04-10T08:28:12Z</time>
      </trkpt>
      <trkpt lat="46.94655" lon="-1.58329">
        <ele>27</ele>
        <time>2011-04-10T08:28:18Z</time>
      </trkpt>
      <trkpt lat="46.94656" lon="-1.58332">
        <ele>27</ele>
        <time>2011-04-10T08:28:19Z</time>
      </trkpt>
      <trkpt lat="46.94661" lon="-1.58339">
        <ele>27</ele>
        <time>2011-04-10T08:28:22Z</time>
      </trkpt>
      <trkpt lat="46.94674" lon="-1.58336">
        <ele>27</ele>
        <time>2011-04-10T08:28:28Z</time>
      </trkpt>
      <trkpt lat="46.94681" lon="-1.58333">
        <ele>29</ele>
        <time>2011-04-10T08:28:31Z</time>
      </trkpt>
      <trkpt lat="46.94685" lon="-1.58328">
        <ele>29</ele>
        <time>2011-04-10T08:28:35Z</time>
      </trkpt>
      <trkpt lat="46.94673" lon="-1.58322">
        <ele>28</ele>
        <time>2011-04-10T08:28:40Z</time>
      </trkpt>
      <trkpt lat="46.9465" lon="-1.58314">
        <ele>28</ele>
        <time>2011-04-10T08:28:46Z</time>
      </trkpt>
      <trkpt lat="46.94646" lon="-1.58313">
        <ele>28</ele>
        <time>2011-04-10T08:28:47Z</time>
      </trkpt>
      <trkpt lat="46.94613" lon="-1.58307">
        <ele>28</ele>
        <time>2011-04-10T08:28:54Z</time>
      </trkpt>
      <trkpt lat="46.94588" lon="-1.58303">
        <ele>28</ele>
        <time>2011-04-10T08:28:59Z</time>
      </trkpt>
      <trkpt lat="46.94561" lon="-1.58303">
        <ele>30</ele>
        <time>2011-04-10T08:29:04Z</time>
      </trkpt>
      <trkpt lat="46.94528" lon="-1.5831">
        <ele>30</ele>
        <time>2011-04-10T08:29:10Z</time>
      </trkpt>
      <trkpt lat="46.94512" lon="-1.58316">
        <ele>30</ele>
        <time>2011-04-10T08:29:13Z</time>
      </trkpt>
      <trkpt lat="46.94484" lon="-1.58336">
        <ele>30</ele>
        <time>2011-04-10T08:29:19Z</time>
      </trkpt>
      <trkpt lat="46.94467" lon="-1.58357">
        <ele>31</ele>
        <time>2011-04-10T08:29:23Z</time>
      </trkpt>
      <trkpt lat="46.94457" lon="-1.58374">
        <ele>31</ele>
        <time>2011-04-10T08:29:26Z</time>
      </trkpt>
      <trkpt lat="46.9444" lon="-1.58388">
        <ele>32</ele>
        <time>2011-04-10T08:29:30Z</time>
      </trkpt>
      <trkpt lat="46.94438" lon="-1.5839">
        <ele>32</ele>
        <time>2011-04-10T08:29:31Z</time>
      </trkpt>
      <trkpt lat="46.94433" lon="-1.58391">
        <ele>32</ele>
        <time>2011-04-10T08:29:33Z</time>
      </trkpt>
      <trkpt lat="46.94429" lon="-1.58393">
        <ele>32</ele>
        <time>2011-04-10T08:29:35Z</time>
      </trkpt>
      <trkpt lat="46.94419" lon="-1.5841">
        <ele>32</ele>
        <time>2011-04-10T08:29:40Z</time>
      </trkpt>
      <trkpt lat="46.94407" lon="-1.58433">
        <ele>33</ele>
        <time>2011-04-10T08:29:45Z</time>
      </trkpt>
      <trkpt lat="46.944" lon="-1.58443">
        <ele>34</ele>
        <time>2011-04-10T08:29:48Z</time>
      </trkpt>
      <trkpt lat="46.94394" lon="-1.58463">
        <ele>34</ele>
        <time>2011-04-10T08:29:52Z</time>
      </trkpt>
      <trkpt lat="46.94389" lon="-1.58491">
        <ele>33</ele>
        <time>2011-04-10T08:29:56Z</time>
      </trkpt>
      <trkpt lat="46.9439" lon="-1.58517">
        <ele>30</ele>
        <time>2011-04-10T08:30:00Z</time>
      </trkpt>
      <trkpt lat="46.94392" lon="-1.58542">
        <ele>30</ele>
        <time>2011-04-10T08:30:04Z</time>
      </trkpt>
      <trkpt lat="46.9439" lon="-1.58555">
        <ele>29</ele>
        <time>2011-04-10T08:30:06Z</time>
      </trkpt>
      <trkpt lat="46.94385" lon="-1.58583">
        <ele>28</ele>
        <time>2011-04-10T08:30:10Z</time>
      </trkpt>
      <trkpt lat="46.94378" lon="-1.58635">
        <ele>26</ele>
        <time>2011-04-10T08:30:16Z</time>
      </trkpt>
      <trkpt lat="46.94362" lon="-1.58681">
        <ele>25</ele>
        <time>2011-04-10T08:30:22Z</time>
      </trkpt>
      <trkpt lat="46.94356" lon="-1.58693">
        <ele>25</ele>
        <time>2011-04-10T08:30:24Z</time>
      </trkpt>
      <trkpt lat="46.9436" lon="-1.58712">
        <ele>24</ele>
        <time>2011-04-10T08:30:28Z</time>
      </trkpt>
      <trkpt lat="46.94364" lon="-1.58714">
        <ele>24</ele>
        <time>2011-04-10T08:30:29Z</time>
      </trkpt>
      <trkpt lat="46.94375" lon="-1.58723">
        <ele>24</ele>
        <time>2011-04-10T08:30:32Z</time>
      </trkpt>
      <trkpt lat="46.94372" lon="-1.58729">
        <ele>24</ele>
        <time>2011-04-10T08:30:34Z</time>
      </trkpt>
      <trkpt lat="46.94368" lon="-1.5873">
        <ele>24</ele>
        <time>2011-04-10T08:30:35Z</time>
      </trkpt>
      <trkpt lat="46.94345" lon="-1.58739">
        <ele>24</ele>
        <time>2011-04-10T08:30:40Z</time>
      </trkpt>
      <trkpt lat="46.94324" lon="-1.58755">
        <ele>24</ele>
        <time>2011-04-10T08:30:45Z</time>
      </trkpt>
      <trkpt lat="46.94313" lon="-1.58777">
        <ele>25</ele>
        <time>2011-04-10T08:30:49Z</time>
      </trkpt>
      <trkpt lat="46.94305" lon="-1.58781">
        <ele>25</ele>
        <time>2011-04-10T08:30:51Z</time>
      </trkpt>
      <trkpt lat="46.9428" lon="-1.58777">
        <ele>25</ele>
        <time>2011-04-10T08:30:57Z</time>
      </trkpt>
      <trkpt lat="46.94276" lon="-1.58776">
        <ele>26</ele>
        <time>2011-04-10T08:30:58Z</time>
      </trkpt>
      <trkpt lat="46.94271" lon="-1.58774">
        <ele>26</ele>
        <time>2011-04-10T08:31:00Z</time>
      </trkpt>
      <trkpt lat="46.94258" lon="-1.58776">
        <ele>26</ele>
        <time>2011-04-10T08:31:05Z</time>
      </trkpt>
      <trkpt lat="46.94251" lon="-1.58778">
        <ele>26</ele>
        <time>2011-04-10T08:31:07Z</time>
      </trkpt>
      <trkpt lat="46.94232" lon="-1.58787">
        <ele>29</ele>
        <time>2011-04-10T08:31:13Z</time>
      </trkpt>
      <trkpt lat="46.94219" lon="-1.58794">
        <ele>29</ele>
        <time>2011-04-10T08:31:17Z</time>
      </trkpt>
      <trkpt lat="46.94215" lon="-1.58807">
        <ele>29</ele>
        <time>2011-04-10T08:31:22Z</time>
      </trkpt>
      <trkpt lat="46.94213" lon="-1.58813">
        <ele>29</ele>
        <time>2011-04-10T08:31:24Z</time>
      </trkpt>
      <trkpt lat="46.9421" lon="-1.58816">
        <ele>29</ele>
        <time>2011-04-10T08:31:28Z</time>
      </trkpt>
      <trkpt lat="46.94205" lon="-1.58819">
        <ele>29</ele>
        <time>2011-04-10T08:31:30Z</time>
      </trkpt>
      <trkpt lat="46.94201" lon="-1.5882">
        <ele>29</ele>
        <time>2011-04-10T08:31:33Z</time>
      </trkpt>
      <trkpt lat="46.94199" lon="-1.58819">
        <ele>29</ele>
        <time>2011-04-10T08:31:35Z</time>
      </trkpt>
      <trkpt lat="46.94197" lon="-1.58818">
        <ele>29</ele>
        <time>2011-04-10T08:31:39Z</time>
      </trkpt>
      <trkpt lat="46.94196" lon="-1.58817">
        <ele>29</ele>
        <time>2011-04-10T08:31:40Z</time>
      </trkpt>
      <trkpt lat="46.94187" lon="-1.58822">
        <ele>30</ele>
        <time>2011-04-10T08:31:45Z</time>
      </trkpt>
      <trkpt lat="46.94173" lon="-1.58833">
        <ele>30</ele>
        <time>2011-04-10T08:31:50Z</time>
      </trkpt>
      <trkpt lat="46.94162" lon="-1.58843">
        <ele>29</ele>
        <time>2011-04-10T08:31:54Z</time>
      </trkpt>
      <trkpt lat="46.94148" lon="-1.5886">
        <ele>29</ele>
        <time>2011-04-10T08:31:59Z</time>
      </trkpt>
      <trkpt lat="46.94134" lon="-1.58876">
        <ele>28</ele>
        <time>2011-04-10T08:32:04Z</time>
      </trkpt>
      <trkpt lat="46.94131" lon="-1.5888">
        <ele>28</ele>
        <time>2011-04-10T08:32:05Z</time>
      </trkpt>
      <trkpt lat="46.94132" lon="-1.58892">
        <ele>28</ele>
        <time>2011-04-10T08:32:08Z</time>
      </trkpt>
      <trkpt lat="46.94145" lon="-1.58895">
        <ele>27</ele>
        <time>2011-04-10T08:32:11Z</time>
      </trkpt>
      <trkpt lat="46.94152" lon="-1.58902">
        <ele>26</ele>
        <time>2011-04-10T08:32:13Z</time>
      </trkpt>
      <trkpt lat="46.94153" lon="-1.58913">
        <ele>25</ele>
        <time>2011-04-10T08:32:15Z</time>
      </trkpt>
      <trkpt lat="46.9416" lon="-1.58937">
        <ele>23</ele>
        <time>2011-04-10T08:32:20Z</time>
      </trkpt>
      <trkpt lat="46.9417" lon="-1.58947">
        <ele>23</ele>
        <time>2011-04-10T08:32:24Z</time>
      </trkpt>
      <trkpt lat="46.94169" lon="-1.58974">
        <ele>22</ele>
        <time>2011-04-10T08:32:28Z</time>
      </trkpt>
      <trkpt lat="46.94167" lon="-1.5898">
        <ele>22</ele>
        <time>2011-04-10T08:32:29Z</time>
      </trkpt>
      <trkpt lat="46.94162" lon="-1.58992">
        <ele>21</ele>
        <time>2011-04-10T08:32:31Z</time>
      </trkpt>
      <trkpt lat="46.94158" lon="-1.5903">
        <ele>22</ele>
        <time>2011-04-10T08:32:36Z</time>
      </trkpt>
      <trkpt lat="46.94158" lon="-1.59071">
        <ele>24</ele>
        <time>2011-04-10T08:32:41Z</time>
      </trkpt>
      <trkpt lat="46.94146" lon="-1.59094">
        <ele>25</ele>
        <time>2011-04-10T08:32:45Z</time>
      </trkpt>
      <trkpt lat="46.94141" lon="-1.59098">
        <ele>25</ele>
        <time>2011-04-10T08:32:46Z</time>
      </trkpt>
      <trkpt lat="46.94131" lon="-1.59107">
        <ele>24</ele>
        <time>2011-04-10T08:32:48Z</time>
      </trkpt>
      <trkpt lat="46.94124" lon="-1.59135">
        <ele>25</ele>
        <time>2011-04-10T08:32:52Z</time>
      </trkpt>
      <trkpt lat="46.94133" lon="-1.59172">
        <ele>28</ele>
        <time>2011-04-10T08:32:57Z</time>
      </trkpt>
      <trkpt lat="46.94131" lon="-1.5918">
        <ele>28</ele>
        <time>2011-04-10T08:32:58Z</time>
      </trkpt>
      <trkpt lat="46.94121" lon="-1.59209">
        <ele>29</ele>
        <time>2011-04-10T08:33:02Z</time>
      </trkpt>
      <trkpt lat="46.94103" lon="-1.5922">
        <ele>28</ele>
        <time>2011-04-10T08:33:06Z</time>
      </trkpt>
      <trkpt lat="46.94087" lon="-1.59232">
        <ele>27</ele>
        <time>2011-04-10T08:33:10Z</time>
      </trkpt>
      <trkpt lat="46.94073" lon="-1.59233">
        <ele>25</ele>
        <time>2011-04-10T08:33:14Z</time>
      </trkpt>
      <trkpt lat="46.9406" lon="-1.59231">
        <ele>24</ele>
        <time>2011-04-10T08:33:17Z</time>
      </trkpt>
      <trkpt lat="46.94042" lon="-1.59243">
        <ele>24</ele>
        <time>2011-04-10T08:33:21Z</time>
      </trkpt>
      <trkpt lat="46.94035" lon="-1.5927">
        <ele>27</ele>
        <time>2011-04-10T08:33:26Z</time>
      </trkpt>
      <trkpt lat="46.94033" lon="-1.59292">
        <ele>28</ele>
        <time>2011-04-10T08:33:30Z</time>
      </trkpt>
      <trkpt lat="46.94025" lon="-1.59294">
        <ele>28</ele>
        <time>2011-04-10T08:33:33Z</time>
      </trkpt>
      <trkpt lat="46.94018" lon="-1.59298">
        <ele>28</ele>
        <time>2011-04-10T08:33:35Z</time>
      </trkpt>
      <trkpt lat="46.94008" lon="-1.59309">
        <ele>28</ele>
        <time>2011-04-10T08:33:38Z</time>
      </trkpt>
      <trkpt lat="46.93989" lon="-1.593">
        <ele>26</ele>
        <time>2011-04-10T08:33:43Z</time>
      </trkpt>
      <trkpt lat="46.93965" lon="-1.59288">
        <ele>25</ele>
        <time>2011-04-10T08:33:48Z</time>
      </trkpt>
      <trkpt lat="46.93957" lon="-1.59283">
        <ele>25</ele>
        <time>2011-04-10T08:33:50Z</time>
      </trkpt>
      <trkpt lat="46.93942" lon="-1.59269">
        <ele>25</ele>
        <time>2011-04-10T08:33:54Z</time>
      </trkpt>
      <trkpt lat="46.93918" lon="-1.59276">
        <ele>25</ele>
        <time>2011-04-10T08:34:00Z</time>
      </trkpt>
      <trkpt lat="46.93898" lon="-1.59284">
        <ele>26</ele>
        <time>2011-04-10T08:34:05Z</time>
      </trkpt>
      <trkpt lat="46.93854" lon="-1.5929">
        <ele>26</ele>
        <time>2011-04-10T08:34:15Z</time>
      </trkpt>
      <trkpt lat="46.93831" lon="-1.59295">
        <ele>26</ele>
        <time>2011-04-10T08:34:20Z</time>
      </trkpt>
      <trkpt lat="46.93783" lon="-1.59291">
        <ele>26</ele>
        <time>2011-04-10T08:34:30Z</time>
      </trkpt>
      <trkpt lat="46.93778" lon="-1.59291">
        <ele>26</ele>
        <time>2011-04-10T08:34:31Z</time>
      </trkpt>
      <trkpt lat="46.93744" lon="-1.59295">
        <ele>26</ele>
        <time>2011-04-10T08:34:38Z</time>
      </trkpt>
      <trkpt lat="46.93719" lon="-1.59295">
        <ele>26</ele>
        <time>2011-04-10T08:34:43Z</time>
      </trkpt>
      <trkpt lat="46.93679" lon="-1.59297">
        <ele>26</ele>
        <time>2011-04-10T08:34:51Z</time>
      </trkpt>
      <trkpt lat="46.93668" lon="-1.59298">
        <ele>25</ele>
        <time>2011-04-10T08:34:53Z</time>
      </trkpt>
      <trkpt lat="46.93657" lon="-1.593">
        <ele>27</ele>
        <time>2011-04-10T08:34:55Z</time>
      </trkpt>
      <trkpt lat="46.9364" lon="-1.59306">
        <ele>27</ele>
        <time>2011-04-10T08:34:59Z</time>
      </trkpt>
      <trkpt lat="46.9363" lon="-1.59302">
        <ele>28</ele>
        <time>2011-04-10T08:35:02Z</time>
      </trkpt>
      <trkpt lat="46.93629" lon="-1.59303">
        <ele>28</ele>
        <time>2011-04-10T08:35:05Z</time>
      </trkpt>
      <trkpt lat="46.93629" lon="-1.59303">
        <ele>28</ele>
        <time>2011-04-10T08:35:08Z</time>
      </trkpt>
      <trkpt lat="46.93629" lon="-1.59304">
        <ele>28</ele>
        <time>2011-04-10T08:35:09Z</time>
      </trkpt>
      <trkpt lat="46.93628" lon="-1.5931">
        <ele>28</ele>
        <time>2011-04-10T08:35:13Z</time>
      </trkpt>
      <trkpt lat="46.93623" lon="-1.59318">
        <ele>28</ele>
        <time>2011-04-10T08:35:20Z</time>
      </trkpt>
      <trkpt lat="46.93623" lon="-1.59319">
        <ele>28</ele>
        <time>2011-04-10T08:35:21Z</time>
      </trkpt>
      <trkpt lat="46.93618" lon="-1.59323">
        <ele>28</ele>
        <time>2011-04-10T08:35:25Z</time>
      </trkpt>
      <trkpt lat="46.93605" lon="-1.59334">
        <ele>28</ele>
        <time>2011-04-10T08:35:30Z</time>
      </trkpt>
      <trkpt lat="46.93594" lon="-1.59346">
        <ele>28</ele>
        <time>2011-04-10T08:35:34Z</time>
      </trkpt>
      <trkpt lat="46.9358" lon="-1.59365">
        <ele>30</ele>
        <time>2011-04-10T08:35:39Z</time>
      </trkpt>
      <trkpt lat="46.93573" lon="-1.59375">
        <ele>30</ele>
        <time>2011-04-10T08:35:41Z</time>
      </trkpt>
      <trkpt lat="46.9355" lon="-1.59404">
        <ele>29</ele>
        <time>2011-04-10T08:35:47Z</time>
      </trkpt>
      <trkpt lat="46.93523" lon="-1.59441">
        <ele>29</ele>
        <time>2011-04-10T08:35:54Z</time>
      </trkpt>
      <trkpt lat="46.93507" lon="-1.59462">
        <ele>29</ele>
        <time>2011-04-10T08:35:59Z</time>
      </trkpt>
      <trkpt lat="46.93501" lon="-1.59462">
        <ele>29</ele>
        <time>2011-04-10T08:36:03Z</time>
      </trkpt>
      <trkpt lat="46.93491" lon="-1.59456">
        <ele>30</ele>
        <time>2011-04-10T08:36:09Z</time>
      </trkpt>
      <trkpt lat="46.93496" lon="-1.59451">
        <ele>30</ele>
        <time>2011-04-10T08:36:14Z</time>
      </trkpt>
      <trkpt lat="46.93501" lon="-1.59444">
        <ele>29</ele>
        <time>2011-04-10T08:36:17Z</time>
      </trkpt>
      <trkpt lat="46.93503" lon="-1.59443">
        <ele>29</ele>
        <time>2011-04-10T08:36:18Z</time>
      </trkpt>
      <trkpt lat="46.93511" lon="-1.5943">
        <ele>30</ele>
        <time>2011-04-10T08:36:23Z</time>
      </trkpt>
      <trkpt lat="46.93523" lon="-1.59417">
        <ele>29</ele>
        <time>2011-04-10T08:36:29Z</time>
      </trkpt>
      <trkpt lat="46.93528" lon="-1.594">
        <ele>30</ele>
        <time>2011-04-10T08:36:34Z</time>
      </trkpt>
      <trkpt lat="46.93535" lon="-1.59392">
        <ele>30</ele>
        <time>2011-04-10T08:36:38Z</time>
      </trkpt>
      <trkpt lat="46.93543" lon="-1.59381">
        <ele>30</ele>
        <time>2011-04-10T08:36:43Z</time>
      </trkpt>
      <trkpt lat="46.93553" lon="-1.59372">
        <ele>30</ele>
        <time>2011-04-10T08:36:48Z</time>
      </trkpt>
      <trkpt lat="46.93564" lon="-1.59358">
        <ele>30</ele>
        <time>2011-04-10T08:36:54Z</time>
      </trkpt>
      <trkpt lat="46.93573" lon="-1.5935">
        <ele>30</ele>
        <time>2011-04-10T08:36:58Z</time>
      </trkpt>
      <trkpt lat="46.93577" lon="-1.59348">
        <ele>30</ele>
        <time>2011-04-10T08:37:00Z</time>
      </trkpt>
      <trkpt lat="46.93584" lon="-1.59332">
        <ele>30</ele>
        <time>2011-04-10T08:37:06Z</time>
      </trkpt>
      <trkpt lat="46.93586" lon="-1.59326">
        <ele>29</ele>
        <time>2011-04-10T08:37:08Z</time>
      </trkpt>
      <trkpt lat="46.93593" lon="-1.59322">
        <ele>29</ele>
        <time>2011-04-10T08:37:13Z</time>
      </trkpt>
      <trkpt lat="46.93595" lon="-1.5932">
        <ele>29</ele>
        <time>2011-04-10T08:37:14Z</time>
      </trkpt>
      <trkpt lat="46.93606" lon="-1.59321">
        <ele>29</ele>
        <time>2011-04-10T08:37:20Z</time>
      </trkpt>
      <trkpt lat="46.93611" lon="-1.59325">
        <ele>28</ele>
        <time>2011-04-10T08:37:24Z</time>
      </trkpt>
      <trkpt lat="46.93612" lon="-1.59325">
        <ele>28</ele>
        <time>2011-04-10T08:37:25Z</time>
      </trkpt>
      <trkpt lat="46.93612" lon="-1.59324">
        <ele>28</ele>
        <time>2011-04-10T08:37:28Z</time>
      </trkpt>
      <trkpt lat="46.93613" lon="-1.59323">
        <ele>28</ele>
        <time>2011-04-10T08:37:29Z</time>
      </trkpt>
      <trkpt lat="46.93616" lon="-1.59318">
        <ele>28</ele>
        <time>2011-04-10T08:37:30Z</time>
      </trkpt>
      <trkpt lat="46.93616" lon="-1.5931">
        <ele>28</ele>
        <time>2011-04-10T08:37:36Z</time>
      </trkpt>
      <trkpt lat="46.93614" lon="-1.59303">
        <ele>28</ele>
        <time>2011-04-10T08:37:41Z</time>
      </trkpt>
      <trkpt lat="46.93615" lon="-1.59299">
        <ele>28</ele>
        <time>2011-04-10T08:37:45Z</time>
      </trkpt>
      <trkpt lat="46.93617" lon="-1.59294">
        <ele>28</ele>
        <time>2011-04-10T08:37:48Z</time>
      </trkpt>
      <trkpt lat="46.93618" lon="-1.59292">
        <ele>28</ele>
        <time>2011-04-10T08:37:51Z</time>
      </trkpt>
      <trkpt lat="46.9362" lon="-1.59282">
        <ele>28</ele>
        <time>2011-04-10T08:37:56Z</time>
      </trkpt>
      <trkpt lat="46.93628" lon="-1.5927">
        <ele>28</ele>
        <time>2011-04-10T08:38:03Z</time>
      </trkpt>
      <trkpt lat="46.93626" lon="-1.59261">
        <ele>28</ele>
        <time>2011-04-10T08:38:07Z</time>
      </trkpt>
      <trkpt lat="46.93612" lon="-1.5924">
        <ele>31</ele>
        <time>2011-04-10T08:38:13Z</time>
      </trkpt>
      <trkpt lat="46.936" lon="-1.59218">
        <ele>31</ele>
        <time>2011-04-10T08:38:18Z</time>
      </trkpt>
      <trkpt lat="46.93591" lon="-1.59204">
        <ele>31</ele>
        <time>2011-04-10T08:38:21Z</time>
      </trkpt>
      <trkpt lat="46.93566" lon="-1.59165">
        <ele>35</ele>
        <time>2011-04-10T08:38:29Z</time>
      </trkpt>
      <trkpt lat="46.93554" lon="-1.59142">
        <ele>36</ele>
        <time>2011-04-10T08:38:34Z</time>
      </trkpt>
      <trkpt lat="46.93548" lon="-1.59123">
        <ele>36</ele>
        <time>2011-04-10T08:38:38Z</time>
      </trkpt>
      <trkpt lat="46.93538" lon="-1.59097">
        <ele>36</ele>
        <time>2011-04-10T08:38:44Z</time>
      </trkpt>
      <trkpt lat="46.93532" lon="-1.59085">
        <ele>36</ele>
        <time>2011-04-10T08:38:47Z</time>
      </trkpt>
      <trkpt lat="46.93522" lon="-1.59078">
        <ele>38</ele>
        <time>2011-04-10T08:38:51Z</time>
      </trkpt>
      <trkpt lat="46.93503" lon="-1.59079">
        <ele>37</ele>
        <time>2011-04-10T08:38:58Z</time>
      </trkpt>
      <trkpt lat="46.93499" lon="-1.59075">
        <ele>37</ele>
        <time>2011-04-10T08:39:03Z</time>
      </trkpt>
      <trkpt lat="46.93498" lon="-1.59073">
        <ele>37</ele>
        <time>2011-04-10T08:39:04Z</time>
      </trkpt>
      <trkpt lat="46.93493" lon="-1.59061">
        <ele>38</ele>
        <time>2011-04-10T08:39:08Z</time>
      </trkpt>
      <trkpt lat="46.93489" lon="-1.59055">
        <ele>38</ele>
        <time>2011-04-10T08:39:12Z</time>
      </trkpt>
      <trkpt lat="46.93489" lon="-1.59054">
        <ele>38</ele>
        <time>2011-04-10T08:39:15Z</time>
      </trkpt>
      <trkpt lat="46.93484" lon="-1.59052">
        <ele>38</ele>
        <time>2011-04-10T08:39:19Z</time>
      </trkpt>
      <trkpt lat="46.93479" lon="-1.59044">
        <ele>38</ele>
        <time>2011-04-10T08:39:26Z</time>
      </trkpt>
      <trkpt lat="46.93475" lon="-1.59038">
        <ele>38</ele>
        <time>2011-04-10T08:39:32Z</time>
      </trkpt>
      <trkpt lat="46.93472" lon="-1.59034">
        <ele>38</ele>
        <time>2011-04-10T08:39:36Z</time>
      </trkpt>
      <trkpt lat="46.93468" lon="-1.59026">
        <ele>38</ele>
        <time>2011-04-10T08:39:41Z</time>
      </trkpt>
      <trkpt lat="46.93468" lon="-1.59019">
        <ele>38</ele>
        <time>2011-04-10T08:39:44Z</time>
      </trkpt>
      <trkpt lat="46.93465" lon="-1.59007">
        <ele>38</ele>
        <time>2011-04-10T08:39:49Z</time>
      </trkpt>
      <trkpt lat="46.93461" lon="-1.58997">
        <ele>38</ele>
        <time>2011-04-10T08:39:56Z</time>
      </trkpt>
      <trkpt lat="46.93456" lon="-1.58989">
        <ele>37</ele>
        <time>2011-04-10T08:40:02Z</time>
      </trkpt>
      <trkpt lat="46.93448" lon="-1.58974">
        <ele>37</ele>
        <time>2011-04-10T08:40:08Z</time>
      </trkpt>
      <trkpt lat="46.93447" lon="-1.58973">
        <ele>37</ele>
        <time>2011-04-10T08:40:09Z</time>
      </trkpt>
      <trkpt lat="46.93443" lon="-1.58963">
        <ele>37</ele>
        <time>2011-04-10T08:40:16Z</time>
      </trkpt>
      <trkpt lat="46.93443" lon="-1.58962">
        <ele>37</ele>
        <time>2011-04-10T08:40:17Z</time>
      </trkpt>
      <trkpt lat="46.93442" lon="-1.58961">
        <ele>37</ele>
        <time>2011-04-10T08:40:22Z</time>
      </trkpt>
      <trkpt lat="46.9344" lon="-1.58952">
        <ele>37</ele>
        <time>2011-04-10T08:40:27Z</time>
      </trkpt>
      <trkpt lat="46.93439" lon="-1.58947">
        <ele>37</ele>
        <time>2011-04-10T08:40:32Z</time>
      </trkpt>
      <trkpt lat="46.93439" lon="-1.58946">
        <ele>37</ele>
        <time>2011-04-10T08:40:33Z</time>
      </trkpt>
      <trkpt lat="46.9344" lon="-1.58944">
        <ele>37</ele>
        <time>2011-04-10T08:40:36Z</time>
      </trkpt>
      <trkpt lat="46.93444" lon="-1.58935">
        <ele>37</ele>
        <time>2011-04-10T08:40:42Z</time>
      </trkpt>
      <trkpt lat="46.93445" lon="-1.58935">
        <ele>37</ele>
        <time>2011-04-10T08:40:45Z</time>
      </trkpt>
      <trkpt lat="46.93445" lon="-1.58935">
        <ele>37</ele>
        <time>2011-04-10T08:41:11Z</time>
      </trkpt>
      <trkpt lat="46.93447" lon="-1.58936">
        <ele>37</ele>
        <time>2011-04-10T08:41:12Z</time>
      </trkpt>
      <trkpt lat="46.93453" lon="-1.58931">
        <ele>37</ele>
        <time>2011-04-10T08:41:17Z</time>
      </trkpt>
      <trkpt lat="46.93457" lon="-1.5893">
        <ele>37</ele>
        <time>2011-04-10T08:41:20Z</time>
      </trkpt>
      <trkpt lat="46.93459" lon="-1.5893">
        <ele>38</ele>
        <time>2011-04-10T08:41:22Z</time>
      </trkpt>
      <trkpt lat="46.93464" lon="-1.58939">
        <ele>38</ele>
        <time>2011-04-10T08:41:27Z</time>
      </trkpt>
      <trkpt lat="46.93467" lon="-1.58944">
        <ele>38</ele>
        <time>2011-04-10T08:41:29Z</time>
      </trkpt>
      <trkpt lat="46.93472" lon="-1.58961">
        <ele>38</ele>
        <time>2011-04-10T08:41:35Z</time>
      </trkpt>
      <trkpt lat="46.93474" lon="-1.58965">
        <ele>38</ele>
        <time>2011-04-10T08:41:36Z</time>
      </trkpt>
      <trkpt lat="46.93481" lon="-1.58981">
        <ele>38</ele>
        <time>2011-04-10T08:41:41Z</time>
      </trkpt>
      <trkpt lat="46.9349" lon="-1.58995">
        <ele>38</ele>
        <time>2011-04-10T08:41:46Z</time>
      </trkpt>
      <trkpt lat="46.93497" lon="-1.5901">
        <ele>39</ele>
        <time>2011-04-10T08:41:50Z</time>
      </trkpt>
      <trkpt lat="46.93505" lon="-1.59017">
        <ele>39</ele>
        <time>2011-04-10T08:41:54Z</time>
      </trkpt>
      <trkpt lat="46.93512" lon="-1.59019">
        <ele>39</ele>
        <time>2011-04-10T08:41:57Z</time>
      </trkpt>
      <trkpt lat="46.93523" lon="-1.59021">
        <ele>39</ele>
        <time>2011-04-10T08:42:01Z</time>
      </trkpt>
      <trkpt lat="46.93532" lon="-1.59022">
        <ele>39</ele>
        <time>2011-04-10T08:42:05Z</time>
      </trkpt>
      <trkpt lat="46.9354" lon="-1.59021">
        <ele>39</ele>
        <time>2011-04-10T08:42:09Z</time>
      </trkpt>
      <trkpt lat="46.93549" lon="-1.5901">
        <ele>39</ele>
        <time>2011-04-10T08:42:16Z</time>
      </trkpt>
      <trkpt lat="46.93548" lon="-1.58997">
        <ele>41</ele>
        <time>2011-04-10T08:42:21Z</time>
      </trkpt>
      <trkpt lat="46.93549" lon="-1.58989">
        <ele>41</ele>
        <time>2011-04-10T08:42:24Z</time>
      </trkpt>
      <trkpt lat="46.93556" lon="-1.58973">
        <ele>41</ele>
        <time>2011-04-10T08:42:30Z</time>
      </trkpt>
      <trkpt lat="46.93564" lon="-1.58957">
        <ele>41</ele>
        <time>2011-04-10T08:42:35Z</time>
      </trkpt>
      <trkpt lat="46.93559" lon="-1.58934">
        <ele>41</ele>
        <time>2011-04-10T08:42:39Z</time>
      </trkpt>
      <trkpt lat="46.93552" lon="-1.58907">
        <ele>41</ele>
        <time>2011-04-10T08:42:44Z</time>
      </trkpt>
      <trkpt lat="46.93557" lon="-1.58898">
        <ele>41</ele>
        <time>2011-04-10T08:42:47Z</time>
      </trkpt>
      <trkpt lat="46.93569" lon="-1.58885">
        <ele>41</ele>
        <time>2011-04-10T08:42:51Z</time>
      </trkpt>
      <trkpt lat="46.93594" lon="-1.58857">
        <ele>42</ele>
        <time>2011-04-10T08:42:59Z</time>
      </trkpt>
      <trkpt lat="46.93618" lon="-1.5883">
        <ele>42</ele>
        <time>2011-04-10T08:43:06Z</time>
      </trkpt>
      <trkpt lat="46.93629" lon="-1.58819">
        <ele>42</ele>
        <time>2011-04-10T08:43:09Z</time>
      </trkpt>
      <trkpt lat="46.93663" lon="-1.58779">
        <ele>42</ele>
        <time>2011-04-10T08:43:19Z</time>
      </trkpt>
      <trkpt lat="46.93667" lon="-1.58776">
        <ele>43</ele>
        <time>2011-04-10T08:43:20Z</time>
      </trkpt>
      <trkpt lat="46.93686" lon="-1.58755">
        <ele>43</ele>
        <time>2011-04-10T08:43:26Z</time>
      </trkpt>
      <trkpt lat="46.93693" lon="-1.58766">
        <ele>43</ele>
        <time>2011-04-10T08:43:30Z</time>
      </trkpt>
      <trkpt lat="46.93695" lon="-1.58789">
        <ele>43</ele>
        <time>2011-04-10T08:43:34Z</time>
      </trkpt>
      <trkpt lat="46.93703" lon="-1.58798">
        <ele>43</ele>
        <time>2011-04-10T08:43:37Z</time>
      </trkpt>
      <trkpt lat="46.93708" lon="-1.58797">
        <ele>43</ele>
        <time>2011-04-10T08:43:38Z</time>
      </trkpt>
      <trkpt lat="46.93752" lon="-1.58772">
        <ele>43</ele>
        <time>2011-04-10T08:43:48Z</time>
      </trkpt>
      <trkpt lat="46.93789" lon="-1.58744">
        <ele>43</ele>
        <time>2011-04-10T08:43:56Z</time>
      </trkpt>
      <trkpt lat="46.93826" lon="-1.58715">
        <ele>42</ele>
        <time>2011-04-10T08:44:03Z</time>
      </trkpt>
      <trkpt lat="46.93836" lon="-1.58681">
        <ele>41</ele>
        <time>2011-04-10T08:44:07Z</time>
      </trkpt>
      <trkpt lat="46.93829" lon="-1.58663">
        <ele>41</ele>
        <time>2011-04-10T08:44:09Z</time>
      </trkpt>
      <trkpt lat="46.93805" lon="-1.5861">
        <ele>41</ele>
        <time>2011-04-10T08:44:15Z</time>
      </trkpt>
      <trkpt lat="46.93789" lon="-1.58564">
        <ele>41</ele>
        <time>2011-04-10T08:44:20Z</time>
      </trkpt>
      <trkpt lat="46.93781" lon="-1.58506">
        <ele>41</ele>
        <time>2011-04-10T08:44:26Z</time>
      </trkpt>
      <trkpt lat="46.93772" lon="-1.58454">
        <ele>43</ele>
        <time>2011-04-10T08:44:32Z</time>
      </trkpt>
      <trkpt lat="46.93777" lon="-1.58428">
        <ele>43</ele>
        <time>2011-04-10T08:44:36Z</time>
      </trkpt>
      <trkpt lat="46.93791" lon="-1.58418">
        <ele>43</ele>
        <time>2011-04-10T08:44:39Z</time>
      </trkpt>
      <trkpt lat="46.93848" lon="-1.58372">
        <ele>44</ele>
        <time>2011-04-10T08:44:50Z</time>
      </trkpt>
      <trkpt lat="46.93896" lon="-1.58324">
        <ele>45</ele>
        <time>2011-04-10T08:45:00Z</time>
      </trkpt>
      <trkpt lat="46.93939" lon="-1.58278">
        <ele>46</ele>
        <time>2011-04-10T08:45:10Z</time>
      </trkpt>
      <trkpt lat="46.93956" lon="-1.58261">
        <ele>46</ele>
        <time>2011-04-10T08:45:14Z</time>
      </trkpt>
      <trkpt lat="46.93975" lon="-1.58256">
        <ele>47</ele>
        <time>2011-04-10T08:45:18Z</time>
      </trkpt>
      <trkpt lat="46.93986" lon="-1.5827">
        <ele>47</ele>
        <time>2011-04-10T08:45:21Z</time>
      </trkpt>
      <trkpt lat="46.94002" lon="-1.58298">
        <ele>47</ele>
        <time>2011-04-10T08:45:26Z</time>
      </trkpt>
      <trkpt lat="46.94022" lon="-1.58302">
        <ele>47</ele>
        <time>2011-04-10T08:45:30Z</time>
      </trkpt>
      <trkpt lat="46.94026" lon="-1.58298">
        <ele>47</ele>
        <time>2011-04-10T08:45:31Z</time>
      </trkpt>
      <trkpt lat="46.94077" lon="-1.58246">
        <ele>47</ele>
        <time>2011-04-10T08:45:43Z</time>
      </trkpt>
      <trkpt lat="46.94116" lon="-1.58206">
        <ele>48</ele>
        <time>2011-04-10T08:45:52Z</time>
      </trkpt>
      <trkpt lat="46.94161" lon="-1.58162">
        <ele>49</ele>
        <time>2011-04-10T08:46:02Z</time>
      </trkpt>
      <trkpt lat="46.94207" lon="-1.58113">
        <ele>48</ele>
        <time>2011-04-10T08:46:12Z</time>
      </trkpt>
      <trkpt lat="46.94259" lon="-1.58068">
        <ele>46</ele>
        <time>2011-04-10T08:46:22Z</time>
      </trkpt>
      <trkpt lat="46.94272" lon="-1.58036">
        <ele>45</ele>
        <time>2011-04-10T08:46:26Z</time>
      </trkpt>
      <trkpt lat="46.9427" lon="-1.58016">
        <ele>45</ele>
        <time>2011-04-10T08:46:28Z</time>
      </trkpt>
      <trkpt lat="46.94254" lon="-1.57923">
        <ele>44</ele>
        <time>2011-04-10T08:46:38Z</time>
      </trkpt>
      <trkpt lat="46.94254" lon="-1.57853">
        <ele>43</ele>
        <time>2011-04-10T08:46:45Z</time>
      </trkpt>
      <trkpt lat="46.94253" lon="-1.57777">
        <ele>43</ele>
        <time>2011-04-10T08:46:53Z</time>
      </trkpt>
      <trkpt lat="46.94241" lon="-1.57724">
        <ele>45</ele>
        <time>2011-04-10T08:46:59Z</time>
      </trkpt>
      <trkpt lat="46.94217" lon="-1.57626">
        <ele>43</ele>
        <time>2011-04-10T08:47:10Z</time>
      </trkpt>
      <trkpt lat="46.94197" lon="-1.57551">
        <ele>40</ele>
        <time>2011-04-10T08:47:19Z</time>
      </trkpt>
      <trkpt lat="46.94189" lon="-1.57523">
        <ele>40</ele>
        <time>2011-04-10T08:47:24Z</time>
      </trkpt>
      <trkpt lat="46.94187" lon="-1.57512">
        <ele>39</ele>
        <time>2011-04-10T08:47:29Z</time>
      </trkpt>
      <trkpt lat="46.94186" lon="-1.57513">
        <ele>39</ele>
        <time>2011-04-10T08:47:35Z</time>
      </trkpt>
      <trkpt lat="46.94187" lon="-1.5752">
        <ele>39</ele>
        <time>2011-04-10T08:49:56Z</time>
      </trkpt>
      <trkpt lat="46.94187" lon="-1.5752">
        <ele>39</ele>
        <time>2011-04-10T08:49:58Z</time>
      </trkpt>
      <trkpt lat="46.94187" lon="-1.57519">
        <ele>39</ele>
        <time>2011-04-10T08:50:01Z</time>
      </trkpt>
      <trkpt lat="46.94186" lon="-1.57517">
        <ele>39</ele>
        <time>2011-04-10T08:50:02Z</time>
      </trkpt>
      <trkpt lat="46.94186" lon="-1.57515">
        <ele>39</ele>
        <time>2011-04-10T08:50:03Z</time>
      </trkpt>
      <trkpt lat="46.94195" lon="-1.57502">
        <ele>39</ele>
        <time>2011-04-10T08:50:05Z</time>
      </trkpt>
      <trkpt lat="46.9424" lon="-1.57488">
        <ele>38</ele>
        <time>2011-04-10T08:50:13Z</time>
      </trkpt>
      <trkpt lat="46.94266" lon="-1.57479">
        <ele>37</ele>
        <time>2011-04-10T08:50:17Z</time>
      </trkpt>
      <trkpt lat="46.9431" lon="-1.57468">
        <ele>36</ele>
        <time>2011-04-10T08:50:23Z</time>
      </trkpt>
      <trkpt lat="46.9434" lon="-1.57476">
        <ele>35</ele>
        <time>2011-04-10T08:50:27Z</time>
      </trkpt>
      <trkpt lat="46.94377" lon="-1.57502">
        <ele>34</ele>
        <time>2011-04-10T08:50:32Z</time>
      </trkpt>
      <trkpt lat="46.94392" lon="-1.57514">
        <ele>34</ele>
        <time>2011-04-10T08:50:34Z</time>
      </trkpt>
      <trkpt lat="46.94425" lon="-1.57513">
        <ele>35</ele>
        <time>2011-04-10T08:50:38Z</time>
      </trkpt>
      <trkpt lat="46.94444" lon="-1.57496">
        <ele>36</ele>
        <time>2011-04-10T08:50:41Z</time>
      </trkpt>
      <trkpt lat="46.94454" lon="-1.57482">
        <ele>36</ele>
        <time>2011-04-10T08:50:43Z</time>
      </trkpt>
      <trkpt lat="46.94489" lon="-1.57414">
        <ele>37</ele>
        <time>2011-04-10T08:50:53Z</time>
      </trkpt>
      <trkpt lat="46.9451" lon="-1.57372">
        <ele>39</ele>
        <time>2011-04-10T08:50:59Z</time>
      </trkpt>
      <trkpt lat="46.94525" lon="-1.57346">
        <ele>38</ele>
        <time>2011-04-10T08:51:03Z</time>
      </trkpt>
      <trkpt lat="46.94547" lon="-1.57327">
        <ele>40</ele>
        <time>2011-04-10T08:51:08Z</time>
      </trkpt>
      <trkpt lat="46.94577" lon="-1.57309">
        <ele>41</ele>
        <time>2011-04-10T08:51:15Z</time>
      </trkpt>
      <trkpt lat="46.94608" lon="-1.57282">
        <ele>45</ele>
        <time>2011-04-10T08:51:24Z</time>
      </trkpt>
      <trkpt lat="46.94637" lon="-1.57254">
        <ele>46</ele>
        <time>2011-04-10T08:51:33Z</time>
      </trkpt>
      <trkpt lat="46.94671" lon="-1.57223">
        <ele>49</ele>
        <time>2011-04-10T08:51:43Z</time>
      </trkpt>
      <trkpt lat="46.94704" lon="-1.57193">
        <ele>49</ele>
        <time>2011-04-10T08:51:52Z</time>
      </trkpt>
      <trkpt lat="46.94712" lon="-1.57187">
        <ele>49</ele>
        <time>2011-04-10T08:51:54Z</time>
      </trkpt>
      <trkpt lat="46.94737" lon="-1.57164">
        <ele>49</ele>
        <time>2011-04-10T08:52:00Z</time>
      </trkpt>
      <trkpt lat="46.94747" lon="-1.57143">
        <ele>49</ele>
        <time>2011-04-10T08:52:04Z</time>
      </trkpt>
      <trkpt lat="46.94741" lon="-1.57134">
        <ele>49</ele>
        <time>2011-04-10T08:52:06Z</time>
      </trkpt>
      <trkpt lat="46.94704" lon="-1.57097">
        <ele>49</ele>
        <time>2011-04-10T08:52:15Z</time>
      </trkpt>
      <trkpt lat="46.94687" lon="-1.57071">
        <ele>48</ele>
        <time>2011-04-10T08:52:20Z</time>
      </trkpt>
      <trkpt lat="46.94658" lon="-1.5702">
        <ele>47</ele>
        <time>2011-04-10T08:52:28Z</time>
      </trkpt>
      <trkpt lat="46.94641" lon="-1.56987">
        <ele>47</ele>
        <time>2011-04-10T08:52:33Z</time>
      </trkpt>
      <trkpt lat="46.9464" lon="-1.56963">
        <ele>47</ele>
        <time>2011-04-10T08:52:37Z</time>
      </trkpt>
      <trkpt lat="46.94644" lon="-1.56958">
        <ele>47</ele>
        <time>2011-04-10T08:52:38Z</time>
      </trkpt>
      <trkpt lat="46.94679" lon="-1.56923">
        <ele>47</ele>
        <time>2011-04-10T08:52:45Z</time>
      </trkpt>
      <trkpt lat="46.94724" lon="-1.5689">
        <ele>45</ele>
        <time>2011-04-10T08:52:52Z</time>
      </trkpt>
      <trkpt lat="46.94778" lon="-1.56852">
        <ele>41</ele>
        <time>2011-04-10T08:52:59Z</time>
      </trkpt>
      <trkpt lat="46.9486" lon="-1.56795">
        <ele>39</ele>
        <time>2011-04-10T08:53:09Z</time>
      </trkpt>
      <trkpt lat="46.94918" lon="-1.56754">
        <ele>41</ele>
        <time>2011-04-10T08:53:17Z</time>
      </trkpt>
      <trkpt lat="46.94947" lon="-1.56721">
        <ele>41</ele>
        <time>2011-04-10T08:53:22Z</time>
      </trkpt>
      <trkpt lat="46.94957" lon="-1.56706">
        <ele>41</ele>
        <time>2011-04-10T08:53:24Z</time>
      </trkpt>
      <trkpt lat="46.94964" lon="-1.56671">
        <ele>42</ele>
        <time>2011-04-10T08:53:28Z</time>
      </trkpt>
      <trkpt lat="46.94958" lon="-1.56656">
        <ele>42</ele>
        <time>2011-04-10T08:53:30Z</time>
      </trkpt>
      <trkpt lat="46.94942" lon="-1.56621">
        <ele>42</ele>
        <time>2011-04-10T08:53:35Z</time>
      </trkpt>
      <trkpt lat="46.94909" lon="-1.5655">
        <ele>45</ele>
        <time>2011-04-10T08:53:46Z</time>
      </trkpt>
      <trkpt lat="46.94881" lon="-1.56483">
        <ele>45</ele>
        <time>2011-04-10T08:53:56Z</time>
      </trkpt>
      <trkpt lat="46.94859" lon="-1.56405">
        <ele>46</ele>
        <time>2011-04-10T08:54:06Z</time>
      </trkpt>
      <trkpt lat="46.94836" lon="-1.56333">
        <ele>47</ele>
        <time>2011-04-10T08:54:15Z</time>
      </trkpt>
      <trkpt lat="46.94819" lon="-1.56274">
        <ele>47</ele>
        <time>2011-04-10T08:54:22Z</time>
      </trkpt>
      <trkpt lat="46.94786" lon="-1.56185">
        <ele>48</ele>
        <time>2011-04-10T08:54:33Z</time>
      </trkpt>
      <trkpt lat="46.94783" lon="-1.56178">
        <ele>48</ele>
        <time>2011-04-10T08:54:34Z</time>
      </trkpt>
      <trkpt lat="46.94764" lon="-1.56159">
        <ele>48</ele>
        <time>2011-04-10T08:54:38Z</time>
      </trkpt>
      <trkpt lat="46.94704" lon="-1.56156">
        <ele>49</ele>
        <time>2011-04-10T08:54:48Z</time>
      </trkpt>
      <trkpt lat="46.94687" lon="-1.56157">
        <ele>49</ele>
        <time>2011-04-10T08:54:51Z</time>
      </trkpt>
      <trkpt lat="46.94668" lon="-1.56149">
        <ele>49</ele>
        <time>2011-04-10T08:54:55Z</time>
      </trkpt>
      <trkpt lat="46.94664" lon="-1.56129">
        <ele>50</ele>
        <time>2011-04-10T08:54:58Z</time>
      </trkpt>
      <trkpt lat="46.94665" lon="-1.56116">
        <ele>50</ele>
        <time>2011-04-10T08:55:00Z</time>
      </trkpt>
      <trkpt lat="46.94672" lon="-1.56045">
        <ele>48</ele>
        <time>2011-04-10T08:55:10Z</time>
      </trkpt>
      <trkpt lat="46.94679" lon="-1.55964">
        <ele>47</ele>
        <time>2011-04-10T08:55:20Z</time>
      </trkpt>
      <trkpt lat="46.94681" lon="-1.5593">
        <ele>47</ele>
        <time>2011-04-10T08:55:24Z</time>
      </trkpt>
      <trkpt lat="46.94683" lon="-1.55898">
        <ele>48</ele>
        <time>2011-04-10T08:55:28Z</time>
      </trkpt>
      <trkpt lat="46.94689" lon="-1.55843">
        <ele>48</ele>
        <time>2011-04-10T08:55:35Z</time>
      </trkpt>
      <trkpt lat="46.94689" lon="-1.55836">
        <ele>48</ele>
        <time>2011-04-10T08:55:36Z</time>
      </trkpt>
      <trkpt lat="46.94679" lon="-1.55814">
        <ele>49</ele>
        <time>2011-04-10T08:55:40Z</time>
      </trkpt>
      <trkpt lat="46.9463" lon="-1.55782">
        <ele>51</ele>
        <time>2011-04-10T08:55:51Z</time>
      </trkpt>
      <trkpt lat="46.94591" lon="-1.55753">
        <ele>52</ele>
        <time>2011-04-10T08:56:00Z</time>
      </trkpt>
      <trkpt lat="46.94535" lon="-1.55713">
        <ele>54</ele>
        <time>2011-04-10T08:56:13Z</time>
      </trkpt>
      <trkpt lat="46.94484" lon="-1.55677">
        <ele>56</ele>
        <time>2011-04-10T08:56:25Z</time>
      </trkpt>
      <trkpt lat="46.94446" lon="-1.5565">
        <ele>56</ele>
        <time>2011-04-10T08:56:34Z</time>
      </trkpt>
      <trkpt lat="46.94397" lon="-1.55615">
        <ele>58</ele>
        <time>2011-04-10T08:56:45Z</time>
      </trkpt>
      <trkpt lat="46.94379" lon="-1.55602">
        <ele>58</ele>
        <time>2011-04-10T08:56:49Z</time>
      </trkpt>
      <trkpt lat="46.94361" lon="-1.55575">
        <ele>59</ele>
        <time>2011-04-10T08:56:54Z</time>
      </trkpt>
      <trkpt lat="46.9436" lon="-1.55559">
        <ele>59</ele>
        <time>2011-04-10T08:56:56Z</time>
      </trkpt>
      <trkpt lat="46.94358" lon="-1.55485">
        <ele>58</ele>
        <time>2011-04-10T08:57:05Z</time>
      </trkpt>
      <trkpt lat="46.9435" lon="-1.55412">
        <ele>58</ele>
        <time>2011-04-10T08:57:13Z</time>
      </trkpt>
      <trkpt lat="46.9433" lon="-1.55317">
        <ele>58</ele>
        <time>2011-04-10T08:57:23Z</time>
      </trkpt>
      <trkpt lat="46.94321" lon="-1.55242">
        <ele>58</ele>
        <time>2011-04-10T08:57:30Z</time>
      </trkpt>
      <trkpt lat="46.94313" lon="-1.55129">
        <ele>57</ele>
        <time>2011-04-10T08:57:40Z</time>
      </trkpt>
      <trkpt lat="46.94326" lon="-1.55089">
        <ele>57</ele>
        <time>2011-04-10T08:57:44Z</time>
      </trkpt>
      <trkpt lat="46.94341" lon="-1.55082">
        <ele>56</ele>
        <time>2011-04-10T08:57:46Z</time>
      </trkpt>
      <trkpt lat="46.9441" lon="-1.5506">
        <ele>56</ele>
        <time>2011-04-10T08:57:55Z</time>
      </trkpt>
      <trkpt lat="46.94417" lon="-1.55056">
        <ele>56</ele>
        <time>2011-04-10T08:57:56Z</time>
      </trkpt>
      <trkpt lat="46.94447" lon="-1.55023">
        <ele>56</ele>
        <time>2011-04-10T08:58:01Z</time>
      </trkpt>
      <trkpt lat="46.94455" lon="-1.55004">
        <ele>56</ele>
        <time>2011-04-10T08:58:03Z</time>
      </trkpt>
      <trkpt lat="46.94492" lon="-1.54891">
        <ele>57</ele>
        <time>2011-04-10T08:58:15Z</time>
      </trkpt>
      <trkpt lat="46.94531" lon="-1.54778">
        <ele>57</ele>
        <time>2011-04-10T08:58:27Z</time>
      </trkpt>
      <trkpt lat="46.94555" lon="-1.54706">
        <ele>56</ele>
        <time>2011-04-10T08:58:35Z</time>
      </trkpt>
      <trkpt lat="46.94555" lon="-1.54677">
        <ele>56</ele>
        <time>2011-04-10T08:58:39Z</time>
      </trkpt>
      <trkpt lat="46.94548" lon="-1.54669">
        <ele>56</ele>
        <time>2011-04-10T08:58:41Z</time>
      </trkpt>
      <trkpt lat="46.94541" lon="-1.54661">
        <ele>56</ele>
        <time>2011-04-10T08:58:43Z</time>
      </trkpt>
      <trkpt lat="46.94535" lon="-1.54652">
        <ele>56</ele>
        <time>2011-04-10T08:58:46Z</time>
      </trkpt>
      <trkpt lat="46.9454" lon="-1.54654">
        <ele>56</ele>
        <time>2011-04-10T08:58:48Z</time>
      </trkpt>
      <trkpt lat="46.94552" lon="-1.54668">
        <ele>56</ele>
        <time>2011-04-10T08:58:52Z</time>
      </trkpt>
      <trkpt lat="46.94561" lon="-1.54666">
        <ele>56</ele>
        <time>2011-04-10T08:58:55Z</time>
      </trkpt>
      <trkpt lat="46.94553" lon="-1.54656">
        <ele>56</ele>
        <time>2011-04-10T08:58:58Z</time>
      </trkpt>
      <trkpt lat="46.94539" lon="-1.54647">
        <ele>56</ele>
        <time>2011-04-10T08:59:01Z</time>
      </trkpt>
      <trkpt lat="46.94489" lon="-1.54596">
        <ele>57</ele>
        <time>2011-04-10T08:59:12Z</time>
      </trkpt>
      <trkpt lat="46.94458" lon="-1.54564">
        <ele>57</ele>
        <time>2011-04-10T08:59:19Z</time>
      </trkpt>
      <trkpt lat="46.94427" lon="-1.54534">
        <ele>57</ele>
        <time>2011-04-10T08:59:26Z</time>
      </trkpt>
      <trkpt lat="46.94401" lon="-1.54508">
        <ele>58</ele>
        <time>2011-04-10T08:59:32Z</time>
      </trkpt>
      <trkpt lat="46.94377" lon="-1.54481">
        <ele>57</ele>
        <time>2011-04-10T08:59:38Z</time>
      </trkpt>
      <trkpt lat="46.94354" lon="-1.54458">
        <ele>57</ele>
        <time>2011-04-10T08:59:44Z</time>
      </trkpt>
      <trkpt lat="46.94328" lon="-1.54433">
        <ele>57</ele>
        <time>2011-04-10T08:59:50Z</time>
      </trkpt>
      <trkpt lat="46.9431" lon="-1.54415">
        <ele>56</ele>
        <time>2011-04-10T08:59:54Z</time>
      </trkpt>
      <trkpt lat="46.94304" lon="-1.544">
        <ele>56</ele>
        <time>2011-04-10T08:59:57Z</time>
      </trkpt>
      <trkpt lat="46.94309" lon="-1.54389">
        <ele>56</ele>
        <time>2011-04-10T08:59:59Z</time>
      </trkpt>
      <trkpt lat="46.94336" lon="-1.54346">
        <ele>55</ele>
        <time>2011-04-10T09:00:06Z</time>
      </trkpt>
      <trkpt lat="46.94372" lon="-1.54288">
        <ele>54</ele>
        <time>2011-04-10T09:00:14Z</time>
      </trkpt>
      <trkpt lat="46.94416" lon="-1.54223">
        <ele>52</ele>
        <time>2011-04-10T09:00:23Z</time>
      </trkpt>
      <trkpt lat="46.94431" lon="-1.54203">
        <ele>51</ele>
        <time>2011-04-10T09:00:26Z</time>
      </trkpt>
      <trkpt lat="46.94433" lon="-1.54181">
        <ele>51</ele>
        <time>2011-04-10T09:00:29Z</time>
      </trkpt>
      <trkpt lat="46.94424" lon="-1.5417">
        <ele>51</ele>
        <time>2011-04-10T09:00:31Z</time>
      </trkpt>
      <trkpt lat="46.94416" lon="-1.54157">
        <ele>51</ele>
        <time>2011-04-10T09:00:33Z</time>
      </trkpt>
      <trkpt lat="46.94387" lon="-1.54121">
        <ele>51</ele>
        <time>2011-04-10T09:00:39Z</time>
      </trkpt>
      <trkpt lat="46.94368" lon="-1.541">
        <ele>51</ele>
        <time>2011-04-10T09:00:43Z</time>
      </trkpt>
      <trkpt lat="46.94373" lon="-1.54086">
        <ele>51</ele>
        <time>2011-04-10T09:00:45Z</time>
      </trkpt>
      <trkpt lat="46.94388" lon="-1.54068">
        <ele>50</ele>
        <time>2011-04-10T09:00:48Z</time>
      </trkpt>
      <trkpt lat="46.94425" lon="-1.54007">
        <ele>48</ele>
        <time>2011-04-10T09:00:56Z</time>
      </trkpt>
      <trkpt lat="46.94426" lon="-1.53981">
        <ele>47</ele>
        <time>2011-04-10T09:00:59Z</time>
      </trkpt>
      <trkpt lat="46.94422" lon="-1.53974">
        <ele>47</ele>
        <time>2011-04-10T09:01:00Z</time>
      </trkpt>
      <trkpt lat="46.94415" lon="-1.53965">
        <ele>47</ele>
        <time>2011-04-10T09:01:03Z</time>
      </trkpt>
      <trkpt lat="46.9442" lon="-1.53956">
        <ele>46</ele>
        <time>2011-04-10T09:01:07Z</time>
      </trkpt>
      <trkpt lat="46.94423" lon="-1.53952">
        <ele>46</ele>
        <time>2011-04-10T09:01:08Z</time>
      </trkpt>
      <trkpt lat="46.94446" lon="-1.53915">
        <ele>44</ele>
        <time>2011-04-10T09:01:14Z</time>
      </trkpt>
      <trkpt lat="46.94454" lon="-1.539">
        <ele>44</ele>
        <time>2011-04-10T09:01:16Z</time>
      </trkpt>
      <trkpt lat="46.94478" lon="-1.53861">
        <ele>44</ele>
        <time>2011-04-10T09:01:22Z</time>
      </trkpt>
      <trkpt lat="46.94487" lon="-1.53849">
        <ele>43</ele>
        <time>2011-04-10T09:01:26Z</time>
      </trkpt>
      <trkpt lat="46.94495" lon="-1.53832">
        <ele>42</ele>
        <time>2011-04-10T09:01:30Z</time>
      </trkpt>
      <trkpt lat="46.94509" lon="-1.5381">
        <ele>40</ele>
        <time>2011-04-10T09:01:34Z</time>
      </trkpt>
      <trkpt lat="46.94533" lon="-1.53772">
        <ele>39</ele>
        <time>2011-04-10T09:01:40Z</time>
      </trkpt>
      <trkpt lat="46.94545" lon="-1.53753">
        <ele>38</ele>
        <time>2011-04-10T09:01:44Z</time>
      </trkpt>
      <trkpt lat="46.94558" lon="-1.53734">
        <ele>35</ele>
        <time>2011-04-10T09:01:48Z</time>
      </trkpt>
      <trkpt lat="46.94589" lon="-1.53687">
        <ele>32</ele>
        <time>2011-04-10T09:01:56Z</time>
      </trkpt>
      <trkpt lat="46.94608" lon="-1.53656">
        <ele>29</ele>
        <time>2011-04-10T09:02:02Z</time>
      </trkpt>
      <trkpt lat="46.94632" lon="-1.53618">
        <ele>27</ele>
        <time>2011-04-10T09:02:09Z</time>
      </trkpt>
      <trkpt lat="46.94658" lon="-1.53572">
        <ele>24</ele>
        <time>2011-04-10T09:02:16Z</time>
      </trkpt>
      <trkpt lat="46.94661" lon="-1.53566">
        <ele>24</ele>
        <time>2011-04-10T09:02:17Z</time>
      </trkpt>
      <trkpt lat="46.94666" lon="-1.5354">
        <ele>23</ele>
        <time>2011-04-10T09:02:21Z</time>
      </trkpt>
      <trkpt lat="46.94664" lon="-1.5352">
        <ele>22</ele>
        <time>2011-04-10T09:02:24Z</time>
      </trkpt>
      <trkpt lat="46.94648" lon="-1.53498">
        <ele>21</ele>
        <time>2011-04-10T09:02:28Z</time>
      </trkpt>
      <trkpt lat="46.94634" lon="-1.53494">
        <ele>22</ele>
        <time>2011-04-10T09:02:30Z</time>
      </trkpt>
      <trkpt lat="46.94608" lon="-1.5349">
        <ele>23</ele>
        <time>2011-04-10T09:02:34Z</time>
      </trkpt>
      <trkpt lat="46.94576" lon="-1.53473">
        <ele>26</ele>
        <time>2011-04-10T09:02:40Z</time>
      </trkpt>
      <trkpt lat="46.94562" lon="-1.53464">
        <ele>26</ele>
        <time>2011-04-10T09:02:43Z</time>
      </trkpt>
      <trkpt lat="46.94519" lon="-1.5344">
        <ele>27</ele>
        <time>2011-04-10T09:02:52Z</time>
      </trkpt>
      <trkpt lat="46.94484" lon="-1.53425">
        <ele>31</ele>
        <time>2011-04-10T09:02:59Z</time>
      </trkpt>
      <trkpt lat="46.94476" lon="-1.53416">
        <ele>30</ele>
        <time>2011-04-10T09:03:01Z</time>
      </trkpt>
      <trkpt lat="46.94462" lon="-1.53393">
        <ele>31</ele>
        <time>2011-04-10T09:03:05Z</time>
      </trkpt>
      <trkpt lat="46.94444" lon="-1.53342">
        <ele>31</ele>
        <time>2011-04-10T09:03:12Z</time>
      </trkpt>
      <trkpt lat="46.94426" lon="-1.53296">
        <ele>27</ele>
        <time>2011-04-10T09:03:18Z</time>
      </trkpt>
      <trkpt lat="46.944" lon="-1.53251">
        <ele>29</ele>
        <time>2011-04-10T09:03:24Z</time>
      </trkpt>
      <trkpt lat="46.94362" lon="-1.53207">
        <ele>29</ele>
        <time>2011-04-10T09:03:31Z</time>
      </trkpt>
      <trkpt lat="46.94332" lon="-1.53165">
        <ele>31</ele>
        <time>2011-04-10T09:03:37Z</time>
      </trkpt>
      <trkpt lat="46.94329" lon="-1.53157">
        <ele>32</ele>
        <time>2011-04-10T09:03:38Z</time>
      </trkpt>
      <trkpt lat="46.94319" lon="-1.53125">
        <ele>33</ele>
        <time>2011-04-10T09:03:42Z</time>
      </trkpt>
      <trkpt lat="46.943" lon="-1.53094">
        <ele>33</ele>
        <time>2011-04-10T09:03:47Z</time>
      </trkpt>
      <trkpt lat="46.94291" lon="-1.53085">
        <ele>34</ele>
        <time>2011-04-10T09:03:49Z</time>
      </trkpt>
      <trkpt lat="46.94278" lon="-1.53062">
        <ele>34</ele>
        <time>2011-04-10T09:03:53Z</time>
      </trkpt>
      <trkpt lat="46.94259" lon="-1.5298">
        <ele>34</ele>
        <time>2011-04-10T09:04:04Z</time>
      </trkpt>
      <trkpt lat="46.94258" lon="-1.52973">
        <ele>34</ele>
        <time>2011-04-10T09:04:05Z</time>
      </trkpt>
      <trkpt lat="46.94255" lon="-1.52961">
        <ele>33</ele>
        <time>2011-04-10T09:04:07Z</time>
      </trkpt>
      <trkpt lat="46.94238" lon="-1.52912">
        <ele>35</ele>
        <time>2011-04-10T09:04:14Z</time>
      </trkpt>
      <trkpt lat="46.94235" lon="-1.52906">
        <ele>35</ele>
        <time>2011-04-10T09:04:15Z</time>
      </trkpt>
      <trkpt lat="46.94201" lon="-1.52863">
        <ele>36</ele>
        <time>2011-04-10T09:04:23Z</time>
      </trkpt>
      <trkpt lat="46.94164" lon="-1.5282">
        <ele>37</ele>
        <time>2011-04-10T09:04:31Z</time>
      </trkpt>
      <trkpt lat="46.94124" lon="-1.52766">
        <ele>38</ele>
        <time>2011-04-10T09:04:39Z</time>
      </trkpt>
      <trkpt lat="46.94095" lon="-1.52731">
        <ele>37</ele>
        <time>2011-04-10T09:04:43Z</time>
      </trkpt>
      <trkpt lat="46.94071" lon="-1.52709">
        <ele>39</ele>
        <time>2011-04-10T09:04:46Z</time>
      </trkpt>
      <trkpt lat="46.94057" lon="-1.52684">
        <ele>38</ele>
        <time>2011-04-10T09:04:49Z</time>
      </trkpt>
      <trkpt lat="46.94054" lon="-1.52677">
        <ele>38</ele>
        <time>2011-04-10T09:04:50Z</time>
      </trkpt>
      <trkpt lat="46.94049" lon="-1.52652">
        <ele>37</ele>
        <time>2011-04-10T09:04:55Z</time>
      </trkpt>
      <trkpt lat="46.94045" lon="-1.52637">
        <ele>37</ele>
        <time>2011-04-10T09:04:58Z</time>
      </trkpt>
      <trkpt lat="46.94029" lon="-1.52591">
        <ele>37</ele>
        <time>2011-04-10T09:05:05Z</time>
      </trkpt>
      <trkpt lat="46.94" lon="-1.52535">
        <ele>35</ele>
        <time>2011-04-10T09:05:13Z</time>
      </trkpt>
      <trkpt lat="46.93963" lon="-1.52482">
        <ele>33</ele>
        <time>2011-04-10T09:05:20Z</time>
      </trkpt>
      <trkpt lat="46.93922" lon="-1.52418">
        <ele>34</ele>
        <time>2011-04-10T09:05:28Z</time>
      </trkpt>
      <trkpt lat="46.93905" lon="-1.52373">
        <ele>35</ele>
        <time>2011-04-10T09:05:33Z</time>
      </trkpt>
      <trkpt lat="46.93896" lon="-1.5234">
        <ele>35</ele>
        <time>2011-04-10T09:05:37Z</time>
      </trkpt>
      <trkpt lat="46.93897" lon="-1.5232">
        <ele>34</ele>
        <time>2011-04-10T09:05:41Z</time>
      </trkpt>
      <trkpt lat="46.93906" lon="-1.52309">
        <ele>34</ele>
        <time>2011-04-10T09:05:45Z</time>
      </trkpt>
      <trkpt lat="46.93922" lon="-1.52292">
        <ele>32</ele>
        <time>2011-04-10T09:05:52Z</time>
      </trkpt>
      <trkpt lat="46.93933" lon="-1.5228">
        <ele>32</ele>
        <time>2011-04-10T09:05:56Z</time>
      </trkpt>
      <trkpt lat="46.93954" lon="-1.52261">
        <ele>31</ele>
        <time>2011-04-10T09:06:02Z</time>
      </trkpt>
      <trkpt lat="46.9397" lon="-1.52247">
        <ele>30</ele>
        <time>2011-04-10T09:06:07Z</time>
      </trkpt>
      <trkpt lat="46.93984" lon="-1.52235">
        <ele>30</ele>
        <time>2011-04-10T09:06:11Z</time>
      </trkpt>
      <trkpt lat="46.94" lon="-1.52219">
        <ele>30</ele>
        <time>2011-04-10T09:06:16Z</time>
      </trkpt>
      <trkpt lat="46.94005" lon="-1.52213">
        <ele>27</ele>
        <time>2011-04-10T09:06:20Z</time>
      </trkpt>
      <trkpt lat="46.94007" lon="-1.52211">
        <ele>27</ele>
        <time>2011-04-10T09:06:22Z</time>
      </trkpt>
      <trkpt lat="46.94009" lon="-1.52209">
        <ele>27</ele>
        <time>2011-04-10T09:06:29Z</time>
      </trkpt>
      <trkpt lat="46.94015" lon="-1.52203">
        <ele>27</ele>
        <time>2011-04-10T09:06:31Z</time>
      </trkpt>
      <trkpt lat="46.94018" lon="-1.52199">
        <ele>27</ele>
        <time>2011-04-10T09:06:33Z</time>
      </trkpt>
      <trkpt lat="46.94028" lon="-1.52183">
        <ele>27</ele>
        <time>2011-04-10T09:06:39Z</time>
      </trkpt>
      <trkpt lat="46.94035" lon="-1.52167">
        <ele>27</ele>
        <time>2011-04-10T09:06:43Z</time>
      </trkpt>
      <trkpt lat="46.9404" lon="-1.52144">
        <ele>25</ele>
        <time>2011-04-10T09:06:48Z</time>
      </trkpt>
      <trkpt lat="46.9405" lon="-1.52112">
        <ele>25</ele>
        <time>2011-04-10T09:06:53Z</time>
      </trkpt>
      <trkpt lat="46.94045" lon="-1.521">
        <ele>25</ele>
        <time>2011-04-10T09:06:55Z</time>
      </trkpt>
      <trkpt lat="46.94029" lon="-1.52081">
        <ele>25</ele>
        <time>2011-04-10T09:06:59Z</time>
      </trkpt>
      <trkpt lat="46.9402" lon="-1.52072">
        <ele>25</ele>
        <time>2011-04-10T09:07:01Z</time>
      </trkpt>
      <trkpt lat="46.93999" lon="-1.52043">
        <ele>26</ele>
        <time>2011-04-10T09:07:06Z</time>
      </trkpt>
      <trkpt lat="46.93983" lon="-1.52017">
        <ele>26</ele>
        <time>2011-04-10T09:07:11Z</time>
      </trkpt>
      <trkpt lat="46.93981" lon="-1.52011">
        <ele>26</ele>
        <time>2011-04-10T09:07:12Z</time>
      </trkpt>
      <trkpt lat="46.93977" lon="-1.5199">
        <ele>28</ele>
        <time>2011-04-10T09:07:18Z</time>
      </trkpt>
      <trkpt lat="46.93975" lon="-1.51982">
        <ele>28</ele>
        <time>2011-04-10T09:07:21Z</time>
      </trkpt>
      <trkpt lat="46.93981" lon="-1.5197">
        <ele>28</ele>
        <time>2011-04-10T09:07:25Z</time>
      </trkpt>
      <trkpt lat="46.93985" lon="-1.5197">
        <ele>28</ele>
        <time>2011-04-10T09:07:26Z</time>
      </trkpt>
      <trkpt lat="46.94015" lon="-1.5197">
        <ele>29</ele>
        <time>2011-04-10T09:07:32Z</time>
      </trkpt>
      <trkpt lat="46.94037" lon="-1.51963">
        <ele>29</ele>
        <time>2011-04-10T09:07:37Z</time>
      </trkpt>
      <trkpt lat="46.94063" lon="-1.51968">
        <ele>29</ele>
        <time>2011-04-10T09:07:42Z</time>
      </trkpt>
      <trkpt lat="46.94074" lon="-1.51969">
        <ele>29</ele>
        <time>2011-04-10T09:07:45Z</time>
      </trkpt>
      <trkpt lat="46.94087" lon="-1.51972">
        <ele>31</ele>
        <time>2011-04-10T09:07:51Z</time>
      </trkpt>
      <trkpt lat="46.94091" lon="-1.51977">
        <ele>30</ele>
        <time>2011-04-10T09:07:53Z</time>
      </trkpt>
      <trkpt lat="46.941" lon="-1.51981">
        <ele>30</ele>
        <time>2011-04-10T09:07:57Z</time>
      </trkpt>
      <trkpt lat="46.94115" lon="-1.52002">
        <ele>27</ele>
        <time>2011-04-10T09:08:03Z</time>
      </trkpt>
      <trkpt lat="46.94126" lon="-1.52011">
        <ele>28</ele>
        <time>2011-04-10T09:08:06Z</time>
      </trkpt>
      <trkpt lat="46.94139" lon="-1.52018">
        <ele>29</ele>
        <time>2011-04-10T09:08:10Z</time>
      </trkpt>
      <trkpt lat="46.94151" lon="-1.52025">
        <ele>29</ele>
        <time>2011-04-10T09:08:14Z</time>
      </trkpt>
      <trkpt lat="46.94159" lon="-1.5203">
        <ele>29</ele>
        <time>2011-04-10T09:08:17Z</time>
      </trkpt>
      <trkpt lat="46.94165" lon="-1.52035">
        <ele>29</ele>
        <time>2011-04-10T09:08:22Z</time>
      </trkpt>
      <trkpt lat="46.94167" lon="-1.52035">
        <ele>33</ele>
        <time>2011-04-10T09:08:24Z</time>
      </trkpt>
      <trkpt lat="46.94167" lon="-1.52035">
        <ele>33</ele>
        <time>2011-04-10T09:08:27Z</time>
      </trkpt>
      <trkpt lat="46.94169" lon="-1.52035">
        <ele>33</ele>
        <time>2011-04-10T09:08:28Z</time>
      </trkpt>
      <trkpt lat="46.94174" lon="-1.52035">
        <ele>33</ele>
        <time>2011-04-10T09:08:32Z</time>
      </trkpt>
      <trkpt lat="46.94182" lon="-1.52042">
        <ele>32</ele>
        <time>2011-04-10T09:08:40Z</time>
      </trkpt>
      <trkpt lat="46.94183" lon="-1.52043">
        <ele>32</ele>
        <time>2011-04-10T09:08:42Z</time>
      </trkpt>
      <trkpt lat="46.94184" lon="-1.52044">
        <ele>32</ele>
        <time>2011-04-10T09:08:45Z</time>
      </trkpt>
      <trkpt lat="46.94193" lon="-1.52059">
        <ele>32</ele>
        <time>2011-04-10T09:08:49Z</time>
      </trkpt>
      <trkpt lat="46.94199" lon="-1.52073">
        <ele>32</ele>
        <time>2011-04-10T09:08:54Z</time>
      </trkpt>
      <trkpt lat="46.94205" lon="-1.52081">
        <ele>32</ele>
        <time>2011-04-10T09:09:01Z</time>
      </trkpt>
      <trkpt lat="46.94212" lon="-1.52087">
        <ele>30</ele>
        <time>2011-04-10T09:09:06Z</time>
      </trkpt>
      <trkpt lat="46.9422" lon="-1.52086">
        <ele>31</ele>
        <time>2011-04-10T09:09:12Z</time>
      </trkpt>
      <trkpt lat="46.94221" lon="-1.52085">
        <ele>31</ele>
        <time>2011-04-10T09:09:14Z</time>
      </trkpt>
      <trkpt lat="46.94221" lon="-1.52084">
        <ele>31</ele>
        <time>2011-04-10T09:09:17Z</time>
      </trkpt>
      <trkpt lat="46.94222" lon="-1.5208">
        <ele>33</ele>
        <time>2011-04-10T09:09:20Z</time>
      </trkpt>
      <trkpt lat="46.94223" lon="-1.52079">
        <ele>33</ele>
        <time>2011-04-10T09:09:24Z</time>
      </trkpt>
      <trkpt lat="46.94225" lon="-1.52078">
        <ele>33</ele>
        <time>2011-04-10T09:10:10Z</time>
      </trkpt>
      <trkpt lat="46.94225" lon="-1.52076">
        <ele>33</ele>
        <time>2011-04-10T09:10:13Z</time>
      </trkpt>
      <trkpt lat="46.94226" lon="-1.52074">
        <ele>33</ele>
        <time>2011-04-10T09:10:17Z</time>
      </trkpt>
      <trkpt lat="46.94225" lon="-1.52065">
        <ele>33</ele>
        <time>2011-04-10T09:10:21Z</time>
      </trkpt>
      <trkpt lat="46.94221" lon="-1.52054">
        <ele>33</ele>
        <time>2011-04-10T09:10:26Z</time>
      </trkpt>
      <trkpt lat="46.9422" lon="-1.5205">
        <ele>33</ele>
        <time>2011-04-10T09:10:27Z</time>
      </trkpt>
      <trkpt lat="46.94211" lon="-1.52031">
        <ele>34</ele>
        <time>2011-04-10T09:10:33Z</time>
      </trkpt>
      <trkpt lat="46.942" lon="-1.52018">
        <ele>34</ele>
        <time>2011-04-10T09:10:38Z</time>
      </trkpt>
      <trkpt lat="46.94199" lon="-1.52003">
        <ele>34</ele>
        <time>2011-04-10T09:10:42Z</time>
      </trkpt>
      <trkpt lat="46.94199" lon="-1.51999">
        <ele>36</ele>
        <time>2011-04-10T09:10:43Z</time>
      </trkpt>
      <trkpt lat="46.94197" lon="-1.51994">
        <ele>36</ele>
        <time>2011-04-10T09:10:45Z</time>
      </trkpt>
      <trkpt lat="46.94197" lon="-1.51974">
        <ele>37</ele>
        <time>2011-04-10T09:10:51Z</time>
      </trkpt>
      <trkpt lat="46.94196" lon="-1.51961">
        <ele>37</ele>
        <time>2011-04-10T09:10:55Z</time>
      </trkpt>
      <trkpt lat="46.94199" lon="-1.51943">
        <ele>37</ele>
        <time>2011-04-10T09:11:00Z</time>
      </trkpt>
      <trkpt lat="46.94194" lon="-1.51935">
        <ele>37</ele>
        <time>2011-04-10T09:11:02Z</time>
      </trkpt>
      <trkpt lat="46.94171" lon="-1.51914">
        <ele>38</ele>
        <time>2011-04-10T09:11:08Z</time>
      </trkpt>
      <trkpt lat="46.94141" lon="-1.51894">
        <ele>37</ele>
        <time>2011-04-10T09:11:13Z</time>
      </trkpt>
      <trkpt lat="46.94104" lon="-1.51866">
        <ele>37</ele>
        <time>2011-04-10T09:11:19Z</time>
      </trkpt>
      <trkpt lat="46.94075" lon="-1.51836">
        <ele>38</ele>
        <time>2011-04-10T09:11:25Z</time>
      </trkpt>
      <trkpt lat="46.9404" lon="-1.51806">
        <ele>41</ele>
        <time>2011-04-10T09:11:32Z</time>
      </trkpt>
      <trkpt lat="46.93996" lon="-1.51783">
        <ele>42</ele>
        <time>2011-04-10T09:11:42Z</time>
      </trkpt>
      <trkpt lat="46.93963" lon="-1.51759">
        <ele>42</ele>
        <time>2011-04-10T09:11:50Z</time>
      </trkpt>
      <trkpt lat="46.93928" lon="-1.51718">
        <ele>43</ele>
        <time>2011-04-10T09:11:59Z</time>
      </trkpt>
      <trkpt lat="46.939" lon="-1.51686">
        <ele>43</ele>
        <time>2011-04-10T09:12:06Z</time>
      </trkpt>
      <trkpt lat="46.93864" lon="-1.51641">
        <ele>43</ele>
        <time>2011-04-10T09:12:15Z</time>
      </trkpt>
      <trkpt lat="46.93861" lon="-1.51635">
        <ele>43</ele>
        <time>2011-04-10T09:12:16Z</time>
      </trkpt>
      <trkpt lat="46.93847" lon="-1.51591">
        <ele>43</ele>
        <time>2011-04-10T09:12:22Z</time>
      </trkpt>
      <trkpt lat="46.93835" lon="-1.51564">
        <ele>43</ele>
        <time>2011-04-10T09:12:26Z</time>
      </trkpt>
      <trkpt lat="46.9381" lon="-1.51533">
        <ele>43</ele>
        <time>2011-04-10T09:12:32Z</time>
      </trkpt>
      <trkpt lat="46.93779" lon="-1.515">
        <ele>45</ele>
        <time>2011-04-10T09:12:39Z</time>
      </trkpt>
      <trkpt lat="46.93765" lon="-1.51484">
        <ele>45</ele>
        <time>2011-04-10T09:12:42Z</time>
      </trkpt>
      <trkpt lat="46.93745" lon="-1.51468">
        <ele>43</ele>
        <time>2011-04-10T09:12:46Z</time>
      </trkpt>
      <trkpt lat="46.93746" lon="-1.51439">
        <ele>42</ele>
        <time>2011-04-10T09:12:51Z</time>
      </trkpt>
      <trkpt lat="46.9375" lon="-1.51433">
        <ele>42</ele>
        <time>2011-04-10T09:12:52Z</time>
      </trkpt>
      <trkpt lat="46.93755" lon="-1.51422">
        <ele>43</ele>
        <time>2011-04-10T09:12:54Z</time>
      </trkpt>
      <trkpt lat="46.93754" lon="-1.51401">
        <ele>43</ele>
        <time>2011-04-10T09:12:58Z</time>
      </trkpt>
      <trkpt lat="46.9374" lon="-1.51359">
        <ele>40</ele>
        <time>2011-04-10T09:13:03Z</time>
      </trkpt>
      <trkpt lat="46.93735" lon="-1.5135">
        <ele>40</ele>
        <time>2011-04-10T09:13:04Z</time>
      </trkpt>
      <trkpt lat="46.93718" lon="-1.51324">
        <ele>39</ele>
        <time>2011-04-10T09:13:07Z</time>
      </trkpt>
      <trkpt lat="46.93694" lon="-1.51285">
        <ele>37</ele>
        <time>2011-04-10T09:13:11Z</time>
      </trkpt>
      <trkpt lat="46.9368" lon="-1.51249">
        <ele>35</ele>
        <time>2011-04-10T09:13:14Z</time>
      </trkpt>
      <trkpt lat="46.93671" lon="-1.51196">
        <ele>35</ele>
        <time>2011-04-10T09:13:18Z</time>
      </trkpt>
      <trkpt lat="46.93663" lon="-1.51151">
        <ele>33</ele>
        <time>2011-04-10T09:13:22Z</time>
      </trkpt>
      <trkpt lat="46.93659" lon="-1.51135">
        <ele>33</ele>
        <time>2011-04-10T09:13:24Z</time>
      </trkpt>
      <trkpt lat="46.93658" lon="-1.5112">
        <ele>33</ele>
        <time>2011-04-10T09:13:26Z</time>
      </trkpt>
      <trkpt lat="46.93644" lon="-1.51108">
        <ele>33</ele>
        <time>2011-04-10T09:13:29Z</time>
      </trkpt>
      <trkpt lat="46.93613" lon="-1.511">
        <ele>33</ele>
        <time>2011-04-10T09:13:34Z</time>
      </trkpt>
      <trkpt lat="46.93582" lon="-1.5109">
        <ele>33</ele>
        <time>2011-04-10T09:13:40Z</time>
      </trkpt>
      <trkpt lat="46.93567" lon="-1.51096">
        <ele>32</ele>
        <time>2011-04-10T09:13:44Z</time>
      </trkpt>
      <trkpt lat="46.93529" lon="-1.51107">
        <ele>32</ele>
        <time>2011-04-10T09:13:51Z</time>
      </trkpt>
      <trkpt lat="46.93494" lon="-1.511">
        <ele>32</ele>
        <time>2011-04-10T09:13:57Z</time>
      </trkpt>
      <trkpt lat="46.93483" lon="-1.51096">
        <ele>32</ele>
        <time>2011-04-10T09:13:59Z</time>
      </trkpt>
      <trkpt lat="46.93475" lon="-1.51093">
        <ele>31</ele>
        <time>2011-04-10T09:14:01Z</time>
      </trkpt>
      <trkpt lat="46.93463" lon="-1.51083">
        <ele>31</ele>
        <time>2011-04-10T09:14:06Z</time>
      </trkpt>
      <trkpt lat="46.93459" lon="-1.5108">
        <ele>34</ele>
        <time>2011-04-10T09:14:07Z</time>
      </trkpt>
      <trkpt lat="46.93419" lon="-1.51047">
        <ele>34</ele>
        <time>2011-04-10T09:14:16Z</time>
      </trkpt>
      <trkpt lat="46.93408" lon="-1.51039">
        <ele>33</ele>
        <time>2011-04-10T09:14:19Z</time>
      </trkpt>
      <trkpt lat="46.93381" lon="-1.51034">
        <ele>33</ele>
        <time>2011-04-10T09:14:25Z</time>
      </trkpt>
      <trkpt lat="46.93378" lon="-1.51034">
        <ele>33</ele>
        <time>2011-04-10T09:14:26Z</time>
      </trkpt>
      <trkpt lat="46.93371" lon="-1.51036">
        <ele>33</ele>
        <time>2011-04-10T09:14:30Z</time>
      </trkpt>
      <trkpt lat="46.93365" lon="-1.51032">
        <ele>33</ele>
        <time>2011-04-10T09:14:32Z</time>
      </trkpt>
      <trkpt lat="46.93332" lon="-1.51026">
        <ele>32</ele>
        <time>2011-04-10T09:14:39Z</time>
      </trkpt>
      <trkpt lat="46.93299" lon="-1.51014">
        <ele>31</ele>
        <time>2011-04-10T09:14:45Z</time>
      </trkpt>
      <trkpt lat="46.93269" lon="-1.5099">
        <ele>32</ele>
        <time>2011-04-10T09:14:50Z</time>
      </trkpt>
      <trkpt lat="46.93264" lon="-1.50985">
        <ele>32</ele>
        <time>2011-04-10T09:14:51Z</time>
      </trkpt>
      <trkpt lat="46.93247" lon="-1.50964">
        <ele>31</ele>
        <time>2011-04-10T09:14:55Z</time>
      </trkpt>
      <trkpt lat="46.93242" lon="-1.50956">
        <ele>31</ele>
        <time>2011-04-10T09:14:57Z</time>
      </trkpt>
      <trkpt lat="46.93242" lon="-1.50936">
        <ele>32</ele>
        <time>2011-04-10T09:15:01Z</time>
      </trkpt>
      <trkpt lat="46.93244" lon="-1.5092">
        <ele>33</ele>
        <time>2011-04-10T09:15:03Z</time>
      </trkpt>
      <trkpt lat="46.93248" lon="-1.50874">
        <ele>32</ele>
        <time>2011-04-10T09:15:09Z</time>
      </trkpt>
      <trkpt lat="46.93249" lon="-1.50869">
        <ele>32</ele>
        <time>2011-04-10T09:15:12Z</time>
      </trkpt>
      <trkpt lat="46.93248" lon="-1.50869">
        <ele>32</ele>
        <time>2011-04-10T09:15:14Z</time>
      </trkpt>
    </trkseg>
  </trk>
</gpx>